GFSMA_sfc_temp_000.txt.gz
Temp
78 79 79 79 79 79 79 79 79 79 79 79 79 79 78 79 79 79 79 69 68 69 69 72 73 73 73 74 74 74 74 74 74 74 73 73 73 73 73 73 73 73 73
78 77 78 78 79 79 79 79 78 77 77 78 77 78 78 79 79 78 79 78 68 68 68 69 72 73 73 74 74 74 74 74 74 74 73 73 73 73 73 73 72 72 73
77 77 77 77 79 79 78 78 77 77 76 77 76 77 78 79 78 79 79 78 77 67 66 69 70 72 73 74 74 75 74 74 74 74 74 73 73 73 72 72 72 72 72
77 76 76 76 77 77 76 76 75 74 74 74 74 74 75 76 77 78 78 79 78 78 73 67 68 69 72 73 74 75 75 74 73 73 73 74 73 72 72 72 72 72 72
75 76 75 75 76 75 75 74 74 73 70 71 70 72 74 74 76 78 78 77 77 77 77 72 67 66 67 69 72 74 75 74 73 73 73 73 73 73 72 72 72 72 72
75 75 75 74 75 74 73 73 72 73 73 73 72 73 73 75 77 77 78 79 79 77 77 76 76 75 64 66 68 70 72 73 73 72 73 73 73 73 73 72 72 72 72
73 72 72 72 72 71 70 70 70 68 69 71 68 68 70 75 77 77 74 77 78 79 79 78 77 74 75 67 67 68 69 70 71 71 72 72 72 72 73 73 73 72 72
70 70 69 69 68 68 68 67 66 64 66 68 64 63 61 67 73 72 73 75 76 78 77 75 75 75 74 73 70 67 68 69 70 71 71 71 72 72 72 72 73 73 73
68 67 67 67 67 66 65 64 64 62 60 64 65 62 57 55 61 67 68 72 73 74 75 75 75 76 77 76 71 68 65 66 68 69 70 71 71 71 71 72 72 72 72
65 65 65 64 64 65 63 63 64 62 61 58 62 64 63 61 55 54 65 66 70 69 70 71 72 72 73 74 71 65 64 65 67 69 69 70 70 70 71 71 72 71 71
63 62 62 62 62 62 61 61 60 60 61 59 58 58 59 60 60 55 51 57 62 66 68 69 70 72 72 71 72 67 63 64 66 67 68 69 69 69 70 70 70 71 70
62 61 60 61 60 59 58 59 59 59 58 58 58 58 57 54 53 53 53 54 55 59 64 66 66 69 70 70 67 60 61 62 64 65 67 68 68 68 67 68 69 67 66
59 58 58 58 58 57 57 57 57 57 57 55 55 56 57 56 56 54 53 53 52 56 58 62 65 67 66 64 66 58 59 60 61 64 64 65 65 64 64 64 64 64 66
58 57 57 57 57 57 56 57 56 57 57 56 54 54 55 55 56 55 52 50 46 50 54 54 61 62 64 65 62 57 61 58 59 61 61 62 62 62 62 63 63 64 65
56 56 56 55 56 55 55 55 56 55 55 55 53 54 54 54 55 54 53 52 47 41 45 52 52 58 60 61 61 59 59 57 58 57 58 58 59 59 59 60 61 61 61
55 54 54 54 54 54 54 54 53 54 53 53 53 52 52 53 52 52 51 51 50 47 41 50 51 53 55 58 57 57 57 54 56 56 56 56 57 57 58 58 58 59 59
53 53 52 52 52 53 53 52 52 52 50 51 51 51 50 51 50 50 50 49 47 47 42 46 49 52 50 52 54 54 55 56 57 55 55 56 55 56 56 57 57 58 59
52 51 51 51 51 51 51 50 50 50 49 49 49 49 48 50 47 47 48 46 46 47 43 39 45 47 47 49 51 51 53 55 54 54 53 54 54 55 55 56 56 56 56
50 51 50 50 49 49 48 49 50 49 49 49 48 47 46 46 44 45 45 45 46 46 43 41 40 45 46 48 46 47 48 51 53 51 52 52 54 53 53 54 55 55 54
49 49 49 49 48 48 48 48 47 47 47 48 47 46 46 45 44 42 43 43 43 42 42 40 39 40 42 44 45 43 43 47 46 51 50 50 51 51 52 53 53 52 52
48 48 47 47 47 47 48 44 44 44 45 45 45 45 45 44 43 43 44 42 40 40 39 38 37 38 39 40 39 42 40 42 43 46 45 47 49 50 50 50 51 51 52
47 46 46 46 45 46 44 42 42 42 43 43 42 44 44 43 44 43 43 43 42 38 36 34 36 36 37 38 41 38 37 35 32 44 43 42 46 44 48 51 50 50 51
46 45 46 45 44 45 43 41 41 41 42 43 43 42 43 44 42 42 42 43 41 40 41 38 36 36 36 38 37 35 35 35 35 42 41 36 43 42 46 49 48 48 49
45 44 44 44 43 43 41 40 39 41 42 43 43 43 42 41 41 42 42 36 39 40 41 41 39 38 37 39 39 38 36 36 38 40 41 33 40 39 44 41 44 47 48
43 43 43 42 41 41 40 38 39 41 41 41 42 43 41 40 42 42 35 34 36 38 41 40 39 40 39 39 39 36 32 32 31 35 39 35 36 35 38 39 43 45 44
42 42 41 42 40 40 40 39 40 40 39 40 40 40 41 42 41 40 38 37 32 34 35 36 37 36 37 37 38 37 33 29 29 29 35 32 33 34 31 41 37 39 41

GFSMA_sfc_temp_003.txt.gz
Temp
80 80 80 80 80 80 79 79 79 79 80 80 80 79 79 79 80 80 79 71 70 72 74 74 73 73 74 74 74 74 74 74 74 74 74 73 73 73 73 73 73 73 73
79 78 78 79 78 79 78 77 76 76 77 78 77 78 79 80 80 80 80 79 71 70 72 73 73 73 73 75 75 74 74 74 73 73 73 74 73 73 73 73 73 73 73
79 78 78 77 74 75 77 77 78 77 77 77 76 78 78 78 78 79 79 79 78 69 69 73 73 73 72 73 75 75 74 74 74 73 73 73 73 73 73 73 73 72 73
78 77 75 74 77 78 77 76 75 75 74 75 75 75 75 76 77 78 78 79 78 78 75 69 71 73 73 73 73 74 74 74 73 73 73 73 73 73 73 73 73 72 72
78 77 75 75 77 75 75 74 73 73 71 72 73 74 74 75 76 78 78 78 79 78 77 73 68 67 68 71 73 73 73 73 73 72 72 73 73 73 73 73 72 72 72
75 74 74 74 74 73 72 71 70 71 70 70 71 70 72 73 74 75 78 76 75 75 76 77 77 75 66 68 71 72 73 72 72 72 72 72 72 72 73 73 73 72 72
73 71 71 71 70 69 69 69 68 66 66 68 65 65 66 72 71 72 72 73 73 76 76 76 77 75 73 70 72 71 71 71 72 70 70 70 71 72 72 72 72 72 72
70 70 68 68 68 67 66 65 64 62 64 65 61 59 56 62 66 68 69 71 70 73 72 75 73 73 72 71 70 69 71 72 73 72 72 70 70 70 71 72 72 72 72
68 67 66 66 65 65 63 63 62 61 58 62 63 59 53 51 57 64 64 68 67 67 70 69 71 71 71 71 69 69 68 67 70 71 71 71 70 71 70 72 71 71 71
65 65 65 64 64 64 61 61 63 61 59 56 60 62 61 60 52 51 61 61 65 66 65 67 67 68 69 69 67 65 65 63 66 67 69 69 69 70 70 70 71 72 70
65 63 63 62 61 61 60 59 59 59 59 58 56 56 57 58 58 52 48 53 59 62 64 64 65 65 66 66 67 63 61 63 64 65 65 67 69 68 67 67 69 65 70
64 61 61 61 60 59 58 57 58 57 57 57 57 56 55 53 52 51 49 50 51 56 60 60 61 63 64 64 63 61 60 61 63 64 64 64 65 65 65 66 66 66 63
60 58 58 58 58 58 57 57 56 56 57 55 54 54 55 55 56 54 51 49 48 52 53 57 58 60 61 61 59 58 58 59 61 61 62 63 62 61 62 62 64 65 65
59 58 57 57 57 57 57 56 55 56 56 54 53 53 53 54 55 54 50 47 43 45 48 49 56 56 57 58 55 56 56 59 59 59 59 59 59 59 58 59 61 62 62
58 57 57 56 56 56 56 55 54 54 54 53 52 52 52 53 54 53 52 50 44 38 40 46 47 53 54 53 55 54 53 54 56 55 56 56 57 57 56 57 58 59 60
56 55 55 55 54 55 55 54 53 54 52 52 52 51 51 52 52 51 50 50 48 43 38 46 47 49 51 53 53 52 52 51 53 54 54 55 54 55 55 56 56 57 57
54 53 53 53 53 53 53 52 52 52 51 50 51 50 49 50 49 49 48 47 45 45 39 42 46 48 46 46 48 49 49 49 51 52 52 53 53 53 54 54 55 56 56
53 53 52 52 52 52 51 50 49 50 49 48 48 48 48 50 46 47 46 44 44 44 40 37 41 42 43 45 45 45 47 50 48 51 52 52 52 52 52 53 54 53 54
51 52 51 50 50 50 49 49 49 48 47 47 47 46 46 46 43 44 43 42 42 43 41 38 36 41 41 43 42 44 44 45 48 49 50 50 50 51 52 51 51 52 52
50 50 50 49 49 49 49 48 48 45 45 46 46 45 46 44 43 41 41 40 41 39 38 37 36 36 38 40 41 38 37 41 41 46 46 47 48 49 49 50 50 50 50
49 49 49 49 49 48 49 46 44 43 42 42 44 45 45 44 44 44 43 40 38 36 36 35 33 34 34 35 34 37 35 36 38 40 39 41 42 43 45 48 49 49 50
48 48 48 47 46 48 47 46 44 41 41 41 41 43 44 44 44 44 44 43 42 37 34 32 32 30 32 34 36 33 33 31 28 39 37 36 41 40 43 45 48 48 49
48 47 47 47 46 46 46 44 43 40 39 41 42 42 43 45 43 41 42 42 41 41 40 37 31 32 32 33 33 31 30 30 30 35 35 32 38 37 41 44 46 47 46
46 46 45 45 44 45 44 43 41 40 40 41 42 42 41 41 41 40 39 36 36 36 39 39 37 35 35 35 34 34 32 31 32 35 37 29 35 33 38 39 43 44 45
44 44 45 44 43 43 43 42 40 39 40 40 42 41 40 40 41 41 36 33 35 35 40 40 39 39 39 39 38 34 28 27 27 29 33 31 31 31 33 34 38 42 39
43 44 43 44 43 42 42 41 41 39 37 38 39 39 41 40 41 40 36 34 30 32 33 33 34 35 36 35 37 34 31 26 26 24 31 28 28 29 28 32 34 35 36

GFSMA_sfc_temp_006.txt.gz
Temp
70 69 69 69 72 72 72 71 72 72 73 74 72 73 74 70 70 70 69 69 71 73 76 77 77 76 76 75 74 73 73 74 74 73 73 73 73 73 74 73 73 73 74
68 68 71 71 71 71 72 71 71 71 71 70 70 68 67 68 69 70 71 70 71 71 73 76 76 76 76 76 76 75 73 73 74 73 73 73 73 73 73 73 73 73 73
69 72 70 69 70 67 67 66 66 65 64 66 64 66 66 66 66 66 69 70 70 69 70 74 76 76 76 76 76 75 74 74 73 73 73 73 73 73 73 73 73 73 73
69 71 65 63 64 64 63 62 61 61 60 60 62 64 62 67 68 67 70 71 70 73 71 71 74 75 75 76 76 76 75 74 73 72 72 72 72 72 73 73 73 72 72
67 64 63 62 62 61 60 60 59 58 58 60 62 63 63 61 65 69 67 68 69 69 69 70 68 69 71 75 75 74 73 73 72 72 72 71 71 71 72 72 72 72 72
64 61 61 60 60 59 58 57 56 57 55 55 62 60 60 61 62 60 62 66 66 67 67 67 67 68 68 70 73 74 75 74 73 72 71 70 70 71 70 70 71 71 72
62 59 58 58 58 56 56 57 55 53 52 53 51 54 53 57 58 61 63 62 63 64 64 65 65 66 67 67 68 70 71 72 73 73 73 72 71 71 70 69 71 70 71
60 61 56 55 55 54 54 53 52 50 51 52 48 48 44 51 55 57 57 61 57 61 62 64 64 64 64 63 63 66 67 69 70 70 70 70 70 70 70 71 70 69 70
58 57 55 54 53 52 50 50 50 49 47 50 50 46 41 41 48 52 55 54 58 57 59 60 61 61 62 61 61 62 63 64 65 67 67 68 68 68 69 69 70 68 67
56 56 55 53 52 51 49 49 53 49 48 45 47 54 48 47 44 43 48 53 53 56 55 56 58 58 59 59 61 61 61 62 63 64 65 66 66 66 66 67 67 65 66
54 54 54 52 50 49 48 48 48 47 47 46 45 45 46 45 47 43 41 45 50 52 52 55 54 56 57 56 56 58 59 59 61 62 64 64 64 65 65 65 63 64 64
51 52 53 50 50 49 48 47 47 47 46 46 46 45 44 43 44 43 42 43 44 48 51 52 51 53 53 54 56 56 55 58 59 60 60 62 62 61 61 62 62 63 63
49 49 49 48 47 48 48 48 46 45 45 44 43 44 46 46 47 46 44 42 41 45 46 49 50 51 54 52 52 53 53 55 55 56 59 60 59 58 59 59 60 61 61
48 49 48 48 48 48 48 47 45 45 46 43 42 43 45 46 47 46 44 41 38 40 43 43 48 48 50 50 51 52 50 53 53 55 55 55 55 56 56 57 57 57 58
53 48 47 47 47 47 47 46 44 44 44 43 42 41 43 46 46 45 44 44 39 33 35 41 41 47 47 48 49 49 48 50 52 52 52 53 53 53 53 54 55 55 56
47 46 46 46 46 46 46 44 43 44 44 45 46 43 44 45 45 44 44 42 41 37 32 40 41 43 45 47 47 46 46 48 49 50 51 51 51 52 53 53 53 54 54
46 45 45 45 45 44 45 43 42 44 43 43 42 43 43 44 43 42 42 41 39 38 33 37 40 42 41 40 42 43 44 44 45 49 50 49 50 50 51 52 52 53 52
45 44 45 44 44 44 44 42 42 42 42 40 41 41 41 45 41 41 40 39 37 37 35 32 37 37 38 40 40 40 43 45 44 47 47 48 48 49 49 49 50 51 51
43 43 44 43 43 43 43 42 42 42 39 40 40 39 39 40 39 39 37 37 37 39 36 34 33 37 37 38 37 39 39 39 43 44 45 46 46 46 47 48 49 49 49
42 42 42 42 42 43 43 43 42 39 39 39 39 39 39 39 39 37 38 37 39 36 35 33 32 32 34 36 34 33 32 36 35 40 42 42 44 44 45 46 46 47 48
42 41 41 41 41 43 46 42 42 39 37 37 37 38 39 41 44 43 42 39 37 35 33 31 30 30 31 31 30 32 30 32 33 35 34 35 36 37 39 42 44 45 47
40 40 40 39 38 44 47 46 45 39 37 36 35 37 39 41 41 44 43 43 42 36 33 30 30 30 30 31 31 30 29 27 25 34 31 31 35 34 37 38 43 44 45
38 37 38 38 37 37 45 46 45 39 36 35 35 36 38 41 39 37 40 41 37 38 39 35 30 29 29 30 30 28 28 28 27 31 31 28 33 31 36 39 41 42 42
36 36 36 37 36 39 45 45 44 37 35 35 36 36 36 36 37 38 38 33 33 35 35 36 34 34 33 34 34 33 30 28 29 31 32 25 30 29 34 36 39 40 40
35 34 36 36 35 37 43 44 42 36 35 35 36 37 37 37 40 41 36 32 31 32 37 38 38 38 38 38 37 33 26 25 23 26 30 26 27 28 30 31 34 39 39
36 37 37 37 39 36 41 43 42 38 34 34 35 36 38 39 41 40 35 33 29 29 32 30 31 31 33 32 36 32 28 23 23 22 28 24 25 26 24 31 31 34 34

GFSMA_sfc_temp_009.txt.gz
Temp
70 68 67 68 70 70 70 69 70 68 66 65 65 65 65 65 66 66 64 67 70 73 75 77 77 77 77 76 75 75 75 74 73 73 73 73 73 73 73 74 73 74 74
66 68 69 69 69 69 66 62 61 60 60 60 62 63 62 63 63 63 67 66 68 70 72 75 76 77 77 77 77 75 74 74 74 73 72 73 73 72 73 73 73 73 73
69 69 67 64 63 60 60 60 60 58 59 61 59 60 61 60 61 60 62 63 63 66 69 73 74 75 76 76 77 76 75 73 72 73 72 72 71 71 72 72 72 73 73
65 65 61 58 58 58 57 57 55 55 54 54 54 56 56 58 58 59 61 61 61 63 66 68 70 71 71 73 74 74 74 73 72 72 72 72 71 71 71 71 71 71 72
62 59 57 57 57 56 54 55 53 51 51 51 56 55 55 54 55 60 56 60 60 61 61 64 64 65 67 69 70 71 71 71 71 71 72 72 72 72 72 71 70 70 70
59 57 56 55 55 54 52 52 51 51 49 49 57 55 52 52 53 54 58 60 59 58 59 60 59 61 64 66 66 68 68 69 69 69 69 69 70 71 71 72 72 71 71
57 54 53 53 53 51 50 51 50 49 48 49 46 50 48 51 51 56 56 53 57 58 58 58 59 59 59 62 62 64 65 67 67 67 67 68 68 69 70 70 70 70 70
56 56 52 51 51 50 49 48 47 46 47 47 44 42 41 44 49 54 51 55 51 55 55 57 56 56 57 54 56 60 62 65 64 65 65 65 66 67 68 68 68 68 68
54 53 52 50 49 48 46 46 46 45 43 45 46 43 38 36 44 46 51 48 52 48 53 52 55 56 54 54 55 55 58 60 62 63 64 64 64 65 66 66 66 65 66
52 52 51 50 48 47 45 45 49 45 44 42 44 49 44 41 37 37 43 48 47 51 50 50 53 52 54 51 54 55 57 57 59 61 62 63 63 63 64 64 62 63 62
51 51 50 48 47 46 45 45 44 43 43 42 41 41 41 40 40 37 36 39 46 48 49 49 46 51 50 52 49 52 56 56 58 59 60 60 61 62 62 62 62 61 61
47 48 50 47 46 45 45 44 44 43 42 42 41 41 40 39 40 39 38 39 40 44 47 48 48 47 49 47 52 53 53 54 55 56 57 58 59 60 60 60 59 60 60
45 45 46 45 44 45 45 44 43 42 42 40 40 40 41 43 42 43 41 39 38 42 43 46 45 45 48 47 48 50 51 52 52 54 55 56 56 56 56 57 58 58 59
45 45 45 45 45 45 45 44 42 41 43 40 39 39 42 42 41 43 40 38 35 37 40 40 45 44 46 43 47 49 46 49 50 51 52 53 53 53 53 54 55 56 56
50 45 44 44 44 44 44 42 40 40 40 39 38 38 38 40 42 42 41 40 36 30 32 38 38 43 42 44 45 45 44 47 48 49 50 50 51 51 51 52 52 53 54
44 44 43 43 43 42 42 41 39 40 39 39 42 38 38 41 41 41 40 38 37 35 30 37 38 40 41 43 44 43 43 45 47 47 48 49 49 50 49 50 50 51 52
43 43 43 42 42 41 41 40 39 40 39 39 37 38 38 39 39 39 39 39 37 35 31 35 38 39 39 38 40 41 41 41 42 46 47 47 47 48 47 48 49 49 50
42 42 42 41 42 41 40 39 38 38 37 35 36 36 36 40 36 37 37 36 35 35 33 31 35 36 36 38 38 37 40 42 41 43 45 46 46 46 46 46 47 47 47
41 41 41 41 41 40 39 39 38 38 36 36 35 35 35 35 34 35 36 35 36 38 36 34 31 36 36 37 35 35 36 36 40 42 43 43 44 44 44 45 45 46 46
41 40 40 40 40 40 40 40 39 36 35 36 35 35 35 35 34 35 37 36 38 36 35 33 33 32 33 34 34 32 31 34 33 38 39 40 41 41 42 42 43 43 43
40 40 39 38 38 39 44 41 41 38 34 33 33 35 36 38 41 41 40 37 36 34 33 31 30 29 29 30 28 30 29 30 31 33 33 32 34 34 35 38 40 41 42
38 37 36 36 35 41 44 45 44 39 35 33 32 35 36 38 38 41 41 41 40 36 31 30 29 27 28 29 30 30 28 26 24 33 30 29 32 31 33 35 39 41 42
34 34 34 34 34 35 43 45 44 40 34 32 33 34 35 38 37 35 38 40 39 39 38 34 30 28 28 30 29 28 27 27 26 30 29 26 30 28 33 36 39 40 40
33 33 33 33 32 37 43 43 43 37 34 33 33 33 33 34 35 37 36 34 33 32 34 35 32 32 32 33 32 31 29 27 28 30 31 23 28 26 30 33 37 39 39
32 32 32 32 31 32 41 42 41 36 35 34 35 36 35 35 38 40 35 31 30 31 36 38 37 37 37 37 35 31 25 24 22 25 28 25 25 24 27 28 32 37 39
32 32 33 32 35 32 37 40 39 35 32 33 34 34 36 37 39 39 33 31 27 29 31 30 29 30 32 31 35 30 27 22 22 21 27 23 24 24 23 29 29 31 33

GFSMA_sfc_temp_012.txt.gz
Temp
66 67 66 68 68 68 67 64 59 59 59 59 60 59 59 58 58 61 59 65 68 71 72 74 74 75 76 76 76 75 75 74 73 73 73 73 73 72 72 73 73 73 73
64 68 67 66 65 64 62 57 56 55 55 55 57 57 56 56 56 57 58 58 66 67 69 71 72 72 72 73 74 74 73 73 72 72 72 72 72 71 71 71 72 72 73
68 65 64 62 59 57 57 55 54 54 53 55 53 55 55 53 54 55 57 57 57 63 66 69 69 69 69 70 72 72 71 71 70 71 71 72 71 72 72 72 72 71 71
65 62 57 55 55 54 54 53 51 51 50 49 49 51 51 52 53 54 55 55 55 57 60 65 65 66 66 68 68 69 69 68 68 69 69 69 69 70 71 71 72 72 72
60 57 54 53 53 52 51 51 50 48 47 48 51 51 49 49 50 56 51 53 53 54 55 60 61 62 63 64 66 66 66 66 67 67 67 68 69 69 70 71 71 72 72
56 54 53 52 52 50 49 49 48 47 47 45 53 52 47 48 48 52 49 54 52 52 51 54 51 55 60 62 62 63 64 64 64 66 65 66 66 67 67 68 69 70 70
54 52 51 51 50 48 47 48 46 46 45 45 44 44 45 47 46 52 48 49 49 53 50 53 52 53 52 58 59 60 61 62 63 63 63 64 64 65 66 67 67 68 69
53 53 49 48 48 47 46 45 44 44 44 43 41 39 38 41 46 51 47 49 49 50 49 53 50 51 52 48 52 57 58 59 61 61 62 62 63 64 65 66 66 66 66
52 51 49 47 46 45 44 43 43 42 40 42 43 41 36 34 41 43 46 44 49 44 49 47 50 51 49 49 48 52 55 57 58 60 61 61 61 62 64 65 64 65 65
50 50 49 47 46 45 43 43 46 42 41 39 41 46 41 40 35 34 40 46 42 47 44 44 46 47 49 47 50 52 54 55 56 58 59 59 60 61 62 63 63 64 64
48 49 48 46 45 44 43 42 42 41 41 39 39 38 38 38 37 34 34 36 43 45 46 46 43 46 46 46 44 48 53 53 55 56 57 57 58 59 60 61 62 62 62
45 46 47 45 44 43 42 42 41 41 40 39 39 38 37 36 37 35 35 36 37 41 43 45 43 46 43 43 49 51 51 52 52 53 55 56 56 57 58 59 59 59 59
43 44 44 43 42 42 42 42 40 40 39 38 37 37 38 37 38 38 37 35 35 39 40 41 41 41 45 42 44 48 49 49 50 51 53 54 54 54 55 56 57 56 56
43 43 43 42 42 42 42 41 39 38 40 37 36 36 37 37 37 37 36 34 31 34 37 36 40 39 40 40 43 48 44 47 48 49 51 51 51 51 52 53 54 55 54
47 43 42 41 41 41 41 40 38 38 37 37 36 35 35 36 36 37 37 36 32 27 29 35 35 39 38 41 43 43 42 45 47 48 48 48 49 49 50 50 50 51 51
42 42 41 40 40 40 40 38 37 38 37 36 38 35 34 35 36 37 36 36 35 32 27 35 37 39 40 42 42 42 41 44 45 46 47 47 48 48 48 48 49 49 49
41 41 40 40 39 39 39 37 37 37 37 36 35 34 34 35 35 35 35 35 34 33 29 33 37 38 37 37 39 39 40 40 39 44 45 46 46 46 46 47 47 47 48
40 40 40 39 39 39 38 36 36 36 35 34 34 33 33 38 34 34 33 33 33 34 32 29 33 34 35 37 37 35 37 40 38 42 43 44 44 45 45 45 45 46 46
39 39 39 39 39 38 37 37 36 35 35 34 33 32 32 33 32 32 32 32 34 37 35 33 31 35 35 36 32 35 35 35 38 40 42 42 42 43 43 42 43 43 44
39 38 38 38 38 37 37 37 36 35 34 35 34 33 32 32 32 32 34 35 36 33 33 32 31 31 32 33 32 30 30 32 32 37 37 38 40 41 41 42 41 41 41
38 38 37 36 36 37 41 39 38 36 33 32 32 33 34 36 40 39 38 35 35 32 31 30 29 30 28 29 28 30 28 30 30 32 31 32 33 33 34 37 38 39 39
36 36 35 34 33 39 42 44 42 37 34 32 32 33 34 37 36 40 40 40 39 35 31 30 29 27 28 28 29 28 27 24 22 32 29 29 32 30 32 33 37 39 40
34 34 33 32 31 31 42 43 43 37 33 32 31 32 33 37 36 33 36 39 38 39 36 32 28 28 27 28 28 27 26 25 24 29 28 25 30 28 31 34 37 37 38
33 32 31 31 30 34 41 41 41 34 32 31 31 31 31 32 33 36 35 33 32 30 31 33 32 32 32 32 31 30 28 26 27 28 29 22 27 25 29 30 35 37 38
31 30 30 29 28 29 39 40 38 33 32 31 32 32 33 32 37 40 33 30 30 30 35 36 36 36 36 36 34 29 24 22 21 24 28 24 24 24 26 26 30 35 37
29 30 30 29 33 29 36 39 38 34 31 31 32 32 35 36 39 38 34 31 26 27 29 29 29 30 31 31 34 30 25 21 20 20 27 23 23 24 22 27 27 29 31

GFSMA_sfc_temp_015.txt.gz
Temp
65 67 67 66 65 65 64 59 56 56 55 55 56 55 54 54 54 56 55 63 66 69 70 72 72 71 71 72 73 72 72 72 71 71 71 71 72 72 72 72 72 72 73
65 65 65 63 62 61 57 54 53 52 51 52 53 53 52 50 51 53 53 53 63 65 67 69 69 69 69 71 70 70 70 70 70 69 70 70 70 71 71 72 72 73 73
65 64 62 60 57 54 54 52 52 51 50 52 49 51 51 49 51 50 52 53 53 60 63 65 66 66 67 67 68 68 68 67 68 68 68 68 69 70 70 71 71 71 72
64 61 55 53 53 52 51 50 48 49 47 46 46 48 48 49 50 49 50 50 50 53 56 61 62 62 64 64 66 66 66 65 66 65 67 66 67 67 68 69 69 70 71
61 59 54 51 51 49 48 49 47 46 45 46 49 49 46 46 47 52 47 49 49 49 50 56 58 58 60 61 63 63 64 63 63 64 64 65 65 66 66 67 68 68 69
54 52 50 50 50 48 47 46 45 45 44 43 49 49 44 46 46 45 45 50 48 48 47 49 47 49 57 59 59 60 61 61 62 63 63 63 63 64 65 65 66 67 68
52 50 48 48 47 46 44 45 44 43 43 43 41 42 43 44 44 46 45 44 46 47 47 49 48 48 47 55 56 58 59 59 60 61 61 61 62 63 63 64 65 66 67
51 51 48 46 46 45 44 43 42 42 42 42 39 37 36 40 43 50 44 45 44 45 45 49 45 47 46 44 48 55 56 57 58 59 59 60 61 61 62 63 64 65 66
49 48 47 46 44 43 42 41 41 40 39 40 40 39 34 32 36 40 43 42 45 41 44 44 46 47 46 44 48 48 53 55 57 58 59 59 59 60 60 61 62 63 64
48 48 47 45 44 43 42 42 43 40 39 37 39 44 39 37 33 32 38 43 40 44 41 40 43 44 44 43 48 50 52 54 55 56 57 57 58 58 60 61 61 62 62
47 47 46 44 43 42 41 40 40 39 39 37 37 36 35 36 35 32 32 34 41 43 43 43 40 42 43 44 41 45 52 53 54 55 55 56 57 58 58 59 59 60 61
44 44 45 43 42 41 40 40 39 39 38 37 36 36 35 34 33 32 31 34 34 38 39 42 43 40 42 40 46 50 50 51 52 53 54 55 55 56 56 57 57 58 59
42 42 42 41 41 41 41 40 39 38 37 36 35 35 36 35 35 34 34 32 32 36 36 37 40 39 43 43 41 48 48 49 50 51 52 53 53 53 53 54 55 56 56
42 42 41 41 41 41 40 39 37 37 38 35 35 34 34 35 35 34 33 31 28 31 34 32 36 37 39 38 41 47 44 47 48 49 50 51 51 51 51 51 53 53 54
45 41 41 40 39 39 39 38 36 36 35 35 34 34 33 34 34 33 33 33 29 24 26 32 32 37 38 38 41 42 41 45 47 47 48 48 48 49 49 50 50 51 51
41 40 40 39 39 38 38 37 35 36 35 35 37 33 33 33 33 32 32 33 32 29 24 33 34 37 38 40 41 41 41 44 45 46 46 46 47 47 47 48 48 48 48
40 40 39 38 38 37 37 35 35 36 35 34 34 33 33 33 31 33 32 32 31 30 26 31 35 36 35 36 38 39 40 39 36 42 44 45 45 45 46 46 46 45 47
39 38 38 37 37 37 36 34 34 34 34 32 33 32 32 37 31 31 31 30 30 31 29 27 31 34 34 36 36 36 36 39 37 41 42 43 44 44 45 44 44 44 44
38 37 37 36 36 36 35 35 34 34 33 33 32 31 31 31 30 31 31 30 31 35 33 30 29 33 34 34 33 32 33 34 37 40 41 41 42 42 43 43 44 43 43
36 36 35 35 35 35 35 35 35 33 32 33 33 32 31 31 30 30 32 33 35 32 32 30 30 30 31 33 31 30 29 32 31 36 37 38 39 40 40 41 41 41 41
36 35 35 35 33 35 39 37 36 34 32 31 31 31 33 35 39 39 37 35 33 32 30 29 29 28 28 29 27 29 28 29 29 29 30 31 32 32 33 36 37 38 38
34 34 32 32 31 37 41 43 41 33 31 30 29 31 31 35 35 39 39 39 39 34 30 29 26 26 26 27 28 27 27 24 22 32 29 27 31 30 31 31 36 38 39
31 31 31 30 30 29 41 42 42 33 30 29 29 30 31 35 35 31 35 38 35 36 37 32 26 26 26 28 28 25 25 25 24 29 28 24 29 26 30 32 36 37 38
30 30 30 29 28 32 39 40 40 31 29 29 29 30 30 30 31 35 34 31 30 30 31 32 31 30 31 32 31 30 27 26 27 29 30 21 26 25 29 29 34 36 37
29 29 28 28 27 27 37 39 38 31 30 28 30 31 32 32 36 39 34 29 29 29 34 36 36 36 36 36 34 29 24 22 21 24 28 24 24 24 26 27 30 35 37
28 28 28 27 31 27 35 38 38 33 30 31 31 32 36 36 38 38 33 30 24 27 28 29 28 29 31 30 34 30 25 21 21 20 26 22 23 24 21 27 26 29 29

GFSMA_sfc_temp_018.txt.gz
Temp
62 64 65 64 63 63 60 54 54 53 52 53 52 52 51 49 50 52 50 62 65 68 69 69 69 69 70 70 70 70 70 69 69 70 70 70 70 71 71 72 72 73 73
65 64 63 62 60 60 58 52 51 50 49 49 51 50 48 47 48 49 50 50 62 64 65 66 67 67 68 68 68 68 68 68 68 68 68 69 69 69 70 71 71 71 71
65 63 61 59 57 53 52 50 49 49 48 50 47 48 48 47 48 47 49 49 50 58 62 63 64 64 65 65 66 67 66 66 66 66 66 67 67 67 68 69 69 70 70
63 60 57 55 53 50 49 48 47 47 45 44 44 46 45 47 47 46 47 47 48 49 53 59 60 61 62 63 64 64 64 64 64 64 64 65 66 66 66 67 67 68 69
61 59 56 50 49 47 46 47 45 44 43 44 47 46 44 44 45 49 45 46 47 46 46 54 56 56 58 60 61 62 62 62 62 62 63 64 64 64 64 65 66 66 67
57 54 49 48 48 46 45 45 44 43 42 41 47 47 42 43 44 43 44 47 45 46 45 46 44 46 55 57 58 59 60 61 60 61 62 62 62 62 63 64 64 65 66
51 48 47 46 46 45 43 44 42 41 41 41 40 42 41 42 42 43 43 43 44 45 44 45 44 44 44 54 55 56 58 59 59 60 60 60 61 62 62 63 63 64 64
49 49 46 45 45 43 42 41 40 40 40 39 38 36 35 39 42 45 41 43 41 43 43 47 43 45 43 42 46 55 55 56 58 59 59 59 60 61 61 62 62 63 63
48 47 46 44 43 42 40 40 39 39 38 39 39 38 34 31 34 39 41 40 41 40 41 42 43 44 44 42 46 46 51 54 56 57 58 59 59 60 60 61 61 62 63
46 46 45 44 42 41 40 41 42 38 38 36 37 42 37 36 32 30 36 40 38 42 39 38 42 42 42 42 45 49 51 52 55 56 57 58 58 58 59 60 61 61 62
45 45 44 43 42 41 40 39 38 37 37 36 35 35 34 34 33 30 31 32 39 41 40 40 38 39 42 42 40 43 50 52 54 54 55 56 57 58 58 59 60 60 60
42 43 44 42 41 40 39 38 38 37 36 36 35 34 33 32 31 30 28 32 32 36 39 40 39 38 38 38 44 48 49 50 51 52 54 55 55 56 57 58 58 58 58
41 41 41 40 40 40 39 38 37 36 36 34 33 33 34 33 33 32 31 30 30 33 33 35 36 37 41 39 41 46 47 49 50 51 52 53 53 53 54 55 56 56 56
40 40 40 40 40 40 39 37 36 35 36 34 33 33 33 33 33 33 30 29 26 28 33 29 35 35 36 36 41 46 42 46 47 48 50 51 51 51 51 52 52 53 53
43 40 39 39 39 38 38 36 35 34 34 33 33 32 32 33 33 32 31 30 28 23 26 29 29 36 37 38 40 41 40 44 46 47 48 48 48 48 48 49 50 50 50
40 39 38 38 38 37 36 35 34 34 34 34 35 32 32 32 32 31 30 31 30 27 23 32 32 34 36 39 40 40 39 43 44 45 46 46 45 47 47 47 48 48 49
39 38 38 37 37 36 35 33 33 35 33 33 32 32 32 32 30 30 30 30 29 29 25 30 33 35 34 34 36 37 38 39 39 40 42 44 45 45 46 46 46 46 46
37 37 37 36 35 35 34 33 33 33 32 31 31 31 30 36 30 30 30 29 29 30 28 25 30 32 33 35 35 34 36 39 35 40 42 43 44 44 44 44 43 43 44
36 36 36 35 34 34 33 33 33 33 32 31 31 30 30 29 28 29 29 29 30 32 31 29 29 32 33 34 32 33 33 34 37 39 41 41 41 42 42 42 43 43 43
35 35 34 34 34 33 34 34 34 32 31 31 31 30 30 29 29 29 30 30 34 31 31 29 30 29 30 31 31 29 28 31 31 35 37 38 39 39 40 41 40 40 41
35 34 33 33 32 33 38 35 35 32 30 29 29 30 31 33 38 38 36 33 32 31 30 29 27 27 27 27 26 28 27 29 30 32 31 31 31 32 32 36 36 38 38
33 32 31 31 30 36 40 42 40 32 30 30 28 30 30 34 33 39 38 39 38 32 28 27 25 25 26 26 28 27 26 25 22 32 30 28 31 30 31 31 36 37 38
31 29 29 29 28 28 39 41 41 33 30 28 28 29 30 34 34 31 34 37 35 37 36 31 26 26 26 28 27 26 25 25 25 29 29 24 29 27 31 33 36 37 38
28 28 28 27 26 30 38 40 40 31 29 28 28 28 28 29 30 34 34 31 30 29 31 32 30 30 30 32 31 30 27 26 28 29 30 21 27 25 29 30 35 36 37
27 26 27 26 25 26 37 38 37 30 29 29 30 29 29 32 36 39 33 29 29 29 34 36 36 36 36 35 34 29 24 22 21 24 28 24 24 24 26 27 30 35 37
27 27 28 26 29 25 34 37 37 32 27 30 31 30 35 35 38 37 33 30 25 27 28 29 28 28 30 29 33 29 26 21 21 20 26 22 23 24 21 28 27 29 30

GFSMA_sfc_temp_021.txt.gz
Temp
71 67 69 65 64 65 64 65 65 65 65 65 64 65 64 64 64 65 66 63 66 67 68 69 68 69 69 69 69 69 69 68 68 69 69 69 70 70 71 71 71 72 72
67 65 64 62 61 61 61 63 63 63 62 63 62 62 62 63 63 63 64 63 62 64 65 65 66 66 67 67 67 68 67 67 67 67 67 67 68 68 69 69 70 70 71
67 63 61 60 59 59 62 63 62 62 61 61 61 62 62 62 61 62 61 61 61 59 62 63 63 63 64 64 66 66 65 65 65 65 65 66 66 67 67 68 68 69 69
64 62 59 57 58 60 61 60 60 60 59 58 59 60 60 60 60 60 60 60 59 60 58 59 59 60 61 62 63 64 64 64 63 63 64 64 65 65 65 66 66 67 68
62 60 57 57 60 58 58 60 57 57 56 57 58 60 58 58 59 59 58 58 57 58 58 56 55 56 57 59 61 62 62 62 62 62 62 63 64 64 64 64 65 66 66
59 59 58 58 58 57 56 57 56 55 54 53 56 57 56 57 57 59 59 59 58 56 57 56 56 56 54 56 57 59 59 60 60 61 61 62 62 62 63 63 64 65 66
57 58 56 56 56 55 54 55 55 53 52 53 54 55 56 56 56 57 57 56 55 55 55 55 56 56 56 54 54 55 57 58 59 59 60 61 61 61 62 63 64 64 65
58 57 56 54 54 54 53 52 52 53 51 50 49 49 48 55 55 57 55 55 54 55 55 55 54 54 54 54 53 53 54 56 57 58 59 60 60 60 62 63 63 63 64
56 55 54 54 53 53 51 50 50 50 49 49 49 51 47 45 46 53 54 53 54 53 53 52 52 53 52 52 52 52 51 53 55 57 58 59 59 60 61 61 62 62 63
54 54 53 53 52 51 51 50 50 49 50 46 49 49 50 48 43 42 49 51 51 50 50 50 50 51 51 51 50 49 50 51 54 56 57 58 58 59 60 60 61 62 62
53 52 52 51 51 50 49 49 48 48 48 48 46 46 46 46 45 41 39 44 47 49 49 49 49 49 50 50 49 49 50 51 53 54 55 56 57 58 59 59 60 61 61
50 50 50 50 50 49 48 48 47 47 47 46 46 45 45 43 43 41 39 41 40 44 46 47 47 48 49 49 48 47 48 49 50 52 54 55 55 56 57 58 58 58 58
49 49 49 49 48 48 47 47 47 46 46 45 44 45 45 43 43 42 40 39 38 41 43 46 46 47 47 48 47 46 46 47 48 49 51 53 53 53 54 55 56 56 57
49 48 48 48 48 47 47 46 46 46 45 45 42 43 43 44 43 42 40 37 34 38 41 42 46 46 46 45 45 45 45 46 46 47 49 50 50 50 51 52 53 51 51
48 47 48 47 46 46 46 45 46 45 44 44 43 43 42 43 43 42 41 40 36 31 33 40 39 44 44 44 44 45 45 44 45 46 47 47 47 48 48 49 49 50 49
47 46 46 46 45 45 45 44 44 43 43 43 44 42 41 42 41 42 40 40 38 35 31 38 39 41 42 43 44 43 44 43 44 44 45 45 46 46 46 47 47 48 49
46 46 45 45 44 44 43 43 43 42 41 41 41 40 39 40 40 40 40 39 37 37 32 36 40 41 40 40 42 43 42 41 42 43 44 44 44 45 45 46 46 46 47
45 45 44 43 43 42 42 42 41 41 40 39 39 38 38 39 38 38 38 37 36 37 35 31 35 37 39 41 40 39 40 42 42 42 42 42 43 43 44 44 44 44 44
43 43 43 42 41 41 41 41 41 41 40 39 38 37 37 37 36 37 37 36 36 37 36 33 34 38 38 38 37 39 38 39 40 40 41 41 41 42 42 43 43 43 43
42 41 41 40 39 40 40 41 41 40 39 39 38 38 37 36 36 36 36 36 36 36 36 35 34 32 35 37 37 34 34 37 36 38 39 39 40 40 41 41 41 40 41
41 40 39 38 38 39 41 42 42 40 39 38 38 38 38 38 38 39 38 37 37 35 35 31 31 32 32 33 32 34 32 33 34 36 36 37 38 38 38 39 38 38 39
39 39 38 37 37 39 40 42 42 41 39 37 36 37 37 36 36 38 39 39 38 34 32 31 30 31 32 32 33 32 29 28 25 37 34 33 37 36 38 38 38 38 39
38 37 36 36 35 36 39 41 41 40 37 37 37 36 36 37 37 36 37 38 37 37 37 35 32 31 31 32 30 29 29 29 28 33 32 29 35 33 37 38 37 37 38
36 36 35 34 34 35 38 40 40 39 37 37 37 36 35 35 36 36 37 33 34 35 36 36 35 34 33 35 35 33 31 30 31 34 34 25 33 31 35 36 36 37 37
35 34 34 33 33 34 36 38 39 38 37 36 37 36 35 36 37 39 35 32 33 34 37 37 37 37 36 36 35 32 28 25 24 28 33 29 30 29 31 32 35 37 38
34 34 34 33 33 33 34 37 38 37 35 35 37 37 36 36 38 38 35 34 30 31 31 32 33 33 33 33 34 32 28 23 23 23 32 26 27 27 24 33 34 34 35

GFSMA_sfc_temp_024.txt.gz
Temp
79 78 77 76 70 69 74 76 76 76 74 74 74 73 73 74 74 75 74 63 66 67 67 68 67 68 68 68 68 68 68 68 67 67 67 68 68 69 69 70 71 71 72
76 71 69 67 65 67 69 75 74 73 73 73 71 72 71 73 73 72 74 67 62 64 65 65 65 65 66 66 67 67 67 66 66 66 66 66 67 67 68 68 69 69 70
70 68 66 64 64 66 71 73 72 73 72 71 70 70 70 71 71 71 71 70 67 60 61 62 62 62 63 64 65 65 65 65 65 65 65 65 65 66 67 67 67 67 68
69 66 63 62 64 67 71 70 70 70 68 68 69 70 70 69 69 69 69 69 67 68 62 58 58 59 60 61 62 63 64 63 63 63 64 64 64 65 66 65 66 66 67
66 64 62 63 69 69 69 69 67 67 65 65 66 68 68 67 67 67 67 66 64 65 65 60 57 58 57 58 60 61 62 62 61 62 62 63 63 64 64 64 64 65 65
65 62 65 69 69 67 66 66 65 64 62 62 64 65 66 67 66 66 66 66 65 62 63 61 62 63 59 58 57 58 59 59 60 60 60 61 62 63 63 63 63 64 65
61 63 65 67 67 66 64 64 63 61 60 61 62 65 65 65 64 65 65 65 62 62 62 62 62 62 62 58 58 56 56 58 58 59 59 60 61 62 62 63 63 64 65
61 64 67 66 65 63 62 61 61 60 59 59 57 58 58 62 64 63 64 63 63 63 62 61 60 59 59 59 57 54 54 55 56 57 58 59 60 61 61 62 62 63 64
64 63 65 65 63 63 60 59 59 58 58 58 57 58 55 54 54 62 61 61 61 60 60 58 58 58 57 57 56 55 53 52 54 56 57 58 59 60 61 61 62 63 63
60 64 64 63 62 61 59 58 59 58 59 55 58 57 57 55 50 50 58 58 59 57 57 57 57 56 56 56 54 52 51 51 53 54 56 57 58 59 60 60 61 62 62
60 62 62 61 60 60 58 57 56 56 57 57 55 54 54 54 54 48 46 52 56 57 56 55 55 55 56 55 54 52 50 50 51 52 54 55 56 57 58 59 60 60 61
60 60 60 60 59 58 57 56 55 54 56 55 55 53 52 50 50 49 47 48 48 52 55 54 53 54 54 53 52 50 49 49 50 51 52 53 54 55 56 57 58 58 57
58 58 59 58 58 56 55 55 55 54 54 53 52 53 52 51 51 49 47 45 45 49 50 52 54 53 53 52 51 49 47 47 48 50 51 52 52 52 53 54 55 55 55
60 58 58 58 57 56 55 55 55 55 53 53 49 50 50 51 50 49 46 43 40 44 48 49 53 52 51 51 49 47 48 47 48 48 49 50 50 50 50 51 51 50 51
58 57 57 56 55 55 54 54 55 53 53 52 50 49 49 49 49 49 47 46 41 36 39 46 47 51 50 49 48 48 48 47 47 47 47 47 47 47 48 49 48 49 48
57 56 55 55 54 53 53 53 53 52 51 52 50 48 48 48 48 48 46 46 44 40 37 44 45 47 48 48 47 47 47 46 46 46 46 46 46 46 46 47 47 48 48
56 55 54 54 53 52 52 52 51 50 48 48 48 46 45 46 45 46 45 44 43 42 38 41 44 46 44 44 46 47 46 44 46 46 45 45 44 44 45 45 46 46 46
55 54 53 52 51 50 51 50 49 48 47 46 46 45 44 45 43 44 44 42 41 42 39 37 40 41 42 45 44 42 45 46 45 45 44 44 44 44 44 44 44 45 45
52 52 51 50 49 48 49 49 48 47 47 46 45 44 43 43 41 42 42 41 41 42 40 38 37 42 43 41 41 43 42 43 45 43 44 43 43 43 43 44 44 44 44
51 50 50 48 47 47 47 47 47 47 46 46 45 43 43 42 41 40 41 41 41 39 39 38 38 37 37 41 41 39 38 40 40 42 42 42 43 43 43 43 43 42 42
49 48 47 46 46 46 47 45 46 46 45 45 44 44 43 42 40 40 40 39 39 37 36 34 34 34 36 38 37 38 36 38 38 39 40 41 42 42 42 42 42 41 41
46 47 45 44 43 45 40 42 43 44 45 43 42 43 43 42 41 40 40 40 39 34 32 33 33 33 35 37 38 36 32 31 29 40 38 36 40 39 41 42 41 41 41
46 45 44 44 44 44 39 41 41 43 43 42 42 41 41 42 41 40 39 39 39 39 39 37 34 35 35 36 33 31 32 32 32 36 35 32 38 37 41 42 40 40 40
45 45 43 43 43 43 38 39 40 43 43 42 42 41 40 40 40 39 38 35 36 38 40 40 38 37 37 37 36 35 33 32 34 36 37 28 36 35 39 40 39 40 40
43 43 43 42 41 42 38 38 39 42 42 41 42 42 41 39 38 39 36 32 36 38 41 39 39 38 39 38 37 33 30 28 27 31 35 32 33 32 34 35 39 41 41
42 43 42 42 38 40 38 38 39 41 40 40 41 41 40 39 39 38 36 36 34 35 35 34 37 38 38 37 37 35 32 26 26 25 33 29 29 29 26 35 37 38 40

GFSMA_sfc_temp_027.txt.gz
Temp
80 81 79 78 75 74 76 77 77 76 75 75 75 74 74 74 74 73 69 63 65 67 67 67 67 67 67 67 68 68 68 67 67 67 67 67 67 67 68 69 69 70 70
81 78 77 74 70 70 73 75 75 74 74 73 72 73 72 73 72 71 71 63 63 64 65 65 65 65 65 66 66 66 66 66 66 66 66 66 66 66 67 68 68 68 69
77 75 71 67 66 70 74 74 74 73 71 71 71 71 71 71 70 70 69 68 62 60 61 62 62 62 63 64 65 65 65 65 65 64 65 65 65 65 66 67 67 67 67
75 72 69 65 67 68 72 71 70 70 68 68 68 69 69 69 69 68 68 67 66 67 60 59 59 60 60 61 62 63 64 63 64 63 63 63 64 64 65 66 66 66 66
73 71 67 65 69 71 70 70 68 67 66 64 65 67 67 66 67 68 67 65 64 64 63 60 59 60 60 61 61 61 61 61 61 62 61 62 62 63 64 65 65 65 65
67 65 65 69 71 69 68 67 66 65 63 62 65 65 65 65 66 65 66 66 66 63 62 61 60 62 62 61 60 60 59 59 60 60 60 61 61 62 63 63 64 64 65
67 66 65 68 70 68 67 67 65 62 60 61 62 62 64 64 64 64 65 64 65 62 62 62 61 60 60 60 60 58 58 58 58 58 59 59 60 61 62 63 63 64 64
67 66 67 68 68 65 64 64 63 60 59 60 57 58 56 60 63 63 64 63 62 62 61 61 59 58 57 57 56 57 57 56 56 57 58 59 59 60 61 61 62 63 64
66 64 66 67 65 64 61 61 60 59 57 57 58 57 53 52 54 61 60 61 61 60 59 58 58 58 57 56 56 55 55 54 54 56 57 57 58 59 60 61 62 62 63
63 61 62 66 64 63 60 59 60 59 59 55 57 58 57 55 49 48 58 59 60 57 58 57 57 56 56 55 55 55 54 53 53 55 55 56 57 58 59 60 60 61 62
62 60 62 64 62 62 60 59 58 58 57 57 54 53 55 54 54 48 45 51 56 57 57 57 55 55 55 54 52 53 54 52 53 53 54 55 56 57 58 58 59 59 59
58 61 62 62 61 59 58 57 57 56 56 55 55 54 52 50 50 49 47 47 47 51 54 55 54 53 54 53 53 53 52 51 51 52 53 54 55 55 56 56 56 56 57
55 57 61 60 59 58 57 57 56 55 55 53 52 52 53 52 52 50 47 45 44 48 49 53 54 54 55 52 51 51 50 50 50 51 52 53 53 53 53 53 54 54 54
57 60 60 60 58 57 57 56 55 55 54 53 51 51 50 51 51 50 46 43 39 42 46 47 53 53 52 51 50 51 48 49 49 50 51 51 51 50 50 51 51 51 52
61 60 59 58 57 57 56 56 55 54 53 52 51 50 49 50 50 49 47 45 40 35 37 44 45 51 50 49 49 48 47 48 49 49 49 49 48 49 49 49 49 49 49
60 58 57 57 56 56 55 54 53 53 52 52 51 49 48 49 48 47 46 45 44 39 34 42 44 46 47 48 48 47 47 48 48 48 48 47 48 47 47 47 47 48 48
58 57 56 56 55 54 54 53 52 52 50 50 50 48 47 47 46 45 45 44 42 41 36 39 43 45 43 43 45 46 45 44 45 47 47 47 47 46 46 47 47 47 47
56 56 56 55 54 53 53 52 51 51 49 48 48 46 45 47 44 44 43 42 41 41 38 35 40 40 40 42 43 41 43 46 44 46 47 46 46 46 46 46 46 46 46
54 55 54 52 52 51 50 50 50 49 49 48 47 45 44 44 42 42 42 40 40 42 40 37 36 40 40 41 39 40 41 42 44 45 45 45 45 45 45 45 46 46 46
53 52 52 51 50 49 48 48 48 47 47 48 47 46 44 43 41 40 39 39 40 38 38 36 34 34 35 38 38 37 36 39 38 42 42 43 44 44 44 45 44 44 44
51 51 49 48 48 48 48 45 46 46 46 46 46 45 45 44 43 42 40 38 38 36 34 32 31 32 33 34 33 36 34 35 35 37 36 37 38 38 39 42 42 42 43
48 48 47 46 44 47 41 42 43 43 44 44 43 43 44 43 43 43 42 42 40 35 32 31 31 31 32 34 35 33 30 29 27 37 34 33 36 35 37 38 42 43 43
47 46 46 45 45 45 40 41 41 41 42 43 42 42 41 43 42 40 41 41 39 40 40 36 33 33 33 34 31 29 30 30 29 33 32 28 34 33 37 39 41 42 42
46 46 44 44 44 44 39 40 40 40 42 42 43 42 41 40 40 40 38 35 35 36 37 39 37 36 35 36 34 32 32 31 31 33 35 26 32 30 34 36 40 40 41
44 44 44 43 43 43 39 39 39 40 41 41 42 42 41 40 41 41 37 32 34 35 40 41 40 40 40 41 40 35 28 26 25 28 32 29 29 29 30 31 34 40 41
43 43 42 43 43 40 42 40 39 39 38 39 40 40 42 41 41 41 37 34 31 33 33 33 35 36 38 37 39 36 31 26 25 24 30 27 26 27 23 31 31 33 34

GFSMA_sfc_temp_030.txt.gz
Temp
68 69 70 70 65 65 64 64 64 64 63 63 63 62 61 60 60 58 55 64 66 67 67 67 67 67 67 67 67 67 67 67 67 67 66 67 67 67 67 68 69 69 69
69 68 66 64 62 61 63 63 62 61 60 60 61 61 59 58 59 59 55 56 64 64 65 65 65 65 66 66 66 66 66 66 66 66 65 66 66 66 66 67 68 68 68
68 66 62 60 59 61 63 63 62 60 58 60 57 59 59 57 58 57 57 55 57 62 63 63 63 63 63 64 65 65 65 65 64 65 64 64 65 65 65 66 66 67 67
66 62 60 57 59 64 62 59 57 56 55 55 54 55 56 57 57 57 58 56 54 56 59 61 61 62 62 64 64 64 63 63 62 62 63 63 63 63 64 65 65 66 66
66 61 58 57 60 59 58 59 55 54 52 52 55 54 54 54 55 60 55 56 55 55 54 59 60 62 62 63 63 63 63 61 61 61 61 62 62 62 63 64 64 65 65
63 59 57 59 61 58 56 55 54 53 51 50 58 57 53 54 54 53 53 58 55 54 53 53 51 52 61 62 62 62 61 60 60 60 60 60 61 61 62 63 63 64 65
60 58 58 61 60 57 55 55 53 52 49 49 49 50 51 53 52 52 53 53 53 54 52 52 49 49 50 59 59 59 60 59 59 58 59 59 60 60 61 62 63 63 64
60 60 60 59 57 54 54 53 52 50 49 48 46 45 44 48 52 53 51 53 51 52 52 53 50 50 48 46 50 58 58 58 57 57 58 58 59 59 60 61 62 62 63
59 60 59 59 56 53 50 50 50 50 46 47 48 46 42 40 42 48 50 49 50 48 48 50 51 50 48 46 50 50 56 56 56 57 57 57 58 59 59 60 61 62 62
57 58 59 59 55 54 51 50 52 49 48 45 46 52 46 44 39 38 45 46 48 49 47 46 47 48 48 46 50 53 55 55 56 56 57 57 57 58 59 60 60 61 61
56 59 60 59 57 54 50 50 49 48 47 46 45 44 44 43 43 39 35 39 44 46 46 46 45 45 47 47 44 48 54 55 55 55 56 56 57 58 59 59 58 58 58
54 58 59 57 56 53 49 48 47 47 46 46 45 44 43 41 40 38 35 36 37 41 43 44 45 44 45 44 49 54 53 53 54 54 55 55 56 56 57 57 57 56 56
54 56 54 52 50 49 49 48 47 46 46 44 44 43 43 43 43 41 38 35 34 37 39 42 42 43 48 43 43 51 51 52 52 52 54 54 54 54 54 54 55 55 55
52 56 56 55 52 49 49 48 46 46 45 43 43 42 42 42 42 41 38 34 33 32 37 36 42 42 41 41 46 51 42 49 50 51 52 53 52 51 51 52 52 52 53
56 56 54 53 51 48 48 47 45 45 44 43 42 42 41 41 41 40 39 37 32 29 32 33 34 41 40 42 42 44 42 47 49 50 50 50 50 50 50 50 50 51 50
57 55 53 52 47 47 47 46 45 45 44 42 43 41 40 40 39 38 37 37 35 31 30 35 37 36 39 44 44 44 43 47 47 48 48 48 48 48 49 49 49 49 49
55 53 50 50 47 46 46 45 45 45 43 42 42 41 40 40 37 36 36 35 34 32 31 35 37 38 34 35 40 40 41 40 41 46 47 48 48 48 48 48 48 48 48
54 50 52 50 47 46 46 45 45 44 43 42 41 39 39 44 36 36 34 33 33 33 32 31 35 35 34 35 37 37 40 42 41 45 46 47 47 47 47 47 47 47 47
52 52 51 49 45 45 45 45 45 43 42 42 40 39 38 37 34 33 33 32 32 37 33 32 31 34 35 35 34 36 36 37 41 44 45 45 45 45 45 46 46 46 46
50 49 48 47 44 44 46 45 44 42 42 42 41 39 38 37 35 33 33 32 34 31 32 31 30 30 31 33 34 32 32 34 34 39 40 41 42 43 43 44 44 43 43
48 47 46 44 43 45 46 41 41 40 39 38 38 39 39 40 44 42 39 32 32 31 29 27 29 31 30 30 30 32 30 31 32 33 33 33 35 35 36 39 40 41 42
46 45 43 42 41 46 43 43 41 39 38 36 35 36 37 41 40 44 43 43 41 33 30 29 29 29 29 30 31 30 28 27 25 35 28 31 33 32 34 35 40 42 42
43 42 41 41 41 39 42 41 42 37 35 34 34 35 36 41 39 35 39 41 40 41 40 35 30 29 30 32 28 27 28 28 28 31 30 27 32 30 34 36 39 40 41
41 39 40 41 41 42 42 40 41 35 33 34 35 34 33 33 34 37 34 28 30 30 33 35 34 33 33 34 35 32 31 30 30 31 31 24 30 29 32 33 38 39 40
39 41 41 40 39 37 40 40 38 33 33 31 35 34 35 33 39 42 35 28 30 31 38 39 39 39 40 40 39 34 28 26 25 27 31 28 27 27 28 29 32 37 40
39 40 40 38 40 34 42 41 38 33 29 30 32 33 39 38 41 41 36 33 29 29 30 30 32 32 34 32 37 32 29 24 24 23 28 25 25 25 22 28 27 30 30

GFSMA_sfc_temp_033.txt.gz
Temp
65 64 63 63 62 61 61 60 60 60 60 59 59 59 57 56 54 54 54 64 67 67 68 68 67 67 67 67 67 67 67 67 67 66 66 66 66 66 67 67 68 68 68
65 64 63 62 60 61 60 60 59 58 57 57 57 57 55 55 53 52 53 56 65 65 66 66 66 66 66 66 66 66 66 65 65 65 65 65 65 65 65 66 66 67 68
65 64 61 59 58 60 61 59 58 57 55 56 54 55 55 54 54 52 52 52 56 63 64 64 64 64 64 65 65 65 65 64 63 63 64 64 64 64 64 65 66 66 67
66 62 59 57 58 58 57 57 55 53 51 51 51 52 52 54 54 53 52 51 51 54 59 62 63 63 63 64 65 64 64 63 62 62 62 62 63 63 63 64 64 65 65
64 62 58 56 58 57 56 57 52 51 49 50 52 51 51 52 53 57 52 52 51 50 50 60 61 60 62 63 63 64 63 62 61 61 61 61 62 62 62 63 64 64 65
62 59 56 57 57 55 54 53 51 49 48 48 55 54 50 51 51 51 52 55 52 52 50 51 48 50 60 61 61 61 62 61 60 60 60 60 60 61 61 62 63 63 64
61 59 57 57 56 55 53 53 50 49 47 46 47 48 48 49 50 50 50 50 51 52 51 48 47 47 48 58 58 59 60 60 60 59 59 59 59 60 61 61 62 63 63
60 59 58 57 55 53 52 51 51 47 46 45 45 43 43 47 48 50 48 51 49 49 50 50 48 48 46 45 48 58 58 58 59 59 59 59 59 60 60 61 62 62 63
59 60 58 57 54 52 50 49 49 49 45 45 45 46 41 41 40 45 46 46 47 45 45 46 48 48 47 45 48 49 55 57 58 58 59 59 59 59 60 61 61 62 62
60 58 57 56 54 50 49 48 49 47 47 44 45 49 44 43 39 39 42 44 44 46 43 43 44 45 46 44 49 52 55 56 57 58 58 58 58 59 60 60 61 61 60
58 58 57 56 55 53 49 49 50 47 46 45 44 43 42 41 40 37 35 38 41 43 44 42 42 42 44 44 42 46 54 56 57 57 57 58 58 58 59 60 60 59 58
55 58 58 58 56 54 52 50 49 48 45 44 44 43 43 41 38 37 34 34 35 38 40 42 41 40 41 41 47 52 53 54 54 55 56 56 56 57 58 58 58 57 57
55 55 56 55 54 53 50 50 47 45 44 43 43 42 42 41 41 39 36 34 33 35 37 38 39 39 44 39 41 49 50 51 52 53 54 55 55 55 55 55 55 56 55
56 55 54 53 52 52 49 47 44 43 43 41 41 41 40 41 41 39 37 34 29 30 33 34 37 37 38 37 44 49 40 48 49 50 51 52 52 52 52 52 53 53 53
55 54 54 52 52 50 50 47 43 43 42 41 40 40 40 40 39 38 37 35 31 27 29 30 32 36 37 37 41 43 38 45 48 49 49 49 49 49 50 50 51 51 51
56 54 52 52 51 50 46 46 42 42 42 40 41 40 39 38 38 36 36 35 33 29 26 31 33 33 35 41 41 41 41 45 45 47 47 47 48 48 49 49 50 50 50
54 52 52 50 50 49 48 43 42 42 42 41 40 40 39 38 36 35 34 33 32 30 28 31 32 34 32 33 36 36 38 39 39 45 46 46 47 48 48 48 48 49 49
53 52 50 50 49 47 45 42 43 42 41 40 40 40 38 42 36 34 33 32 31 30 28 28 31 31 31 32 33 34 37 40 39 42 44 46 46 46 46 46 46 47 47
51 50 49 47 47 45 45 43 42 41 41 42 42 39 38 36 34 32 32 30 30 35 30 28 29 32 32 33 32 33 33 35 39 42 43 43 44 44 44 45 45 45 45
50 49 48 47 46 46 45 45 43 42 42 42 41 39 38 36 34 32 32 31 32 29 28 28 29 28 30 33 32 29 30 33 33 38 39 40 41 42 43 43 43 42 42
47 45 43 44 45 45 45 41 41 40 39 39 39 39 38 39 43 41 38 31 30 28 26 25 26 27 30 29 28 30 29 31 31 33 32 33 33 33 35 38 39 40 40
42 42 41 41 41 44 42 42 41 39 38 36 35 35 36 39 39 43 43 43 41 29 24 22 27 28 28 28 30 29 28 26 25 34 27 31 33 31 33 33 38 40 41
37 37 37 38 36 38 44 43 42 38 36 34 32 33 34 39 38 33 37 41 40 42 41 34 29 28 27 30 28 26 27 27 28 31 30 27 31 29 32 35 39 39 40
35 36 37 39 40 41 43 42 41 34 32 32 32 32 31 31 32 36 33 29 31 30 31 33 31 31 31 33 34 32 31 29 30 31 31 24 30 29 32 32 37 38 39
36 38 41 39 37 37 41 41 36 32 30 30 33 32 33 31 38 41 35 28 28 29 37 39 39 39 39 39 38 33 26 24 23 26 30 27 27 26 28 28 31 36 38
39 40 39 36 39 33 42 42 37 31 28 30 29 31 37 37 40 41 35 31 29 28 29 29 30 31 33 31 36 31 26 22 22 23 27 23 24 25 22 24 26 27 30

GFSMA_sfc_temp_036.txt.gz
Temp
63 63 61 61 60 60 59 58 58 58 58 57 56 56 54 52 51 53 54 65 67 68 68 68 68 68 67 67 67 67 66 66 66 66 66 66 65 66 66 67 67 67 68
64 62 61 61 59 59 58 58 57 56 55 55 55 54 52 51 50 51 52 57 65 66 66 66 66 66 66 66 66 66 65 65 64 64 64 65 64 65 65 65 66 66 67
63 62 61 58 58 58 58 57 56 54 54 54 52 53 53 50 50 50 51 52 56 63 65 65 65 65 65 66 66 65 65 64 63 63 63 63 63 63 64 64 65 65 66
64 61 60 59 57 57 56 55 54 52 50 50 49 50 51 52 50 50 51 50 50 53 60 63 63 63 64 64 65 65 64 63 62 62 62 62 62 62 63 63 64 64 65
63 62 60 57 56 55 54 55 51 51 48 48 51 49 49 50 50 53 49 50 49 49 49 60 61 61 62 63 63 63 63 63 62 61 61 61 61 61 62 62 63 63 64
63 61 57 57 56 54 53 52 51 48 47 47 54 52 48 48 48 48 49 52 49 50 48 49 47 50 60 61 61 61 61 62 61 60 60 60 60 61 61 62 62 63 64
62 60 58 57 55 56 52 52 49 48 46 45 47 46 47 47 48 48 48 48 49 49 48 47 46 45 47 58 58 59 60 60 60 60 60 59 60 61 61 61 62 63 63
60 59 58 57 56 52 51 50 50 46 45 44 44 43 43 46 47 47 46 48 46 47 47 48 46 46 45 43 47 58 58 59 59 60 60 60 60 60 61 61 62 62 63
60 59 58 58 55 54 52 49 49 48 44 44 44 45 40 42 41 44 45 45 45 43 43 44 46 45 44 43 47 48 55 57 58 59 60 60 60 60 61 61 62 62 63
58 58 58 56 55 53 51 49 49 47 46 44 43 47 43 43 40 40 43 43 44 45 43 42 42 43 43 41 46 49 54 56 58 59 59 59 59 60 60 60 61 62 62
55 57 57 56 56 54 54 53 48 46 46 47 44 42 41 40 39 38 37 38 41 42 42 42 41 39 41 40 40 45 53 55 56 57 58 58 59 59 59 59 60 60 61
51 54 56 55 57 55 53 52 50 50 48 46 46 42 41 40 38 37 34 34 35 39 40 41 40 38 38 38 46 50 51 52 53 54 55 56 57 57 57 58 58 58 58
50 52 53 53 54 53 52 51 50 49 48 47 45 41 41 40 40 38 36 34 33 34 36 37 38 37 43 37 38 48 49 50 51 52 53 54 54 54 54 55 56 56 56
53 52 52 52 52 52 51 50 48 46 47 44 42 40 39 39 39 38 37 34 30 30 32 34 36 35 36 36 42 47 39 47 48 49 51 51 51 51 51 52 53 53 54
52 52 51 50 52 51 51 50 47 45 46 43 40 39 39 38 38 37 36 35 32 27 27 30 31 34 35 35 38 40 37 43 47 47 48 48 48 49 50 50 51 52 51
52 52 52 52 51 50 49 48 46 45 45 42 39 38 38 37 36 35 35 34 32 30 26 29 30 31 34 39 38 39 37 43 43 45 46 46 47 47 48 49 49 50 50
53 53 52 51 50 49 48 46 44 44 43 42 38 38 38 38 36 36 34 33 31 29 26 29 30 32 30 31 34 34 35 36 36 43 44 45 46 46 47 47 48 48 49
53 52 51 49 47 44 42 40 41 44 43 40 38 38 38 43 37 36 34 32 30 30 27 27 28 28 28 31 30 30 35 38 36 40 43 44 45 45 45 46 46 47 47
49 50 48 45 43 41 41 43 43 43 41 40 40 40 41 39 37 35 32 31 30 34 29 27 28 28 28 29 30 31 31 32 36 40 42 43 43 44 44 44 45 46 45
48 47 46 44 43 43 43 44 43 42 41 41 40 39 39 38 36 35 34 32 33 30 28 27 27 25 24 29 29 28 29 32 32 36 38 40 41 42 43 43 43 42 42
45 44 43 42 40 40 42 40 40 38 37 36 38 39 39 39 41 41 37 32 31 29 28 23 25 22 25 28 28 29 28 29 31 32 32 32 31 31 33 38 38 39 40
41 40 39 39 38 41 41 40 38 36 38 37 36 36 35 38 38 43 44 44 41 28 21 20 20 26 27 28 29 28 27 25 24 32 26 31 33 31 32 33 37 39 41
37 36 35 35 35 37 39 40 41 38 36 33 32 32 33 37 35 31 36 41 40 41 41 36 30 28 27 28 28 25 26 26 27 30 29 26 31 29 32 34 38 39 40
36 35 35 35 33 37 43 43 40 34 32 30 30 29 29 29 30 34 32 28 30 31 32 32 29 30 30 32 31 30 30 28 29 30 30 23 29 27 31 32 37 38 39
35 33 35 36 36 37 42 42 36 30 30 29 31 30 31 30 37 40 33 28 28 29 36 39 40 40 40 40 38 32 25 24 22 25 29 26 25 25 27 28 31 36 38
35 37 38 38 39 33 42 42 37 31 28 30 29 30 35 35 39 40 34 30 27 28 29 29 28 30 33 30 36 30 25 22 21 21 25 20 24 24 22 23 27 26 29

GFSMA_sfc_temp_039.txt.gz
Temp
62 61 61 61 60 58 58 57 57 57 56 56 55 54 52 51 51 53 54 65 68 69 69 68 68 68 68 67 67 66 66 66 65 65 65 66 65 65 66 66 66 67 67
62 62 60 60 59 58 57 56 56 55 54 54 53 52 50 49 50 51 52 57 66 67 67 67 67 66 67 67 66 66 65 64 64 64 64 64 64 64 65 65 65 66 66
61 61 60 59 58 57 57 55 54 53 52 53 50 51 50 48 49 49 51 52 56 64 66 66 66 65 65 66 66 66 65 63 63 63 63 63 63 63 64 64 65 65 65
62 60 59 57 56 56 55 54 52 51 50 50 48 49 49 49 48 48 50 49 50 53 61 64 64 64 64 64 65 65 64 63 63 62 62 62 62 62 62 63 63 64 64
62 60 59 57 56 55 54 54 50 51 49 48 49 48 47 47 48 51 48 48 49 49 48 60 61 61 62 63 63 63 63 63 62 61 61 61 61 61 62 62 63 63 64
62 61 57 56 57 53 52 52 50 47 48 47 53 50 46 46 46 46 47 50 48 48 47 48 47 49 59 61 61 62 62 62 62 61 61 61 60 61 62 62 63 63 64
61 60 59 57 56 56 55 52 49 48 46 44 46 45 45 46 46 46 46 46 48 48 46 46 44 44 45 56 59 59 60 61 61 61 61 61 61 61 62 62 62 63 63
60 59 58 58 57 52 51 50 50 46 45 43 44 42 43 45 45 46 44 47 46 46 46 47 45 45 44 42 46 56 57 59 60 60 61 61 61 61 62 62 62 63 63
60 61 59 60 58 57 53 52 49 49 45 42 43 45 39 41 40 43 43 43 43 42 42 44 44 45 44 42 45 46 52 55 58 60 60 61 61 61 61 62 62 62 63
59 60 59 58 57 56 53 52 50 47 46 43 42 46 41 42 41 40 41 41 41 43 41 41 41 42 41 40 45 49 54 55 57 59 60 60 60 60 61 61 61 62 62
57 57 57 56 55 53 53 52 50 50 47 46 43 41 41 42 39 38 38 38 40 40 40 40 39 38 39 39 40 46 52 53 55 56 57 58 58 59 59 60 60 60 60
54 55 56 54 54 53 52 52 54 52 50 49 46 43 45 43 41 39 35 34 35 37 38 38 38 37 37 37 45 48 50 51 52 54 55 56 56 57 57 58 58 58 59
51 52 53 52 52 52 52 51 50 51 49 48 45 45 44 44 40 39 36 33 33 34 35 37 37 36 41 35 37 47 47 48 49 51 53 54 54 54 54 54 55 56 57
56 54 53 52 51 51 50 49 48 46 48 46 45 43 43 42 42 38 36 34 30 30 31 35 36 35 34 35 41 46 37 45 47 48 50 50 50 50 51 52 53 54 54
53 52 52 50 50 50 51 50 48 46 46 45 43 42 42 41 41 39 36 35 33 28 28 31 33 34 34 34 37 37 35 42 45 46 47 47 47 48 49 50 50 51 52
51 50 50 50 49 50 50 48 46 46 45 44 43 42 41 40 39 37 34 34 33 31 27 30 31 31 33 38 37 37 36 42 43 44 45 45 46 47 48 48 49 50 50
49 51 51 50 50 49 49 47 45 44 42 41 40 40 41 40 38 36 33 33 32 30 27 29 30 31 29 30 33 32 34 33 34 42 43 44 45 46 47 47 48 48 49
50 50 50 50 48 46 45 43 42 40 39 38 38 37 40 42 37 37 37 36 35 31 28 26 27 28 29 30 30 29 34 37 35 39 42 43 44 45 45 46 46 47 47
50 50 48 46 44 43 42 42 41 40 40 40 40 41 40 39 38 37 36 34 32 34 30 28 28 28 28 28 27 28 29 30 34 39 41 42 42 43 44 44 45 45 45
47 46 45 43 43 43 42 41 40 40 40 39 39 38 37 36 36 36 35 35 35 32 28 27 28 26 24 27 26 27 28 30 30 35 37 39 40 41 42 43 43 42 42
44 44 42 41 41 41 41 38 38 36 35 35 34 34 36 38 40 41 38 34 30 29 28 24 24 22 22 25 27 29 27 29 29 30 30 31 30 31 32 37 38 40 40
42 41 40 39 39 40 41 41 38 36 33 32 32 35 36 38 37 41 42 42 40 29 23 19 18 24 25 25 26 27 26 24 24 28 26 30 31 30 32 32 37 39 40
38 36 36 37 36 39 41 39 36 33 32 34 34 33 33 37 34 32 36 40 38 40 40 33 28 27 27 29 28 25 26 26 25 29 29 26 30 28 31 33 38 39 40
36 35 35 35 34 36 38 37 36 34 34 33 32 31 29 30 31 34 32 29 30 30 31 32 29 30 29 30 31 30 30 28 28 29 29 22 28 27 30 31 36 38 39
35 34 34 33 33 36 40 41 36 32 31 30 31 30 31 30 36 39 32 27 28 29 36 39 39 39 39 39 38 32 25 23 22 25 29 25 24 24 27 28 31 36 38
32 33 34 36 37 34 42 42 36 31 28 30 29 30 35 34 38 39 32 29 25 26 28 27 27 29 32 29 35 29 24 20 21 21 24 17 22 24 21 23 26 26 29

GFSMA_sfc_temp_042.txt.gz
Temp
62 62 61 61 61 59 58 56 56 56 55 55 54 53 51 51 52 53 55 66 68 69 69 69 69 68 68 68 67 66 66 66 65 65 65 65 65 65 66 66 66 67 67
62 62 60 60 59 58 57 56 55 54 53 53 52 51 49 49 50 51 52 57 66 68 68 68 67 67 68 67 67 66 65 64 64 64 64 64 64 64 65 65 65 66 66
62 62 61 59 59 57 56 55 53 52 51 52 50 50 49 47 49 49 50 52 56 64 66 67 66 66 66 67 66 66 65 64 63 63 63 63 63 63 64 64 64 65 65
61 61 60 59 58 55 55 53 52 50 49 50 49 48 48 48 47 48 49 49 49 52 61 64 65 65 65 65 65 65 64 64 63 62 62 62 62 62 63 63 64 64 64
62 61 60 59 56 54 53 53 50 50 48 48 49 46 46 46 47 50 47 48 48 48 48 61 62 62 62 63 64 64 64 63 63 62 62 62 61 62 62 63 63 64 64
62 61 59 57 57 54 51 51 50 47 48 48 52 48 45 45 45 45 46 49 47 47 46 47 46 48 58 61 62 62 62 62 62 62 62 62 61 61 62 63 63 64 64
61 61 60 58 57 56 55 54 49 48 45 45 45 44 44 44 44 44 44 45 46 47 45 45 44 44 45 55 56 59 60 61 61 62 61 61 61 62 62 63 63 64 64
61 61 60 57 57 56 52 52 49 46 45 44 45 42 42 44 44 44 43 46 44 44 45 45 44 43 42 42 45 55 56 58 60 61 61 61 62 62 62 63 63 64 64
61 61 59 58 56 56 54 54 52 50 46 43 43 46 39 41 40 41 41 42 42 41 42 43 43 43 42 40 43 45 53 55 57 59 61 61 61 62 62 63 63 63 63
60 60 59 58 56 55 55 54 52 51 49 44 43 45 42 42 41 39 40 40 40 42 40 40 40 41 40 40 46 50 53 54 56 57 59 60 60 61 61 62 62 62 62
60 59 58 57 55 54 53 52 51 51 50 48 47 43 43 39 39 40 39 38 39 39 39 39 38 38 39 39 39 45 51 52 54 56 57 58 59 59 60 60 60 61 61
56 58 57 56 55 53 51 52 52 52 51 50 49 47 46 43 41 41 41 39 41 38 37 37 37 36 36 37 44 48 49 51 52 53 54 56 56 57 58 58 58 58 58
52 54 55 54 53 53 53 52 51 50 49 49 48 47 46 46 43 43 42 37 37 35 36 35 36 35 40 35 37 47 47 48 49 50 52 53 54 53 54 54 55 55 56
56 56 55 55 54 53 51 50 50 50 49 47 46 46 44 43 43 43 40 37 31 32 32 35 35 34 34 34 40 46 37 45 46 48 49 50 50 50 50 51 52 53 54
54 54 53 52 52 51 50 50 49 47 47 46 44 43 41 40 42 41 40 40 39 30 33 34 33 36 35 34 37 37 35 41 45 46 47 47 47 48 48 49 50 51 52
51 50 50 49 49 49 49 50 48 47 46 44 43 42 41 40 39 39 38 38 37 34 30 32 33 36 36 38 37 37 35 42 43 44 45 45 46 46 47 48 49 50 50
48 49 48 48 48 49 50 48 47 45 43 41 41 41 39 39 37 37 36 36 35 34 32 34 31 31 30 31 33 32 33 31 32 41 43 44 44 45 46 47 48 48 49
47 48 48 47 49 48 47 45 44 42 41 39 38 37 37 39 36 36 36 35 35 35 32 31 28 28 29 31 31 29 34 37 34 39 42 43 44 44 45 45 46 47 47
50 50 49 47 46 45 44 43 42 41 40 39 38 38 37 37 35 33 32 32 34 36 32 27 27 28 28 28 27 28 28 29 33 38 41 41 42 42 43 44 45 46 46
47 46 45 45 44 43 42 41 41 39 38 38 38 37 36 35 34 33 33 33 35 32 31 29 28 27 25 28 25 26 27 28 30 34 37 38 40 41 42 43 43 42 42
44 45 43 42 41 41 41 39 38 37 36 35 35 34 33 33 35 36 36 35 34 32 28 24 23 23 24 25 26 29 27 28 28 29 30 30 29 30 32 37 38 39 40
41 41 40 40 39 41 43 42 39 36 34 33 32 32 33 34 35 38 40 42 39 30 28 23 22 24 25 26 25 26 26 25 25 28 25 29 30 30 32 32 37 39 40
38 37 38 39 38 40 43 41 38 33 32 32 31 33 34 36 33 33 36 39 38 40 40 31 27 26 27 27 27 25 25 26 25 29 27 26 30 28 31 33 37 39 40
36 36 35 36 36 38 40 38 36 32 32 33 33 32 30 29 30 33 32 29 31 30 31 31 29 29 28 29 28 29 29 28 28 29 28 22 28 27 30 31 36 38 39
34 32 33 32 33 35 38 37 34 34 32 31 31 30 30 29 35 39 32 26 29 29 35 38 38 38 38 38 37 30 23 23 22 24 28 24 24 23 27 28 31 36 38
32 33 32 33 36 33 38 39 36 31 27 30 28 30 35 33 38 39 32 29 25 26 27 26 27 28 30 28 34 28 22 19 20 20 23 20 19 24 20 23 23 26 30

GFSMA_sfc_temp_045.txt.gz
Temp
71 72 72 71 71 71 71 70 69 69 68 68 68 68 67 68 68 70 72 66 69 70 70 70 69 69 69 68 67 67 66 66 66 66 65 65 65 66 66 66 66 67 67
71 70 71 70 70 70 70 70 69 68 68 67 66 66 66 66 67 67 69 70 67 68 69 69 68 68 68 68 67 66 65 65 65 64 64 64 64 65 65 65 66 66 66
71 71 70 69 70 69 69 67 66 66 65 65 65 64 64 65 65 65 66 68 68 65 67 68 67 67 67 67 67 66 65 64 64 63 63 63 63 63 64 64 64 65 65
71 70 69 69 70 68 67 66 64 63 64 64 63 63 63 63 63 64 64 65 65 67 66 66 66 66 66 66 66 65 65 64 64 63 62 62 62 62 63 63 64 64 65
70 70 69 69 69 67 65 64 62 64 62 61 62 61 61 61 62 61 62 62 62 63 64 63 63 63 63 64 64 64 64 63 63 63 62 62 62 62 63 63 64 64 65
69 69 69 69 68 65 64 62 63 61 62 62 61 59 59 60 60 60 61 61 61 60 61 61 61 61 59 61 62 62 63 63 63 63 63 63 62 62 62 63 64 64 65
68 67 68 68 66 65 64 63 62 59 57 59 57 57 57 57 58 58 59 60 59 58 59 59 60 60 60 55 56 58 60 61 62 62 62 62 62 62 63 63 64 64 65
67 67 68 66 66 65 62 61 60 57 57 57 58 55 54 56 56 57 57 58 58 58 57 57 58 57 57 58 55 55 56 58 60 61 62 62 62 63 63 63 64 64 65
67 66 66 66 64 64 61 60 60 59 55 54 56 61 51 55 53 53 54 55 56 56 57 56 55 55 55 56 54 53 54 56 58 59 61 61 62 62 63 63 64 64 64
66 65 66 65 63 62 62 60 58 57 57 53 49 51 53 57 54 51 51 52 53 53 54 53 53 53 53 53 51 52 53 54 56 57 58 59 60 61 62 62 63 63 63
65 64 65 64 63 62 62 59 57 58 58 57 53 49 49 47 48 51 50 48 49 51 52 53 52 53 51 51 51 51 51 52 54 55 56 58 58 59 60 61 61 62 61
63 63 63 63 63 61 61 58 58 57 57 57 56 54 53 51 47 51 47 48 49 48 49 49 50 50 49 50 49 48 49 50 52 53 54 56 56 57 57 58 58 59 59
59 61 62 61 61 60 60 58 56 56 55 55 54 52 54 51 48 47 45 41 42 42 47 48 48 48 48 48 49 48 46 48 49 51 52 54 54 53 53 54 55 56 56
62 63 61 62 61 60 58 57 56 55 55 55 50 49 48 48 47 45 42 40 37 38 39 45 42 46 47 47 47 46 48 46 47 49 50 50 50 50 50 51 52 53 54
62 62 60 59 59 58 57 56 55 54 54 52 48 46 45 42 42 42 42 44 46 37 38 39 40 45 45 45 44 48 47 44 46 47 47 47 47 48 48 49 50 51 51
60 58 58 57 56 55 54 53 52 52 50 47 46 44 43 42 41 41 39 39 39 41 39 39 39 41 42 42 43 45 45 43 45 45 46 46 46 46 47 48 48 49 50
56 55 54 54 53 52 52 50 49 48 46 44 43 42 40 41 38 37 37 37 35 35 33 35 34 34 34 37 40 43 43 43 44 43 44 45 45 45 46 47 47 48 49
53 52 51 51 51 51 50 47 46 45 43 42 41 39 37 39 36 36 36 35 34 33 33 32 34 33 34 38 40 41 41 42 43 42 43 44 44 44 45 45 46 47 47
51 52 51 50 48 46 46 45 44 42 41 41 39 38 38 38 35 35 34 33 33 35 33 32 32 34 36 38 38 39 39 40 40 40 41 42 42 43 43 44 45 46 46
48 48 47 46 45 44 44 43 42 39 39 39 38 38 37 36 35 33 33 34 35 34 33 33 33 34 35 37 35 35 36 39 38 40 40 40 41 42 42 43 43 43 42
44 44 42 42 42 42 42 40 40 38 37 36 35 35 33 34 34 34 35 35 34 34 34 33 33 34 34 35 35 37 35 36 37 38 37 39 39 39 40 40 40 40 40
41 41 40 40 41 42 43 42 39 37 35 33 32 33 33 34 35 36 36 38 39 35 34 33 33 33 34 35 35 34 33 31 28 40 36 36 39 37 39 40 40 40 41
39 39 39 40 39 41 43 41 39 34 32 32 32 32 33 35 33 32 36 39 39 40 40 38 34 34 34 35 33 31 31 31 30 35 36 32 37 35 39 40 39 39 40
36 36 36 37 37 39 40 39 37 32 32 32 34 33 33 34 34 37 37 35 36 36 37 37 37 37 37 37 35 32 32 33 34 36 36 27 35 34 38 38 38 39 39
33 33 34 33 33 35 37 38 36 36 35 33 33 33 34 34 36 38 37 33 34 35 37 38 38 38 38 38 38 35 30 28 26 30 35 30 32 32 33 35 37 38 39
32 33 32 33 36 35 38 36 36 36 33 33 34 35 35 36 38 39 37 34 31 33 34 33 34 34 34 34 34 34 31 25 24 25 34 28 30 29 26 35 35 36 36

GFSMA_sfc_temp_048.txt.gz
Temp
80 81 81 81 81 81 81 79 79 78 78 78 78 78 77 78 78 79 79 67 69 71 71 70 70 69 69 68 67 67 66 66 66 66 66 65 66 66 66 67 67 67 67
81 80 80 80 80 80 80 80 79 78 77 77 76 77 77 77 77 76 78 73 68 69 70 70 69 69 69 68 67 66 65 65 65 65 65 64 64 65 65 65 65 66 66
80 80 80 79 79 80 80 79 78 77 76 76 75 75 75 76 75 75 75 76 71 66 68 69 68 68 68 68 67 66 65 65 64 64 63 63 63 63 64 64 65 65 65
80 79 79 79 80 79 78 76 75 74 74 74 74 73 73 73 74 74 73 73 73 73 67 67 67 67 67 67 67 66 65 64 64 63 63 63 63 63 63 64 64 64 65
79 79 79 79 79 77 76 75 74 74 72 72 72 72 72 71 71 72 72 71 71 71 71 64 65 65 65 65 65 65 64 64 63 63 63 63 63 63 63 63 64 64 65
78 77 78 78 79 76 75 74 73 72 73 72 70 69 69 70 70 70 71 70 70 68 69 68 66 65 62 63 63 63 63 63 63 63 63 63 63 63 63 63 64 65 65
77 76 77 78 77 75 74 73 72 69 67 71 67 65 66 67 67 68 69 69 68 67 67 67 67 67 64 59 59 59 60 61 62 62 63 63 63 63 63 64 64 65 65
76 76 75 76 76 75 74 72 71 67 69 68 66 67 61 63 64 65 67 67 67 67 66 66 66 65 65 65 61 56 56 58 60 61 61 62 63 63 64 64 64 65 65
75 74 73 75 74 74 73 72 70 67 65 65 69 69 60 60 61 63 63 64 65 65 65 65 64 64 63 63 57 56 55 56 58 59 60 61 61 62 62 63 64 64 64
71 73 72 72 73 71 71 71 70 68 68 63 64 65 64 64 60 51 58 60 63 64 64 63 62 60 60 60 56 54 54 54 56 57 58 59 60 61 61 62 63 63 64
69 68 70 70 71 70 69 70 68 67 68 68 62 61 59 59 61 59 57 52 57 59 61 60 60 60 59 59 58 55 52 52 54 55 57 58 59 59 60 60 61 62 62
69 67 67 68 69 69 68 68 66 65 65 66 64 63 62 61 59 59 59 54 52 56 57 56 56 57 56 57 55 51 50 50 52 53 55 56 57 57 57 57 58 58 59
67 64 66 65 66 68 68 67 66 63 62 61 61 60 59 56 55 55 53 47 49 44 48 48 53 52 53 54 55 49 48 48 50 51 53 55 54 53 53 54 55 55 56
72 71 66 65 65 66 66 66 64 62 61 58 59 60 58 53 52 51 48 44 42 42 41 42 44 46 51 53 50 47 52 49 48 49 51 51 51 50 50 51 52 52 53
71 72 70 64 64 64 63 62 60 59 59 59 59 58 56 49 47 46 46 47 47 38 41 39 41 44 45 47 47 47 47 48 48 48 48 48 48 48 49 49 50 50 51
71 69 66 65 62 60 59 58 57 58 56 56 56 53 48 46 44 43 44 41 43 42 37 38 36 38 40 41 40 41 41 44 45 47 47 47 47 47 47 48 48 49 50
64 63 63 62 59 57 56 55 53 53 52 49 47 45 41 42 39 38 39 39 38 37 36 34 35 34 34 35 36 38 42 45 47 47 47 46 46 46 46 47 47 48 49
58 58 57 56 55 54 53 51 49 48 45 43 42 41 39 40 38 38 38 36 35 35 35 34 33 32 33 35 38 39 42 45 45 46 45 45 45 45 45 45 46 46 47
55 56 54 52 51 51 50 49 47 45 43 41 41 40 38 38 36 35 36 34 33 34 34 34 33 34 37 40 39 42 43 44 45 44 45 45 45 45 44 45 45 46 46
53 50 52 50 49 48 46 45 43 41 41 40 40 39 38 37 35 34 34 33 34 35 35 35 35 36 37 39 39 38 40 43 43 45 44 44 44 43 43 43 43 43 43
45 44 44 43 44 45 43 41 40 39 38 38 36 36 34 36 37 36 36 35 35 34 36 35 35 37 38 39 39 41 38 39 40 42 42 43 44 44 44 45 44 43 43
41 42 42 42 41 42 43 43 40 38 36 34 33 33 34 35 36 38 38 39 40 38 35 36 35 35 37 40 40 39 36 34 32 42 40 39 43 42 43 45 44 43 43
40 40 41 41 40 41 43 42 39 35 33 33 33 34 35 37 36 35 36 38 39 39 40 39 37 39 38 39 36 33 35 34 33 39 39 35 41 39 43 45 44 43 43
34 36 36 36 37 39 40 38 36 33 33 34 35 35 36 37 37 38 38 37 38 40 40 40 40 40 40 40 40 37 35 36 38 40 41 32 39 38 41 43 43 42 42
33 33 34 34 33 34 36 35 35 36 35 35 37 38 38 37 37 38 39 36 37 38 40 39 38 38 39 39 39 37 33 32 31 34 39 35 36 36 38 38 40 41 41
33 34 33 34 36 37 38 39 40 40 38 37 38 38 36 38 38 39 38 37 35 36 37 37 39 39 39 39 37 37 35 28 28 28 38 31 32 31 28 37 38 40 40

GFSMA_sfc_temp_051.txt.gz
Temp
82 82 82 82 81 82 82 80 80 80 78 79 79 79 78 79 79 78 75 68 70 71 71 71 70 70 69 68 68 67 67 66 66 66 66 66 66 66 67 67 67 67 67
82 81 82 82 81 81 82 82 80 79 78 78 77 78 78 78 78 77 77 71 68 69 70 71 70 70 69 68 68 66 66 66 65 65 65 65 65 65 65 66 66 66 66
82 81 81 81 81 82 81 81 80 79 78 77 76 77 76 77 76 76 76 73 69 66 69 70 70 69 69 68 68 67 66 65 65 64 64 64 64 64 64 65 65 65 66
82 81 80 80 82 81 80 79 78 76 75 75 74 75 75 75 75 76 74 74 71 70 67 68 68 68 68 68 68 66 65 65 64 64 63 63 63 63 64 64 64 65 65
82 81 80 80 81 80 75 77 76 75 73 73 73 74 73 72 73 74 73 72 71 70 68 65 65 66 66 67 67 66 65 64 64 64 63 63 64 63 63 64 64 65 65
82 80 80 80 81 79 76 76 75 75 74 72 72 72 70 71 71 71 71 72 70 68 68 65 63 63 63 65 66 65 64 64 63 63 63 64 64 64 64 64 64 65 65
81 79 78 79 79 78 77 76 74 72 70 73 68 67 67 69 69 69 70 70 68 67 67 66 64 65 61 62 63 62 62 62 62 62 63 63 63 64 64 64 65 65 65
80 79 78 77 78 76 76 74 73 70 69 70 65 63 59 62 64 67 67 68 67 66 65 65 65 64 62 60 58 59 58 60 61 62 62 62 63 63 64 64 65 65 65
77 78 76 76 76 76 73 73 72 69 65 67 68 66 59 57 59 63 63 65 65 64 63 63 64 63 63 62 57 56 57 58 59 60 61 61 61 62 62 63 64 64 64
73 73 72 73 74 74 73 73 73 69 67 63 63 67 68 65 57 52 59 61 62 63 62 62 62 62 60 59 57 56 56 55 57 58 59 59 60 61 61 62 62 63 63
76 72 71 71 70 70 70 72 71 69 67 67 61 61 62 60 61 58 51 53 58 60 62 61 59 59 58 57 54 54 54 55 56 56 57 58 59 60 60 61 61 61 61
75 74 69 68 68 67 68 68 70 67 66 65 67 63 60 58 57 56 55 54 52 54 57 58 58 57 56 56 56 55 53 53 53 54 56 57 58 58 58 58 58 58 58
72 71 68 66 66 66 66 66 65 65 64 63 63 62 62 62 60 59 55 49 48 47 52 51 52 52 55 51 51 51 50 50 50 52 54 56 56 55 54 54 55 55 56
74 76 70 67 65 65 65 64 63 63 63 62 61 63 61 60 55 54 50 44 41 39 42 43 45 48 47 49 50 50 50 49 50 50 52 53 53 52 52 52 52 53 53
73 74 73 69 65 64 63 62 61 60 60 59 59 59 58 53 50 48 46 46 47 41 39 41 39 44 45 45 46 45 43 44 47 48 49 50 50 50 50 50 50 51 51
70 71 72 69 64 62 61 59 57 57 56 56 55 55 51 47 45 44 42 42 42 41 37 36 35 37 40 41 41 41 40 42 44 47 48 49 49 48 48 49 49 49 50
62 63 65 65 64 60 59 56 55 54 53 51 50 48 43 42 40 40 39 41 39 39 38 34 35 35 35 36 37 37 38 39 42 47 48 48 48 48 48 48 48 48 49
59 58 57 58 58 56 55 53 50 49 46 44 43 42 40 41 38 39 39 37 37 38 36 34 33 32 33 34 34 35 39 44 44 47 48 47 47 46 47 47 47 47 47
56 55 54 53 52 51 50 48 46 44 42 42 41 40 40 39 37 37 37 35 35 35 34 34 33 34 34 34 36 40 41 42 45 46 47 48 47 47 46 46 46 46 46
48 49 49 50 49 48 47 46 44 41 41 40 40 40 40 39 37 34 34 33 34 33 34 34 34 34 36 38 38 36 37 41 40 45 45 45 46 46 46 46 46 46 45
44 44 44 44 45 45 44 42 41 40 38 37 36 36 36 38 39 38 36 35 35 35 34 33 35 36 36 37 36 38 36 37 38 39 38 39 39 40 41 44 45 46 46
42 42 42 42 41 42 44 43 39 36 36 34 33 33 34 36 38 39 39 38 38 37 35 35 35 35 36 36 37 35 33 31 29 38 35 36 39 38 39 41 45 45 45
37 37 37 37 37 40 41 40 38 34 33 33 33 33 34 37 37 37 37 38 39 40 40 38 35 36 35 36 32 30 31 31 31 35 35 32 37 36 39 43 45 45 44
35 35 34 34 35 37 39 38 36 32 32 33 35 36 37 37 38 39 38 36 36 37 38 40 37 37 37 38 36 34 32 33 35 36 37 29 35 34 38 39 43 43 43
34 33 34 33 33 34 37 39 38 36 35 37 38 39 39 38 37 38 37 35 35 36 42 40 40 40 39 40 39 34 30 29 28 31 35 31 31 32 33 34 36 41 43
33 35 34 35 39 38 41 41 42 40 38 37 38 38 37 37 38 39 37 36 33 34 35 35 35 37 38 37 40 35 31 26 28 26 32 27 28 29 25 30 31 34 35

GFSMA_sfc_temp_054.txt.gz
Temp
71 72 70 70 70 69 69 69 67 69 67 68 68 67 66 66 66 64 62 67 70 71 72 71 71 70 69 69 68 67 67 67 67 66 66 66 66 67 67 67 67 67 68
71 70 71 71 69 69 70 70 69 68 67 66 66 67 66 65 66 64 62 63 68 70 71 71 71 70 70 69 68 67 66 66 66 66 65 65 65 65 66 66 66 66 67
72 71 70 69 69 70 71 70 69 68 66 66 64 65 65 65 65 64 63 61 63 66 69 71 71 70 70 69 68 67 66 66 65 65 64 64 64 64 64 65 65 65 66
73 70 69 69 70 70 69 67 66 65 63 62 62 62 63 64 64 64 64 62 61 62 65 69 69 70 70 69 69 67 66 65 65 64 64 64 64 64 64 64 64 65 65
75 73 69 69 70 68 68 68 65 64 61 60 62 61 61 61 62 66 62 62 60 59 59 65 66 67 68 68 69 68 66 65 64 64 64 64 64 64 64 64 64 64 65
73 72 71 69 70 67 66 65 64 63 62 61 66 64 59 59 60 60 60 63 61 60 58 58 56 58 65 67 68 67 66 65 64 64 64 64 64 64 64 64 64 65 65
72 68 70 71 70 70 69 68 65 62 60 60 58 55 56 59 58 58 59 59 60 60 57 56 55 54 57 65 66 66 65 65 64 63 63 64 64 64 64 64 65 65 66
73 70 68 69 68 67 66 68 67 63 59 60 55 52 49 52 55 58 57 59 58 58 58 57 57 55 53 53 54 64 63 64 64 63 63 63 63 63 64 64 64 65 65
69 70 71 70 64 64 64 66 65 63 61 57 60 55 49 49 49 53 56 56 57 54 55 57 57 57 54 52 56 57 60 61 62 63 63 62 62 62 62 63 63 64 64
68 69 67 68 71 70 67 66 64 62 58 57 54 63 56 54 50 46 51 53 55 56 56 54 57 57 57 52 54 54 58 59 60 61 61 61 61 61 62 62 63 63 63
67 66 67 68 66 68 66 67 64 64 63 60 59 52 57 52 52 48 43 47 52 53 54 57 56 56 56 53 49 54 58 58 60 60 60 60 60 60 61 61 61 61 61
64 65 65 67 68 65 65 64 66 63 63 62 60 56 55 56 52 48 47 46 47 50 54 54 54 53 51 52 54 55 56 57 58 57 58 58 58 59 59 59 58 58 59
62 63 63 63 64 65 65 64 63 63 61 60 60 58 57 56 54 55 52 47 46 45 48 46 46 48 51 49 50 52 54 54 53 54 55 57 57 56 56 56 56 57 57
61 65 65 61 62 63 62 63 62 62 62 60 59 60 57 55 54 52 51 47 41 39 40 42 42 43 43 45 48 50 49 52 51 52 53 53 53 53 53 53 54 54 54
62 61 61 61 61 62 62 61 61 61 60 59 58 57 56 52 49 48 48 48 48 40 38 35 36 41 41 41 44 41 42 45 48 48 49 50 50 50 51 51 51 52 52
57 56 56 57 58 59 60 59 58 58 57 55 55 54 51 47 45 46 45 43 44 42 36 36 35 36 38 40 42 40 41 42 44 46 48 48 49 50 50 50 50 50 50
53 55 55 53 54 56 56 55 55 54 53 51 50 48 44 44 41 41 41 41 40 40 37 34 35 35 34 36 38 38 38 38 39 44 46 48 49 49 49 49 49 49 49
50 52 53 52 51 50 49 49 48 47 46 44 42 41 40 41 39 40 40 39 38 38 37 34 33 33 33 34 35 35 38 41 41 45 47 49 48 48 48 48 48 48 48
47 48 49 48 48 47 46 45 44 43 43 42 41 41 39 39 38 38 37 36 35 36 35 35 32 34 34 34 34 35 36 38 42 45 47 48 48 48 48 48 47 47 47
44 45 45 45 45 45 44 43 42 41 40 40 40 40 39 38 37 35 34 34 35 34 34 34 34 34 34 34 32 32 33 36 35 42 43 44 46 46 47 47 47 46 46
43 43 43 43 43 43 43 40 40 38 37 36 37 37 36 39 40 38 36 35 35 34 33 32 31 31 33 34 32 33 31 32 31 33 32 31 33 33 35 42 43 45 45
39 39 39 39 40 42 43 42 38 35 35 34 33 34 35 38 41 41 40 39 37 34 33 33 31 30 30 31 32 30 26 26 23 32 29 30 32 32 33 34 42 45 46
36 36 36 37 37 39 41 40 38 33 32 32 33 33 34 36 36 36 39 39 40 41 40 34 30 30 30 32 28 26 27 24 24 29 29 28 30 31 32 39 43 44 45
34 34 34 34 36 38 40 39 37 32 32 32 33 35 35 36 36 37 34 33 32 33 35 37 32 32 32 32 31 27 25 26 28 30 30 23 28 29 33 31 41 42 42
33 33 34 32 31 33 42 41 36 32 32 32 34 35 35 33 39 39 34 31 31 31 40 40 40 40 40 40 38 29 22 20 21 25 29 25 26 25 29 31 32 39 42
33 34 33 27 38 31 42 42 38 33 29 31 31 32 38 35 39 39 31 28 27 27 29 30 30 32 34 33 40 31 24 15 16 22 26 20 21 22 21 25 26 29 30

GFSMA_sfc_temp_057.txt.gz
Temp
67 67 64 64 63 63 64 63 62 63 62 63 64 63 63 64 60 61 61 67 70 72 72 72 71 70 70 69 69 68 68 67 67 67 67 67 67 67 67 67 67 68 68
70 68 66 66 65 65 66 66 66 64 63 63 64 63 63 62 61 60 60 63 68 70 71 72 71 71 70 69 68 68 67 67 66 66 66 66 66 66 66 66 66 67 67
68 69 67 65 67 66 67 65 65 64 62 63 62 62 62 61 61 59 60 60 64 66 69 72 71 71 70 70 69 68 67 66 66 66 65 65 65 65 65 65 65 66 66
70 68 66 66 67 67 67 65 63 62 61 61 60 60 61 61 61 59 59 60 59 62 66 70 70 70 70 70 69 68 67 66 65 65 65 64 64 64 64 64 65 65 65
71 69 67 66 67 65 65 67 63 62 59 58 59 59 58 59 60 63 58 58 58 59 59 65 67 67 69 69 70 69 67 66 66 65 65 64 64 64 64 64 64 64 65
71 68 68 67 67 65 63 62 62 60 60 59 64 62 57 57 58 58 58 61 60 59 58 58 59 60 65 68 69 69 68 66 65 65 65 65 64 64 64 64 64 64 65
68 67 69 68 66 67 68 64 62 61 58 58 56 54 53 55 55 56 57 56 58 59 57 58 57 55 59 66 67 68 68 67 66 65 65 65 64 64 64 64 65 65 65
66 66 65 64 64 64 62 62 63 59 59 57 54 51 50 52 53 56 55 58 56 57 57 58 57 54 53 55 57 66 67 67 66 65 65 64 64 64 64 64 64 64 65
67 67 66 65 65 61 63 61 62 61 60 56 55 54 47 47 48 51 56 56 57 54 57 56 57 56 54 52 57 59 63 64 66 66 65 64 64 63 63 63 63 64 64
66 66 66 65 63 63 63 63 61 60 57 56 54 58 53 52 48 47 49 51 53 55 54 54 55 56 55 53 55 56 60 61 63 65 65 64 63 63 63 63 63 63 63
65 65 65 64 62 62 62 62 62 62 62 62 57 53 53 51 50 47 45 46 49 51 52 57 54 54 54 53 52 55 59 60 62 63 64 64 63 62 62 62 62 62 61
60 62 63 64 63 62 63 63 63 61 61 61 60 59 57 56 54 47 46 45 46 49 52 53 53 53 51 52 54 56 58 59 59 61 62 61 61 60 61 60 60 59 59
56 58 62 63 61 62 62 62 62 62 61 60 60 58 58 57 57 54 51 47 46 46 46 44 44 46 48 46 50 53 55 55 56 57 56 56 57 58 57 58 58 58 57
54 55 55 56 59 60 60 61 61 61 62 60 59 58 57 58 56 54 53 50 42 40 41 41 41 42 43 45 48 49 47 48 49 49 50 51 52 53 54 55 55 55 55
57 53 53 53 54 57 58 58 58 59 59 59 58 58 58 55 54 54 52 51 52 46 39 38 38 40 40 43 45 42 42 48 48 47 48 48 49 50 51 52 52 53 53
51 51 51 51 52 54 54 55 57 57 56 56 55 55 52 48 48 47 46 45 45 48 43 37 37 37 40 41 43 40 40 44 46 47 48 48 49 50 50 50 51 52 51
47 48 49 48 48 47 48 49 50 51 52 50 48 47 43 44 42 43 43 42 41 42 39 35 36 36 36 37 39 38 40 39 40 45 47 48 49 49 50 50 50 50 50
44 45 46 46 46 47 46 46 46 45 44 43 43 42 41 42 40 41 41 40 40 39 38 34 33 32 33 35 36 36 39 42 41 43 46 46 49 49 49 49 49 49 49
42 43 44 45 45 45 44 44 43 42 42 41 41 41 41 41 39 38 38 36 36 37 36 35 32 34 34 35 34 36 36 37 41 44 46 48 49 48 48 48 48 48 48
44 44 44 44 44 43 43 42 41 40 39 39 39 39 39 38 37 35 35 34 35 35 35 35 34 33 34 35 35 34 33 37 36 41 43 44 45 45 46 46 46 46 45
41 42 42 41 42 42 41 39 38 37 36 36 36 38 38 40 41 39 37 35 35 34 34 33 33 33 33 33 32 33 31 30 30 31 31 31 32 32 34 40 41 43 44
38 39 39 39 40 42 43 42 38 36 35 34 33 34 36 37 39 42 42 40 38 34 33 33 32 32 32 30 30 30 26 26 23 29 28 28 30 30 31 32 41 43 45
36 36 37 38 38 40 42 41 37 33 33 33 33 33 34 36 35 36 40 40 40 41 40 33 30 29 28 30 26 25 27 24 24 28 28 26 29 29 30 36 41 43 44
34 34 35 35 37 39 41 40 38 29 28 29 30 32 32 32 36 36 34 33 32 33 34 36 30 29 30 30 30 26 23 24 27 28 28 19 26 27 29 29 39 41 42
33 30 28 26 26 30 42 41 34 28 28 28 31 32 31 30 39 40 31 28 29 29 39 40 40 41 41 41 38 27 21 18 20 24 28 24 24 24 26 27 29 39 41
33 33 26 24 37 30 42 41 33 29 26 29 28 30 38 35 39 39 29 27 25 26 28 29 28 30 32 31 39 30 24 13 14 16 25 19 20 21 19 24 25 29 28

GFSMA_sfc_temp_060.txt.gz
Temp
62 62 62 62 62 62 63 62 61 61 60 60 61 61 61 60 59 60 62 66 70 72 73 72 71 71 70 70 69 69 68 68 68 68 68 68 68 68 68 68 68 68 68
65 65 64 63 63 63 63 63 63 62 61 60 61 61 61 60 59 59 60 62 68 70 72 72 72 71 71 70 69 68 68 68 67 67 67 67 67 67 67 67 67 67 67
66 66 65 64 65 64 63 63 62 62 61 63 61 62 62 60 58 58 59 60 63 66 70 72 72 71 71 70 70 68 68 67 67 67 66 66 66 66 66 66 66 66 67
67 67 66 65 66 63 64 62 63 61 60 60 60 60 60 59 59 57 58 59 59 63 66 70 71 71 71 70 70 69 68 67 67 66 66 65 65 65 65 65 65 66 66
70 68 68 67 65 65 64 63 61 61 58 58 58 58 58 58 58 60 57 57 58 60 60 65 67 68 69 70 70 70 68 67 66 66 66 65 65 65 65 65 65 65 65
69 65 64 65 65 63 62 61 62 59 59 61 63 61 56 56 56 56 56 59 58 58 57 58 60 63 66 69 70 70 69 68 67 66 66 65 65 65 65 65 65 65 65
67 64 64 63 62 63 65 62 60 60 59 55 56 55 53 54 54 55 54 56 57 58 56 57 58 56 60 66 68 69 69 68 67 66 66 66 65 65 65 65 65 65 65
66 65 63 63 63 61 61 61 60 58 57 55 54 50 54 54 53 55 53 56 56 57 57 57 57 55 54 56 58 66 68 69 68 67 66 65 65 65 65 65 65 65 65
65 64 64 63 62 61 61 60 59 59 61 54 54 55 47 49 48 50 53 56 57 54 57 57 56 56 54 54 58 61 63 66 68 68 67 66 65 65 65 65 64 64 64
63 64 64 63 63 62 61 61 61 60 58 59 53 56 52 50 48 47 49 48 50 53 52 52 55 56 56 55 56 57 60 63 66 67 67 66 65 65 64 64 64 64 64
60 62 63 63 61 62 62 61 60 58 59 60 56 53 56 53 52 49 53 47 48 50 53 54 54 54 55 55 54 56 61 63 65 65 66 65 63 62 63 63 63 63 62
55 56 58 60 61 61 60 60 60 59 60 60 60 59 57 54 55 52 47 48 46 49 50 53 54 54 54 53 55 56 58 60 61 62 60 59 59 58 60 61 62 61 61
51 52 53 54 56 58 60 60 59 58 58 58 58 59 59 58 58 55 53 53 46 45 47 45 45 48 50 48 49 52 54 58 58 56 57 57 54 52 53 53 54 56 59
51 51 52 52 53 56 57 57 57 57 58 57 57 58 58 58 57 56 54 53 43 42 40 44 42 43 45 47 50 52 50 53 53 53 53 53 52 52 52 52 53 53 55
53 50 50 50 51 52 54 56 56 57 55 55 56 57 57 57 55 54 53 51 49 44 40 39 39 40 41 45 48 47 47 51 51 51 52 52 51 51 50 50 52 53 54
47 48 47 47 47 47 48 49 49 50 52 52 52 53 50 48 47 46 45 46 46 45 43 39 37 38 40 43 46 42 43 48 50 50 50 49 49 49 50 51 52 52 52
44 44 45 44 44 44 43 44 44 45 46 46 46 45 43 44 43 43 43 43 43 43 41 37 37 37 37 38 40 39 41 40 41 47 49 49 49 49 50 50 50 51 51
42 42 43 42 42 42 41 41 41 41 42 42 42 42 41 43 41 41 41 40 40 39 38 36 34 33 34 36 37 37 39 41 40 43 45 46 47 48 49 49 50 50 50
40 41 42 41 41 42 43 43 42 41 40 40 40 40 40 40 38 38 37 37 36 38 36 35 33 34 34 35 35 36 37 37 41 42 43 44 46 48 49 49 49 49 48
41 41 41 42 42 41 40 39 40 39 39 39 39 39 39 38 37 35 35 35 36 36 36 35 34 34 34 35 35 34 33 36 35 41 43 44 45 45 46 46 46 46 46
41 42 42 42 42 42 41 35 37 38 37 36 36 37 39 41 43 40 37 36 36 35 34 34 33 33 33 32 32 33 33 31 30 30 30 31 31 31 33 39 41 43 44
38 39 39 40 40 42 43 41 37 35 35 34 33 34 36 37 37 43 43 42 38 34 34 33 32 32 30 28 28 28 24 23 21 28 27 28 29 28 29 30 39 42 44
36 36 37 39 39 41 43 41 37 33 32 31 30 29 32 36 36 35 39 39 39 41 40 32 29 28 27 29 23 23 26 22 22 27 27 24 27 27 29 34 40 42 43
34 35 34 33 32 37 41 40 37 23 22 23 26 29 28 29 32 32 30 29 29 30 31 34 29 28 29 29 29 26 23 24 26 27 26 18 25 26 28 28 38 40 42
28 25 25 25 26 29 42 40 33 27 27 27 29 29 30 29 39 38 30 28 27 28 37 39 38 40 40 40 35 26 21 17 19 24 26 23 23 23 25 26 29 38 40
26 25 26 22 37 29 41 40 33 29 26 29 28 29 37 35 39 38 29 26 25 26 27 28 27 29 30 30 37 29 23 12 13 15 25 18 19 20 18 24 24 28 28

GFSMA_sfc_temp_063.txt.gz
Temp
59 60 61 61 61 62 62 62 61 61 59 59 61 61 62 61 60 60 61 65 69 72 74 73 72 71 71 70 70 69 68 68 68 68 68 68 68 68 68 68 68 69 69
61 61 61 61 61 61 62 62 62 61 60 59 60 60 61 63 60 61 60 61 67 70 72 73 72 72 71 71 70 69 68 68 68 68 67 67 67 68 68 68 68 68 68
63 64 62 61 62 61 61 61 61 61 60 60 58 60 60 60 58 58 59 60 62 66 69 73 73 72 71 71 71 69 69 68 68 67 67 67 67 67 67 67 67 67 67
65 64 63 63 63 61 61 60 61 60 60 59 59 59 59 59 59 57 57 58 59 61 65 69 71 72 72 71 71 70 69 68 67 67 66 66 66 66 66 66 66 66 66
67 66 65 65 63 63 62 62 60 60 59 59 58 59 58 58 58 60 56 57 58 60 59 64 67 68 69 71 71 71 70 68 67 67 66 66 65 65 65 65 65 65 66
67 64 64 64 63 62 60 59 62 58 60 60 61 61 57 57 55 55 56 58 58 59 58 57 59 62 66 69 70 71 71 69 67 67 66 66 66 65 65 65 65 65 65
66 64 64 63 62 61 62 60 59 58 57 55 54 54 54 54 54 56 54 55 56 58 58 58 59 57 61 66 68 70 71 70 69 67 67 66 66 66 66 66 65 65 66
65 65 63 63 62 60 60 60 59 57 57 54 54 50 55 57 52 57 53 56 56 56 56 58 58 56 56 58 60 67 68 70 70 68 67 66 66 66 66 66 66 66 66
64 64 64 63 62 60 60 60 59 58 60 54 55 58 51 51 48 51 51 53 56 51 54 54 55 56 56 56 59 62 64 67 70 69 68 67 66 66 66 66 66 65 65
60 61 62 62 62 61 59 60 59 59 57 57 52 55 54 54 52 52 49 49 52 50 49 50 53 55 56 56 57 59 61 63 68 69 69 68 67 66 66 66 65 65 64
56 56 57 59 60 60 60 60 59 57 58 57 55 55 55 54 52 49 52 53 48 48 49 50 51 54 56 57 55 57 60 63 65 68 69 68 68 66 64 61 60 61 62
52 53 54 54 56 60 59 59 59 58 57 57 57 57 57 55 52 51 49 51 50 51 49 50 51 50 52 53 54 54 56 60 61 61 62 61 60 58 58 58 58 58 57
49 50 51 51 52 54 56 57 57 57 56 57 57 58 56 57 57 55 53 52 48 47 47 47 45 45 49 48 49 52 54 57 58 58 57 59 58 56 56 56 55 54 55
48 49 49 50 51 52 57 57 56 55 55 55 56 54 56 56 56 55 54 51 46 44 42 45 40 43 42 44 47 52 50 54 55 56 58 58 57 55 54 54 54 54 55
50 47 47 47 47 48 49 53 53 53 54 54 53 54 53 52 52 52 52 52 51 44 43 43 39 39 40 44 47 48 48 52 54 55 55 55 54 53 53 53 53 54 53
44 45 45 44 44 44 45 46 45 46 49 48 47 48 46 46 46 45 46 47 47 47 43 41 37 38 40 43 47 44 46 50 53 53 53 52 52 51 51 52 52 53 53
42 42 43 42 42 41 41 41 42 42 43 44 45 44 43 44 42 43 43 43 43 43 41 38 37 36 37 39 39 41 42 41 42 48 50 50 50 50 50 51 51 52 51
41 41 41 41 40 40 39 39 39 39 39 39 41 42 41 43 40 41 41 40 40 39 38 37 34 34 34 36 37 38 40 42 40 43 45 47 48 48 49 50 49 50 50
39 40 40 40 39 39 38 39 39 40 40 40 40 40 40 40 38 38 38 37 37 38 37 36 33 34 34 35 35 37 37 37 41 42 44 45 46 47 47 49 50 50 49
41 40 41 42 42 38 37 37 37 38 39 39 39 39 39 38 37 34 34 34 36 35 36 35 34 34 34 35 35 34 34 36 36 39 41 43 44 45 46 46 47 47 47
41 41 42 42 42 42 40 36 37 37 37 36 36 37 38 41 44 41 37 35 36 35 34 34 33 33 33 33 32 34 32 30 31 30 31 31 32 31 32 38 40 43 44
39 39 39 40 40 42 42 40 36 34 34 33 31 32 35 37 38 43 42 43 40 34 32 27 26 28 27 26 27 27 24 23 21 28 27 28 29 28 29 30 38 42 43
37 37 37 37 37 39 42 40 37 30 26 25 25 26 30 34 33 31 36 37 37 40 39 29 27 25 25 27 21 22 25 21 22 27 26 24 26 26 29 33 39 42 43
34 32 29 29 30 36 41 40 36 22 21 21 24 27 27 28 32 31 29 28 28 29 31 33 28 28 28 28 29 24 22 23 26 27 26 17 24 25 28 28 37 40 41
27 23 24 23 25 29 41 39 32 26 27 26 29 28 29 29 39 39 30 27 27 28 35 38 38 39 39 39 35 26 21 18 19 24 26 22 22 23 25 25 28 38 40
22 24 24 22 36 29 41 40 32 29 25 29 27 29 36 35 39 39 29 26 25 26 27 27 27 29 30 29 36 28 22 11 13 15 24 18 19 20 17 23 24 27 28

GFSMA_sfc_temp_066.txt.gz
Temp
59 59 59 60 60 61 61 61 61 61 60 59 58 58 58 58 58 59 60 63 68 71 74 74 73 72 71 71 70 70 69 69 68 68 68 69 69 69 69 69 69 69 69
60 59 60 60 60 61 61 61 61 61 60 59 59 59 58 57 58 58 58 60 66 69 72 74 74 73 72 72 71 70 69 69 68 68 68 68 68 68 68 68 68 68 68
61 62 60 60 61 61 61 60 60 60 59 60 59 59 59 59 58 57 57 58 61 65 68 72 73 73 72 72 72 71 69 69 68 68 68 68 67 67 67 67 67 68 68
63 61 61 60 61 60 60 59 59 59 59 59 59 59 59 58 58 58 57 57 59 61 65 69 71 73 72 72 72 72 70 69 68 68 67 67 67 67 67 67 67 67 67
65 63 62 63 61 60 59 59 59 59 58 58 59 59 58 57 58 60 57 57 57 59 60 63 66 67 70 72 72 72 72 70 68 68 67 67 66 66 66 66 66 66 66
65 62 62 62 61 60 59 58 59 58 59 59 59 60 56 56 56 55 59 58 56 57 59 58 59 63 65 69 71 72 72 70 69 68 67 67 66 66 66 66 66 66 66
64 62 63 64 63 61 62 60 58 57 56 55 54 54 54 55 54 56 55 53 55 56 56 57 58 57 59 66 68 70 71 72 70 68 67 67 67 66 66 66 66 66 66
65 64 62 61 61 60 60 59 58 57 56 54 57 53 56 55 52 54 52 54 54 54 55 56 55 55 55 56 59 66 69 71 72 70 68 67 67 67 67 67 66 66 66
62 63 63 63 62 60 60 59 58 57 57 54 54 57 53 52 52 56 56 54 52 50 51 53 54 55 54 56 59 62 64 67 70 72 70 68 67 67 67 67 67 67 66
56 57 58 59 60 60 59 59 59 58 56 57 52 54 53 55 52 51 55 55 53 53 51 50 53 55 57 57 58 58 61 63 67 68 67 66 66 67 67 67 67 66 65
53 53 54 54 58 60 61 60 58 57 56 57 54 52 52 52 52 50 51 53 50 50 48 51 49 54 53 54 55 55 59 62 64 65 65 65 64 66 66 67 66 62 61
51 51 52 51 52 54 58 60 60 59 57 57 57 57 57 55 52 50 49 50 51 53 47 48 49 51 48 49 53 55 57 60 62 63 63 63 61 58 60 60 60 60 59
48 48 49 49 50 52 58 56 57 58 58 58 57 57 58 57 57 55 53 52 50 49 47 45 45 43 46 44 46 53 54 57 59 61 63 63 59 58 59 59 60 60 60
46 47 47 47 47 48 51 56 57 57 57 57 56 56 56 56 55 55 54 52 49 45 44 44 39 39 40 42 45 52 49 55 57 60 62 62 59 58 58 58 58 58 57
48 45 45 45 45 45 47 50 51 52 52 51 50 51 52 50 49 49 50 51 50 46 44 41 40 38 39 42 45 45 46 51 55 57 57 57 56 57 57 56 56 55 54
43 43 42 42 42 42 43 44 44 45 47 47 48 47 46 46 45 43 45 46 46 46 44 41 39 39 40 43 45 44 45 48 51 54 55 55 52 52 52 52 52 53 54
40 41 41 40 40 40 40 40 40 41 45 44 45 44 43 44 42 43 43 44 43 43 41 39 37 37 37 39 39 41 42 42 42 48 50 50 51 50 50 51 51 51 52
39 39 39 38 38 38 38 38 38 38 38 37 38 39 40 43 40 41 41 40 40 39 39 38 34 34 34 36 38 38 40 42 41 44 46 47 47 48 49 49 50 50 50
37 38 38 38 37 37 37 37 37 38 40 40 40 40 39 39 36 38 37 37 37 36 37 36 34 35 34 36 36 37 38 38 41 43 44 45 47 48 48 49 49 50 50
42 42 43 42 40 36 36 37 39 38 38 38 39 40 40 38 36 35 33 31 33 32 36 35 34 34 35 35 35 35 34 36 36 40 41 42 43 44 45 46 47 47 47
41 42 42 42 42 41 39 37 37 37 36 36 36 37 38 41 44 42 36 33 32 31 31 33 33 33 32 32 32 33 32 32 33 32 33 33 32 32 33 38 39 42 44
39 40 39 40 40 41 41 39 36 33 30 29 28 29 33 36 37 42 41 41 39 30 28 24 21 26 25 25 26 26 22 22 21 27 27 28 30 30 30 30 38 41 43
37 35 34 35 34 37 41 40 37 26 23 21 22 24 30 33 32 30 35 37 36 39 38 28 26 25 25 26 21 21 24 21 21 26 26 23 26 26 29 32 39 41 43
32 30 29 30 31 36 41 39 35 19 19 20 23 27 27 29 32 31 29 28 28 29 31 32 28 27 27 28 28 24 21 23 25 27 26 16 24 25 27 28 36 39 41
27 24 25 23 25 28 40 39 32 26 27 27 29 28 29 29 39 39 30 27 27 28 35 37 37 38 38 38 36 26 21 18 19 23 25 22 21 22 25 25 28 37 41
25 24 26 21 35 28 40 39 32 29 25 29 27 29 36 35 39 39 28 27 25 25 26 27 27 28 29 29 35 28 21 11 12 15 23 17 19 20 17 23 24 27 28

GFSMA_sfc_temp_069.txt.gz
Temp
71 71 71 71 71 72 72 71 72 72 72 72 72 71 72 73 73 73 73 64 66 70 73 75 74 73 72 71 71 70 69 69 69 69 69 69 69 69 70 70 70 70 70
71 70 70 70 71 71 72 72 72 72 72 72 72 72 72 72 72 72 73 73 65 68 71 73 74 74 73 72 72 71 70 69 69 68 69 69 68 68 69 69 69 69 69
71 71 71 71 72 72 71 71 71 70 70 71 71 72 72 72 72 72 72 71 72 65 67 71 73 74 74 73 73 72 70 69 69 68 68 68 68 68 68 68 68 68 68
71 71 70 71 73 72 71 70 71 70 69 70 71 72 72 72 72 72 71 71 71 72 69 67 70 73 74 73 73 73 72 70 69 69 69 68 68 67 68 67 67 67 68
72 71 71 72 72 71 70 70 70 69 70 70 69 71 70 70 71 71 72 71 70 70 71 68 65 67 69 72 73 73 73 71 69 69 68 68 67 67 67 67 67 67 67
72 70 70 71 71 70 70 69 69 69 69 70 68 67 69 69 70 70 71 71 70 68 69 69 70 70 65 68 71 73 73 73 70 69 68 68 68 67 67 67 67 67 67
71 70 69 70 68 66 69 69 69 67 67 66 63 66 66 68 68 69 70 69 68 67 67 68 68 69 70 65 68 70 72 72 72 70 69 68 68 67 67 67 67 67 67
70 69 68 68 68 66 67 67 66 66 64 63 64 61 61 67 67 66 67 67 67 66 66 66 67 67 68 69 68 66 69 71 72 72 69 68 68 68 67 67 67 67 67
65 65 66 66 66 65 64 66 65 63 63 63 63 62 56 57 59 66 66 66 66 65 65 63 64 65 66 65 62 63 63 66 70 72 72 68 68 68 68 68 68 67 67
60 61 61 62 63 64 63 63 63 62 62 61 59 59 61 60 56 55 62 63 64 64 63 63 62 63 64 65 62 60 60 62 66 69 71 70 66 65 68 68 68 68 67
58 58 58 59 60 62 62 63 63 61 60 61 60 60 59 58 58 54 52 56 58 62 63 62 62 63 63 63 62 60 59 61 64 67 68 69 68 64 64 65 65 64 64
56 55 56 56 57 57 59 60 61 62 60 59 61 60 59 58 57 54 51 53 55 57 60 61 59 58 57 57 56 54 57 59 61 64 67 68 67 65 63 63 65 63 62
54 53 53 54 54 55 58 60 60 60 60 59 59 60 60 59 58 57 55 54 54 53 56 55 52 51 52 52 53 51 54 56 58 61 64 66 66 64 62 62 63 62 61
52 52 52 52 52 53 55 57 58 57 57 56 56 57 58 56 57 56 54 52 50 50 49 52 49 49 49 50 50 50 54 53 54 57 60 62 63 61 61 61 60 59 59
52 50 50 49 49 50 51 53 54 54 53 52 52 53 53 51 51 51 52 54 54 48 46 51 45 46 47 48 49 50 50 51 53 54 56 56 55 56 57 58 58 57 56
47 48 47 47 47 47 48 49 49 50 50 50 50 50 49 49 49 49 50 51 50 48 47 44 42 42 45 46 46 46 46 47 50 54 55 54 52 52 53 53 53 52 52
45 45 45 45 45 45 46 47 47 48 48 48 47 47 45 46 46 47 47 47 45 45 44 40 40 40 41 43 45 44 44 43 44 49 51 51 51 51 51 50 50 51 51
44 44 43 43 43 43 44 44 44 44 44 43 44 44 43 45 43 44 43 41 41 41 42 41 38 38 38 41 42 42 42 44 43 46 48 49 49 49 49 50 50 50 50
43 43 43 42 41 41 42 42 43 43 43 43 43 42 42 42 41 40 40 39 40 42 42 42 38 40 40 41 42 42 41 42 43 44 45 45 46 47 48 49 49 49 50
44 44 44 43 40 40 41 41 41 41 41 40 40 41 41 41 40 38 38 37 39 41 41 42 40 39 39 38 38 37 40 40 39 41 42 42 43 44 45 46 46 45 46
43 44 43 43 42 41 41 40 40 40 40 39 38 40 40 43 44 43 41 40 39 39 39 38 38 39 38 38 36 38 38 39 39 38 40 42 42 43 44 42 41 42 43
41 41 41 41 41 41 41 40 38 37 36 35 34 34 37 38 39 42 41 41 42 37 35 36 34 35 35 36 37 36 36 36 35 38 38 40 41 41 42 42 40 41 43
39 38 39 39 39 41 41 40 37 33 31 31 32 34 35 37 37 37 37 37 38 40 38 37 35 35 34 36 33 33 34 34 35 38 36 36 38 38 41 40 39 41 43
35 35 35 36 37 40 41 39 35 31 30 31 32 35 36 37 37 36 36 34 35 36 37 37 37 36 36 37 37 34 33 34 36 36 36 31 36 36 39 39 37 39 41
33 31 32 32 33 37 40 38 34 33 33 33 35 36 37 37 40 38 35 32 33 34 36 37 37 37 38 37 38 36 33 32 31 33 34 32 33 32 35 36 38 38 40
30 32 31 31 37 34 40 39 35 35 34 35 35 35 37 39 39 39 35 33 32 33 33 33 35 34 34 34 35 35 33 29 29 30 33 30 31 31 29 35 36 38 39

GFSMA_sfc_temp_072.txt.gz
Temp
81 82 82 82 82 82 82 82 81 82 81 81 81 81 81 81 82 82 82 67 67 70 72 74 75 74 73 72 71 71 70 69 69 69 69 69 69 69 70 70 70 70 70
81 80 80 80 81 81 82 82 81 81 81 81 80 81 81 82 81 81 80 80 67 68 70 72 74 75 75 73 73 72 70 70 69 69 69 69 69 68 69 69 69 69 69
80 79 80 80 81 82 81 81 80 80 79 80 79 81 81 82 81 81 80 79 78 65 67 71 73 74 74 75 74 73 71 70 69 69 69 69 68 68 69 68 68 68 68
81 80 79 80 81 81 80 80 79 78 79 79 79 81 81 81 81 81 81 80 78 78 71 68 70 72 73 74 74 74 73 71 70 69 69 69 68 68 68 68 68 68 68
81 80 80 80 81 80 79 79 79 78 78 79 78 79 79 79 80 80 79 79 79 77 78 71 66 66 68 71 73 74 74 72 70 69 69 69 68 68 68 68 68 67 68
81 80 80 80 81 79 78 79 77 79 77 77 76 75 78 78 78 78 79 80 80 78 77 76 76 74 64 67 70 73 74 73 71 70 69 69 69 68 68 68 68 67 67
80 78 78 79 78 76 78 78 77 74 74 76 72 73 75 76 76 78 79 79 78 77 75 75 75 76 75 66 67 69 71 73 72 70 70 69 69 68 68 68 68 68 68
77 76 75 75 76 74 74 74 73 71 72 74 68 66 64 73 77 76 77 76 77 77 75 74 74 74 74 74 72 66 67 70 72 72 70 69 69 69 68 68 68 68 68
69 68 68 68 68 68 67 68 68 66 63 68 67 66 63 64 69 74 74 76 75 75 74 72 71 72 72 72 68 65 62 64 67 70 71 71 69 68 68 68 68 68 68
68 67 67 69 70 70 68 67 68 66 64 63 63 64 66 65 60 60 67 72 72 72 72 73 71 70 70 70 65 61 60 61 64 66 69 70 70 68 68 68 68 67 67
65 65 66 66 67 67 68 67 66 65 63 62 62 62 63 63 61 56 54 60 67 68 72 72 70 69 68 67 65 62 57 59 62 65 67 69 70 70 68 65 64 66 67
65 62 62 63 64 64 64 63 62 64 63 63 63 62 61 60 61 58 54 56 59 61 63 68 65 64 63 62 59 54 55 56 59 61 64 66 68 68 67 66 65 66 65
63 62 60 61 61 61 62 64 63 62 62 61 62 61 61 60 61 58 56 55 55 59 59 60 60 60 59 60 58 52 55 54 55 58 61 63 64 64 64 63 65 66 66
61 59 59 59 59 59 61 62 63 63 60 58 58 58 58 56 58 58 59 56 52 54 56 61 56 56 56 54 53 52 56 53 55 56 57 58 59 59 60 63 63 64 62
58 58 57 57 57 57 58 59 61 61 59 55 54 55 53 53 54 56 56 57 55 51 55 55 52 51 51 53 49 52 51 50 53 55 56 55 55 56 57 59 59 59 57
55 55 55 55 55 55 56 57 57 57 58 56 54 55 55 56 55 55 55 54 53 51 50 50 46 46 47 51 49 50 49 47 49 52 54 53 53 53 54 55 55 55 55
53 53 53 53 53 53 54 55 54 55 54 53 53 52 51 53 52 52 52 52 51 49 47 43 44 44 45 49 49 50 48 47 48 50 51 51 52 52 52 52 52 52 52
51 51 51 51 51 51 52 52 51 51 51 50 51 51 49 50 48 49 49 47 45 45 45 45 42 42 41 46 47 47 48 49 48 47 48 49 50 50 50 51 50 50 50
50 50 50 49 49 48 49 49 50 50 50 49 49 48 47 47 45 46 46 46 46 48 48 47 43 45 44 45 45 47 46 47 48 45 46 46 47 48 49 49 49 50 50
48 48 48 48 46 46 46 47 47 47 46 45 45 45 45 44 44 43 43 43 45 47 48 47 44 41 42 43 42 43 47 49 46 48 46 44 44 44 45 45 45 45 46
46 46 46 45 45 46 45 44 45 45 45 44 43 44 43 44 43 44 46 44 45 45 45 44 44 44 44 44 41 44 43 44 47 45 46 48 47 48 48 46 44 43 43
43 44 44 44 43 43 42 42 44 43 42 40 39 40 42 42 42 42 41 41 42 42 40 40 41 41 41 42 43 40 39 39 38 45 42 44 46 45 47 47 43 42 43
42 42 43 43 43 43 42 40 40 38 36 36 37 39 40 42 42 42 40 39 40 40 39 42 41 40 39 39 36 35 37 37 38 42 40 40 44 43 46 45 41 40 42
39 41 42 42 42 42 41 39 37 35 34 35 38 41 42 42 42 41 41 39 40 40 40 41 41 41 41 41 40 38 37 38 40 41 40 34 42 40 43 45 40 39 40
39 38 39 38 38 41 40 39 39 40 39 39 40 42 42 42 40 38 39 36 39 39 38 37 37 37 37 37 39 40 36 34 35 38 39 35 38 36 39 40 42 39 40
34 38 36 38 40 42 40 39 39 41 40 40 41 41 37 40 39 39 39 39 37 38 38 38 40 39 38 38 36 39 37 31 32 33 36 32 33 34 32 40 39 41 42

GFSMA_sfc_temp_075.txt.gz
Temp
83 83 83 83 83 83 83 82 82 82 82 83 83 82 82 82 82 82 81 68 69 71 72 74 75 75 74 73 72 71 70 70 69 69 69 69 69 69 70 70 70 70 70
82 81 81 81 82 82 83 82 82 81 81 82 81 82 82 82 82 81 81 79 68 69 71 73 74 75 75 75 73 72 71 70 70 69 69 69 69 69 69 69 69 69 69
82 81 81 81 82 83 82 82 82 81 80 81 80 81 82 82 82 82 81 80 77 66 69 72 73 74 74 75 75 74 72 71 70 70 69 69 69 68 69 69 68 68 69
82 81 80 81 82 82 81 80 80 79 79 79 80 81 82 81 81 81 81 81 78 78 70 69 71 72 73 74 75 75 74 72 71 70 69 69 69 69 69 69 68 68 68
83 81 81 81 82 81 80 80 79 79 78 77 77 79 79 78 79 80 80 79 79 78 77 72 67 67 69 71 73 75 75 73 71 70 70 69 69 69 69 69 68 68 68
83 81 81 81 81 80 79 79 78 78 76 76 76 76 76 77 78 78 78 79 79 79 78 76 74 72 65 68 70 72 74 74 72 71 70 70 69 69 69 69 69 68 68
82 80 79 80 79 77 78 78 76 74 73 74 70 71 73 75 76 76 77 78 78 77 76 74 74 74 73 66 68 69 71 71 72 72 70 70 70 70 69 69 69 69 68
79 77 76 75 75 73 74 74 72 69 69 71 65 65 63 70 75 76 75 76 76 76 74 74 73 72 71 71 67 66 66 67 70 71 71 70 69 70 70 70 69 69 69
71 70 68 67 67 66 66 66 66 65 63 67 69 65 62 62 67 72 72 74 74 73 73 72 71 71 70 69 67 65 61 62 64 67 69 70 70 69 68 69 69 69 69
70 69 69 69 69 69 68 68 68 66 65 64 67 67 67 65 59 60 69 69 71 71 70 70 71 69 69 67 63 57 58 59 62 65 67 68 70 70 70 68 68 69 68
67 66 67 67 67 67 68 67 67 66 65 62 63 64 64 63 61 57 55 59 66 67 69 70 69 67 65 63 60 57 56 58 60 62 64 66 68 69 70 70 68 64 64
66 64 64 65 65 65 65 65 65 63 63 62 62 63 61 61 57 56 55 58 58 58 60 65 64 62 60 60 55 55 56 56 58 60 62 64 65 65 67 66 67 66 65
65 64 62 62 62 62 62 63 63 64 63 62 62 62 63 62 62 58 56 55 54 57 59 60 59 58 58 57 54 52 53 54 56 58 60 62 61 61 62 63 65 65 64
62 62 61 60 61 61 61 62 62 63 61 59 57 56 56 55 56 57 56 55 52 56 57 56 55 54 54 52 51 53 53 53 55 57 58 58 58 58 59 60 63 65 65
60 59 59 58 58 58 58 59 60 61 59 58 55 54 53 53 53 54 55 56 55 51 52 51 51 51 50 51 48 51 50 51 53 55 56 55 55 56 57 58 60 62 59
57 57 57 57 57 57 57 57 57 58 58 56 55 56 55 55 55 55 55 55 54 52 49 49 46 46 48 51 49 50 49 48 50 53 53 53 53 53 54 56 57 57 57
55 55 55 55 55 54 55 56 56 56 55 54 54 53 51 53 53 53 52 52 51 50 47 43 44 44 45 47 49 50 49 48 48 49 51 51 52 52 53 53 53 54 54
54 53 53 53 53 52 53 54 52 53 52 51 52 52 50 51 49 50 49 47 46 46 45 45 43 42 41 44 46 46 48 50 48 47 48 49 49 51 51 51 51 52 52
52 52 52 51 51 50 50 51 52 52 51 50 50 49 48 49 46 46 45 45 46 48 47 45 41 44 43 44 43 46 45 46 49 47 48 47 47 48 49 50 50 50 50
50 50 50 50 48 48 49 49 50 49 48 47 46 46 46 45 44 44 43 43 44 45 46 46 42 41 41 43 42 41 43 45 43 48 47 45 45 45 46 46 46 45 46
48 48 47 47 47 47 47 46 47 47 46 44 44 43 42 43 43 43 44 42 43 42 42 41 41 41 40 40 38 40 37 39 41 40 39 42 41 42 43 46 45 45 45
45 45 45 44 44 44 43 44 46 44 43 41 39 40 42 42 42 42 42 42 42 38 37 35 36 36 37 37 38 35 34 33 32 39 35 36 40 37 40 40 43 42 43
43 42 44 43 43 43 42 42 42 38 36 36 37 38 40 42 42 42 41 41 40 41 40 39 36 36 36 36 33 32 33 32 32 36 34 32 37 35 38 43 42 41 42
40 41 43 43 42 42 41 41 39 35 34 35 38 41 42 42 40 40 39 37 38 39 39 41 38 37 37 38 37 35 33 33 35 36 35 28 35 33 36 37 41 40 41
38 39 40 39 39 39 41 40 40 40 39 38 40 41 41 41 40 39 38 35 37 36 39 38 38 38 38 38 38 35 31 30 29 32 33 30 32 30 33 33 36 40 40
35 38 37 38 41 41 41 40 39 40 39 38 39 39 38 39 40 40 37 36 34 35 35 35 36 36 36 36 37 34 32 26 28 28 31 28 30 28 25 33 33 34 35

GFSMA_sfc_temp_078.txt.gz
Temp
70 71 70 70 69 69 69 69 70 70 70 71 71 71 71 70 70 69 68 66 70 72 74 74 75 75 75 73 72 71 70 70 69 69 69 69 69 69 69 70 70 70 70
71 70 70 70 69 69 70 70 70 70 70 70 71 71 71 70 71 71 70 66 68 70 72 73 74 75 75 75 74 73 72 71 70 69 69 69 69 69 69 69 69 69 69
72 71 69 69 70 70 72 70 71 70 69 71 69 71 71 71 71 70 71 70 67 66 69 73 74 74 74 75 75 75 73 72 71 70 70 69 69 69 68 69 68 68 69
73 71 70 70 71 71 70 69 69 68 68 68 68 69 71 74 72 71 71 70 69 70 67 70 71 73 73 74 75 75 74 72 71 71 70 69 69 69 69 69 69 68 68
75 72 71 71 72 70 69 70 69 68 67 71 72 72 72 69 70 73 70 70 70 69 69 68 66 67 69 71 73 74 74 73 72 71 70 70 69 69 69 69 69 68 68
77 74 71 71 71 69 68 68 68 71 71 70 71 69 67 67 67 67 68 71 69 70 70 69 63 63 65 68 70 72 73 73 73 72 70 70 70 70 69 69 69 69 69
77 75 74 74 73 72 71 69 67 65 64 65 63 63 63 66 66 67 67 67 67 70 67 66 64 63 64 66 67 69 69 70 70 71 71 70 69 70 70 70 69 69 69
71 70 68 68 68 67 67 68 66 65 66 67 63 62 57 60 64 66 65 67 66 66 66 65 64 63 61 60 61 62 63 65 67 68 69 69 69 69 70 70 70 70 69
66 65 66 66 65 65 64 64 64 63 62 63 65 62 56 53 57 62 63 63 64 63 62 64 65 63 61 58 55 55 59 61 64 66 67 68 69 70 69 69 70 69 69
63 63 63 62 61 62 61 62 65 62 61 59 60 62 61 59 54 53 58 59 61 62 63 64 64 63 58 56 55 56 57 59 62 64 66 67 68 69 70 70 70 69 65
60 60 60 60 59 59 59 59 59 58 58 57 56 59 61 58 57 54 51 54 58 60 61 62 60 57 56 53 51 54 57 58 61 62 64 65 66 67 68 68 68 69 66
58 58 59 58 58 58 57 57 57 57 56 58 59 59 59 57 56 55 54 55 55 57 58 58 57 56 55 50 53 54 55 56 58 60 62 64 63 63 64 65 66 67 66
56 55 56 55 55 56 56 56 56 56 56 57 58 57 57 58 58 57 54 53 53 54 55 53 49 49 52 47 47 52 53 54 56 59 61 61 61 60 61 62 64 65 66
53 54 54 54 54 55 55 55 54 55 57 56 55 54 53 53 54 55 55 54 51 51 51 47 48 49 47 47 49 52 51 53 55 58 59 58 57 57 59 61 62 63 65
55 52 52 52 52 52 53 53 52 53 53 55 54 53 51 52 52 53 53 53 52 48 46 43 43 45 44 45 48 49 47 51 53 54 55 55 55 55 57 59 59 60 62
51 51 50 50 50 50 51 51 50 51 52 52 52 51 49 52 52 51 51 50 51 47 45 42 43 41 44 48 49 48 46 49 51 52 53 53 53 54 55 55 57 58 58
49 49 49 49 49 48 48 48 48 49 49 52 50 48 49 51 49 48 49 49 47 46 43 40 42 41 42 43 46 47 47 42 43 49 51 51 52 52 53 53 54 54 55
48 47 47 47 47 47 46 46 47 47 46 45 46 48 46 48 44 45 43 41 41 41 43 43 41 39 39 43 44 44 46 46 43 48 49 49 50 51 51 51 52 52 52
47 47 46 45 45 45 45 45 46 45 44 43 43 43 42 42 40 39 39 42 43 44 44 41 39 42 41 41 36 39 40 39 45 48 48 48 48 48 49 48 49 49 50
45 45 45 45 44 44 44 44 45 42 42 43 43 42 40 39 41 38 39 38 40 38 39 43 40 39 39 37 35 34 34 37 36 43 45 45 46 47 47 47 46 46 46
44 44 45 46 46 46 46 44 45 44 43 41 39 39 39 41 44 42 38 36 36 35 34 32 32 33 31 31 31 32 29 30 32 33 32 33 35 35 38 43 43 44 45
41 42 43 43 42 44 44 45 45 41 39 37 35 36 37 40 41 43 43 43 40 32 31 27 24 29 29 28 28 28 25 27 24 30 29 29 32 32 33 34 44 43 43
41 41 42 42 41 41 43 44 42 35 33 33 32 34 37 40 39 37 41 42 41 42 40 32 29 28 27 29 28 27 27 25 25 29 29 27 30 30 32 38 42 42 42
39 39 40 41 38 39 42 42 40 32 31 31 33 36 36 36 37 36 34 33 33 32 34 36 30 29 30 30 30 30 27 28 29 30 29 21 28 28 30 31 42 42 42
37 37 37 35 33 35 42 42 38 34 33 33 36 36 37 35 41 40 33 32 31 32 39 39 38 39 39 39 37 29 24 23 23 27 28 26 26 25 28 29 32 42 42
34 36 35 33 38 34 41 41 39 36 34 33 34 35 40 37 40 40 33 31 29 29 30 30 30 32 35 33 37 29 25 16 19 21 26 21 22 23 19 27 28 30 30

GFSMA_sfc_temp_081.txt.gz
Temp
66 66 65 64 64 64 63 63 64 65 65 67 68 67 67 67 66 67 64 65 70 73 75 75 75 75 75 73 73 72 71 70 70 69 69 69 69 69 69 69 70 70 69
67 67 66 66 65 65 66 66 66 67 67 66 68 68 68 67 67 67 66 65 68 70 73 74 75 75 75 75 75 73 72 71 70 70 69 69 69 69 69 69 69 69 69
69 68 67 66 66 66 68 67 67 67 66 68 66 68 68 68 68 67 68 67 66 66 69 74 74 75 75 75 74 74 73 72 71 70 70 69 69 69 68 69 69 68 69
71 68 67 66 68 67 67 66 66 65 65 65 65 66 69 71 72 68 69 68 66 70 67 70 72 73 74 74 74 75 74 72 71 71 70 70 69 69 69 69 69 68 68
72 69 68 68 69 67 67 67 66 65 64 66 69 70 70 69 67 70 67 67 67 68 66 67 66 67 69 71 73 73 73 73 72 71 70 70 70 69 69 69 69 68 69
75 73 70 69 69 67 66 65 65 67 69 69 69 67 65 65 65 64 65 67 67 67 68 67 66 64 65 68 69 71 71 71 70 71 70 70 70 70 70 70 69 69 69
75 73 72 72 71 70 70 69 68 67 65 64 64 63 62 63 63 63 64 64 66 65 63 62 61 60 61 64 65 65 67 68 68 68 69 69 69 69 70 70 70 70 69
67 67 66 67 67 67 67 66 66 65 65 66 63 62 58 59 61 62 61 63 66 65 63 63 61 60 57 57 57 60 62 64 66 67 68 68 69 70 69 69 70 70 70
64 63 64 65 65 65 64 64 64 63 61 63 65 61 57 53 55 59 61 61 61 60 61 62 62 61 55 53 53 54 59 61 64 66 67 68 68 69 70 70 69 69 69
61 61 61 61 60 59 58 58 60 59 58 57 58 60 59 59 55 54 56 57 58 62 58 60 59 57 56 54 54 56 58 60 63 64 66 67 67 68 69 69 69 69 68
59 59 59 58 57 57 57 57 57 57 56 55 55 55 55 56 56 54 51 53 55 56 56 55 57 56 54 53 50 53 56 58 60 62 64 65 65 65 65 66 67 67 68
55 56 57 55 55 55 55 54 54 55 55 55 55 54 54 54 53 52 51 52 52 54 54 55 54 53 52 50 52 53 54 56 58 61 63 64 63 62 62 64 65 66 67
53 53 53 53 53 54 54 54 53 53 54 54 54 54 57 55 56 56 54 52 54 54 52 50 46 48 48 45 48 50 53 55 57 61 62 61 59 59 61 63 64 65 66
52 53 52 52 52 52 52 52 51 52 53 53 55 54 54 52 53 54 55 53 51 51 49 47 46 44 45 47 49 51 49 54 55 57 58 58 57 57 59 60 61 62 63
53 51 51 50 50 50 50 50 49 50 51 51 51 53 52 52 52 52 51 53 52 48 48 44 43 44 43 45 47 48 46 51 53 54 54 54 55 55 56 57 59 59 60
50 49 48 48 48 48 48 47 47 49 49 49 49 52 51 50 50 50 50 50 49 49 46 43 42 43 45 47 48 47 45 47 51 52 52 52 53 54 54 54 55 56 58
47 47 47 46 46 46 46 45 46 47 47 48 50 49 48 48 48 45 45 47 47 47 45 41 42 42 41 40 44 46 46 41 43 49 50 51 52 52 52 52 53 54 54
47 46 46 45 45 44 44 43 44 45 44 44 46 47 46 47 44 45 44 43 43 40 44 41 41 39 40 43 43 40 43 44 40 48 49 49 49 50 50 51 51 51 52
45 45 44 43 43 43 43 43 43 42 41 41 42 44 42 40 38 38 38 40 39 42 42 41 38 41 41 39 36 37 38 37 43 47 48 48 49 49 49 48 48 48 49
43 43 43 43 42 42 43 43 42 40 40 40 40 39 38 38 38 36 36 36 38 37 38 41 40 39 37 35 34 32 32 33 33 40 42 44 46 46 48 47 46 45 46
42 42 42 43 43 45 46 44 45 42 41 40 40 40 40 42 44 42 37 35 35 34 34 31 31 32 31 30 30 30 28 28 29 30 30 31 32 32 35 40 42 44 45
39 40 40 41 42 44 44 46 44 42 40 37 34 36 37 40 42 44 44 43 39 33 31 27 24 28 28 28 28 28 24 26 23 29 28 29 30 29 31 32 44 43 43
38 39 41 42 41 41 44 45 43 37 35 33 31 33 36 40 38 37 41 41 42 43 39 32 29 28 27 29 28 26 26 24 24 28 28 26 28 29 30 36 43 43 42
36 38 40 40 38 39 43 42 40 32 30 31 33 35 36 35 37 36 34 33 32 33 33 35 30 29 30 30 30 29 26 27 28 28 27 21 26 27 28 30 42 42 42
35 37 38 36 34 34 42 42 35 31 31 32 35 36 36 35 41 41 34 32 31 32 40 40 39 39 39 39 36 29 24 22 22 25 27 25 24 23 26 28 31 40 41
32 36 35 35 37 33 42 43 37 33 31 32 34 36 40 37 41 41 32 30 29 29 30 30 31 33 34 34 37 29 26 16 17 19 26 20 22 21 18 26 27 28 29

GFSMA_sfc_temp_084.txt.gz
Temp
64 63 63 63 62 63 62 62 62 63 63 63 64 64 65 64 64 65 63 65 69 73 75 76 76 75 75 74 73 72 71 70 70 69 69 69 68 69 69 69 69 69 69
64 63 63 62 62 62 62 62 62 63 63 64 65 65 65 65 65 65 65 64 67 70 73 75 75 76 75 75 75 73 72 71 71 70 69 69 69 69 69 69 68 69 69
67 65 64 63 63 63 64 64 64 64 64 65 64 66 66 66 65 65 66 65 65 65 69 74 75 75 74 75 75 74 74 72 71 71 70 69 69 69 68 69 68 68 69
69 66 65 65 65 64 64 64 64 64 63 63 63 65 65 70 70 70 69 69 67 68 67 69 72 74 74 74 74 74 74 72 71 70 70 70 69 69 69 69 69 68 68
70 68 67 66 67 65 64 65 65 64 63 65 67 69 69 68 67 68 65 66 65 67 66 66 67 67 69 70 72 72 72 71 70 70 70 70 70 69 69 69 69 69 69
72 69 68 68 67 65 64 64 64 64 67 67 68 67 67 67 64 63 64 65 64 65 64 67 62 62 65 68 69 69 69 69 68 68 69 69 69 69 70 70 69 69 69
73 69 71 70 70 69 69 68 68 67 64 65 64 63 61 62 62 62 61 61 62 66 65 60 59 59 61 64 65 65 66 67 67 68 68 68 69 69 69 69 70 69 70
69 68 66 65 66 66 67 66 66 65 65 66 63 61 55 58 60 60 59 60 60 62 64 63 61 60 56 55 57 61 63 65 66 67 67 68 68 69 70 69 69 68 69
64 64 63 63 63 63 62 61 62 62 60 60 60 59 55 52 54 58 58 59 59 61 62 61 59 56 54 54 55 56 60 62 64 66 67 68 67 68 69 69 70 70 69
61 61 61 60 62 60 58 57 58 58 57 56 57 58 57 59 55 52 56 56 57 60 59 58 56 55 54 54 55 56 58 60 62 63 65 66 66 67 67 68 68 68 68
59 59 59 58 57 57 56 56 56 55 55 55 54 53 53 53 53 52 53 52 53 53 53 56 55 53 54 53 52 54 57 59 61 63 64 65 65 64 64 65 65 66 67
56 55 56 55 54 54 53 53 53 53 53 53 53 53 52 52 51 51 52 52 51 51 52 53 52 50 50 49 52 54 55 57 60 64 64 63 62 61 62 64 64 64 66
53 53 53 52 51 52 53 52 51 51 51 52 52 52 53 53 54 53 51 51 53 52 50 49 48 48 49 45 47 50 54 56 58 60 61 61 59 59 61 63 63 63 63
53 53 52 52 51 51 50 50 49 49 50 50 51 51 51 51 53 54 53 53 49 51 50 45 45 44 46 44 48 50 47 54 56 57 58 57 57 57 58 59 60 61 62
53 52 51 50 49 49 49 48 47 48 49 49 49 49 49 52 52 52 52 51 52 47 48 44 43 45 42 43 46 44 44 51 53 54 54 54 54 55 55 56 57 57 59
51 50 50 50 49 48 46 46 46 47 47 47 48 48 48 50 50 50 50 51 50 49 45 45 42 43 45 47 48 43 44 46 51 52 52 52 53 53 53 53 54 55 56
49 49 49 47 46 46 44 44 44 45 45 46 46 46 48 49 47 44 44 47 46 47 45 41 42 42 42 42 42 46 42 40 40 50 50 50 51 52 52 52 52 53 54
47 47 46 45 44 43 43 42 43 43 43 43 44 48 46 46 45 45 44 43 44 43 44 41 40 39 40 42 42 38 41 43 39 48 50 50 49 50 50 50 49 50 51
45 44 44 43 43 42 42 42 42 41 40 40 41 45 43 43 41 41 41 41 40 42 43 41 38 41 41 39 36 36 36 35 41 45 46 47 48 49 49 48 48 48 48
42 41 42 42 42 41 41 41 40 39 38 38 39 38 39 38 38 37 37 37 39 38 39 41 39 39 38 34 33 32 32 32 32 38 40 42 44 45 47 46 46 45 46
41 41 40 41 41 42 43 43 44 43 42 39 40 40 40 42 43 42 37 35 36 35 34 31 31 32 31 31 30 30 29 28 29 29 29 30 30 30 33 38 41 44 45
39 39 39 39 39 44 45 46 45 42 40 38 36 37 38 39 42 45 44 43 39 34 33 31 26 30 29 29 29 28 25 26 24 29 28 28 29 29 30 32 44 44 43
37 37 38 41 41 42 44 46 45 39 36 35 33 32 35 39 38 36 41 41 42 42 39 33 31 30 29 30 28 27 26 25 24 28 27 26 27 28 29 34 43 43 43
35 36 37 39 39 40 44 44 42 35 34 33 30 32 33 34 35 35 34 33 32 33 34 35 32 31 30 30 31 29 27 27 27 28 27 20 25 27 27 29 41 43 43
34 34 35 37 36 37 43 42 37 32 31 31 33 34 35 35 41 40 34 32 32 33 40 39 38 39 39 39 34 29 25 23 23 26 27 25 24 23 25 27 30 39 40
33 32 35 36 38 35 42 43 37 31 29 31 32 35 41 38 42 41 33 32 30 31 31 31 31 33 33 34 37 30 26 17 19 22 26 21 21 20 18 25 26 27 28

GFSMA_sfc_temp_087.txt.gz
Temp
63 63 62 62 61 61 62 61 62 62 62 62 63 62 62 62 62 63 62 64 68 72 75 76 76 75 75 74 73 73 71 71 70 70 69 69 68 69 69 69 69 69 69
63 63 62 62 61 61 62 61 61 62 62 62 63 63 63 63 63 63 63 63 66 68 72 75 76 76 76 75 74 74 72 71 71 71 70 69 69 69 69 69 68 68 69
64 64 62 61 61 61 61 60 61 62 61 63 62 64 64 64 64 64 65 68 66 65 68 73 75 76 74 75 74 74 73 72 71 71 70 70 69 69 69 69 68 68 68
66 64 63 63 64 63 62 61 62 61 61 62 62 64 64 67 68 70 68 68 68 68 66 68 72 74 73 73 73 73 72 70 70 71 70 70 70 69 69 69 69 68 68
69 67 65 65 65 63 63 63 63 62 62 63 64 68 67 68 69 68 64 65 65 64 64 66 66 68 69 71 72 72 70 69 69 69 69 69 69 70 70 69 69 69 68
70 68 67 66 66 64 63 63 63 64 65 65 67 67 67 67 66 63 62 63 62 63 63 63 62 62 66 69 69 69 69 69 68 68 68 69 69 69 69 70 70 69 69
70 69 67 67 66 66 65 67 67 66 65 64 61 61 60 62 61 60 59 58 59 62 61 60 59 61 63 65 66 66 67 67 68 68 68 68 69 69 69 70 69 69 70
70 69 67 66 65 65 67 66 65 65 64 63 60 59 54 57 58 59 58 58 57 59 60 62 60 58 56 56 58 62 64 65 66 67 68 68 68 68 69 69 70 69 67
65 65 64 64 63 63 63 62 60 60 58 58 59 59 55 51 53 58 57 56 57 56 59 59 58 56 54 55 54 56 60 63 64 65 66 66 67 67 68 68 68 68 68
61 62 62 61 60 59 58 57 57 57 57 56 56 56 55 57 54 51 54 54 54 57 56 56 55 54 53 54 55 56 58 61 63 64 65 66 66 66 66 66 67 67 68
59 60 59 58 58 57 56 55 54 54 54 54 54 52 52 52 52 53 54 51 52 50 51 51 53 51 53 52 52 54 57 60 63 65 65 65 64 64 64 64 65 65 65
57 57 57 56 55 55 54 53 53 52 52 52 52 52 52 50 50 48 49 49 49 50 52 52 51 49 49 50 52 53 56 58 61 63 64 63 62 62 63 64 64 64 64
54 54 54 53 52 53 52 52 51 50 50 50 51 51 51 51 53 52 51 50 49 48 49 47 48 48 49 48 49 50 53 56 58 61 62 61 59 58 60 61 62 62 63
54 53 52 51 51 51 50 50 49 48 49 49 49 50 50 50 50 51 53 52 50 49 48 45 45 46 47 47 49 49 45 55 56 57 57 57 56 56 56 58 58 59 60
53 49 50 50 50 50 49 49 47 47 48 48 48 49 48 49 49 50 52 51 51 49 48 44 43 45 45 46 47 46 43 51 53 54 54 54 54 54 55 55 56 56 57
51 50 49 49 49 49 48 45 45 45 46 46 47 47 47 47 47 48 49 50 50 49 47 45 42 43 45 47 47 45 44 46 50 52 52 52 53 53 53 53 53 54 55
50 50 49 48 47 45 44 43 44 44 44 44 45 45 45 45 45 47 46 47 47 47 45 41 42 42 42 43 45 44 41 39 40 50 51 50 51 51 51 51 51 52 53
49 48 47 46 44 43 42 42 42 42 42 42 43 44 46 47 45 44 45 45 44 44 45 41 40 39 40 42 42 39 40 42 38 48 49 50 50 50 49 49 49 49 50
47 46 45 43 43 42 41 41 41 41 40 40 40 41 43 44 42 41 42 42 42 43 43 42 39 41 40 40 37 36 35 35 40 43 46 46 47 49 48 48 47 47 48
45 44 41 41 41 40 40 40 40 38 38 38 38 38 40 40 40 39 39 38 40 40 41 41 39 38 38 36 34 33 33 32 32 37 39 41 42 44 45 45 45 45 46
40 40 40 40 40 41 42 40 41 42 42 41 40 40 41 42 43 42 39 37 36 35 35 37 36 35 32 32 32 31 30 29 29 29 30 31 30 31 33 37 41 44 45
38 38 38 39 38 42 46 46 46 42 41 39 37 38 39 40 43 45 44 43 40 35 34 31 29 32 30 30 30 30 27 27 26 29 28 29 29 29 30 32 44 44 44
36 37 37 38 38 39 45 45 46 40 37 36 36 35 35 38 36 34 41 41 42 42 39 33 31 30 30 31 29 28 28 26 25 28 28 27 28 29 29 33 43 43 43
35 35 36 37 36 38 44 45 44 35 34 34 34 34 32 32 34 34 32 32 32 33 33 35 32 31 32 31 32 30 28 28 28 29 27 22 26 27 28 29 41 42 42
34 34 34 34 34 36 43 43 40 35 34 34 35 32 32 32 39 40 33 31 30 33 40 40 39 40 39 38 35 30 27 25 25 26 27 26 25 24 26 28 29 38 41
33 32 34 37 39 36 41 43 38 34 29 30 30 32 40 36 41 41 32 32 30 31 32 32 32 33 33 36 38 30 27 19 19 22 27 22 22 22 20 26 26 27 28

GFSMA_sfc_temp_090.txt.gz
Temp
62 63 62 61 61 61 61 60 61 61 61 62 62 61 61 61 61 61 61 64 67 71 74 76 76 76 75 74 74 73 72 71 71 70 69 69 69 69 69 69 69 69 69
63 63 62 62 61 61 61 61 60 60 61 61 62 62 62 61 62 62 63 63 66 68 71 74 76 76 76 74 75 73 72 72 72 71 70 70 69 69 69 69 68 69 69
64 64 63 62 62 61 61 60 60 60 60 62 61 63 63 63 63 63 66 65 67 65 68 71 75 76 75 74 74 73 72 71 71 71 71 71 70 69 69 69 69 69 68
65 64 63 62 62 61 60 60 60 60 60 61 61 63 63 64 68 69 69 69 67 68 67 68 70 73 73 73 73 72 71 70 69 70 70 70 70 70 70 69 69 69 69
66 65 64 63 64 62 61 62 61 61 61 62 62 64 65 64 68 68 66 64 64 64 63 65 66 68 70 72 72 71 70 69 69 69 69 69 69 69 70 70 69 69 69
68 66 64 64 64 63 62 61 62 63 64 65 65 64 63 63 62 61 60 61 61 62 62 62 61 64 67 70 70 70 69 69 68 68 68 69 69 69 69 69 70 70 70
69 67 66 65 64 64 63 63 64 62 65 62 61 59 59 60 59 57 57 57 58 59 59 58 58 59 61 65 66 67 68 68 68 68 68 68 68 69 69 70 70 69 69
67 66 67 64 64 63 64 66 65 62 60 60 58 56 53 56 56 56 55 56 55 57 57 57 56 58 57 57 59 62 64 66 67 67 68 67 67 68 69 69 68 69 69
67 65 64 64 63 63 62 62 61 60 58 57 58 58 56 50 52 55 54 53 54 54 54 55 55 56 55 55 55 56 60 62 64 66 66 67 67 67 67 68 68 68 68
62 63 63 63 61 60 60 59 58 57 57 55 55 55 54 57 53 50 53 53 52 53 52 52 52 54 53 54 55 57 59 61 64 66 67 67 66 66 66 65 66 66 67
60 60 60 59 58 58 57 57 55 54 54 53 53 52 51 50 51 53 50 49 50 49 49 49 52 52 53 53 52 54 58 61 63 65 66 64 65 65 65 64 65 65 65
57 58 58 57 56 56 55 54 53 53 53 52 51 50 51 50 48 47 49 50 48 48 48 50 51 50 50 49 52 53 56 58 61 63 64 63 62 62 63 63 63 64 64
54 54 54 55 53 52 52 52 51 49 50 49 49 50 50 51 52 53 51 49 48 48 45 46 48 48 49 48 50 50 53 57 58 59 61 60 59 58 59 61 61 62 62
54 54 53 52 52 51 51 50 49 48 48 48 48 48 50 49 50 51 53 51 47 48 47 46 45 46 47 47 49 49 48 54 55 56 57 57 56 56 56 57 57 58 59
54 52 52 50 49 49 50 49 48 47 47 47 47 47 50 48 48 48 49 51 50 47 48 44 44 45 46 46 47 46 44 52 53 54 54 54 54 54 54 54 55 56 57
51 52 50 49 49 49 48 47 45 45 45 45 46 46 46 46 46 46 46 47 49 48 47 45 43 44 44 47 47 45 45 46 51 53 52 52 52 52 52 52 52 53 55
49 50 49 48 48 47 45 44 43 43 43 44 44 44 44 45 44 44 44 46 47 47 45 41 42 43 42 43 44 43 43 40 39 51 51 51 51 51 51 50 50 51 53
48 48 48 47 45 44 44 44 43 43 42 42 42 43 44 47 45 45 44 44 44 44 44 42 40 39 40 42 42 41 42 41 38 47 49 49 50 50 49 49 49 49 50
46 46 46 44 44 42 41 41 41 40 40 39 39 40 41 44 43 42 42 41 42 43 43 42 39 41 40 40 38 38 37 36 40 43 45 46 47 48 47 47 47 47 48
43 42 42 43 41 41 40 40 40 38 38 38 38 38 41 41 41 40 39 39 40 40 41 41 40 38 38 37 37 35 33 33 34 37 39 40 42 43 45 45 45 45 46
41 41 40 40 39 40 42 40 40 39 41 41 41 41 41 42 43 42 40 38 38 38 38 38 37 36 35 34 33 32 31 31 30 29 31 31 32 32 33 37 41 44 45
38 38 38 39 38 41 46 46 44 41 42 40 38 38 39 40 42 45 45 44 41 36 34 31 34 35 31 30 31 31 26 28 26 28 29 30 31 30 31 33 44 45 45
36 36 37 37 37 38 45 46 46 41 38 37 36 36 37 39 36 33 40 39 40 42 40 34 33 31 32 32 30 28 29 27 27 29 29 28 29 29 30 33 43 44 44
35 35 35 36 36 37 44 45 44 36 35 35 35 36 36 32 32 33 31 30 30 31 32 35 33 32 32 31 32 31 29 28 29 30 28 24 27 28 29 30 41 42 43
34 34 34 34 34 35 43 44 40 36 35 35 36 36 34 31 37 41 31 30 29 32 40 40 40 40 39 39 35 31 29 28 26 27 28 27 25 25 27 28 30 39 40
33 33 33 34 37 34 42 44 39 35 34 34 33 32 40 34 40 41 30 29 29 29 31 32 31 32 34 37 38 32 29 22 23 23 27 24 24 23 21 27 27 28 29

GFSMA_sfc_temp_093.txt.gz
Temp
70 70 70 70 70 70 70 71 71 73 73 73 74 74 75 76 76 76 76 65 67 70 73 75 76 76 76 74 75 74 73 72 72 71 70 70 69 69 69 69 69 69 69
71 69 70 69 70 70 70 71 72 73 74 73 73 74 75 76 76 75 77 76 66 68 70 73 75 76 76 75 74 73 72 72 71 71 71 71 70 69 69 69 69 69 69
71 71 71 70 70 72 71 71 70 71 72 72 72 74 75 76 76 77 77 75 72 65 68 72 74 75 76 75 74 73 71 70 70 70 71 72 70 70 70 70 69 69 69
71 71 71 71 72 71 70 70 70 70 70 72 74 75 75 75 77 76 77 74 76 76 70 69 70 72 74 73 74 72 70 70 70 70 70 69 69 70 70 70 70 69 69
72 71 71 71 71 70 70 70 71 71 72 73 73 75 75 75 76 76 76 74 74 74 75 68 65 67 70 72 73 72 70 69 69 69 69 69 69 70 70 70 70 70 69
73 71 72 72 71 70 70 69 71 70 71 72 71 72 74 75 74 73 72 72 72 71 72 71 73 72 67 70 71 71 70 69 69 69 69 69 69 69 70 70 70 69 70
73 72 71 70 70 70 70 71 71 71 70 71 69 71 72 72 71 70 70 70 69 69 69 70 71 71 69 65 67 68 68 69 68 68 68 68 69 69 69 70 69 69 70
70 71 71 70 71 70 70 70 68 69 70 69 67 64 64 69 69 67 68 67 66 67 66 66 67 66 65 61 62 63 65 66 67 67 67 67 68 68 69 68 68 68 68
66 67 65 65 67 66 65 65 65 66 67 65 65 66 62 60 62 66 64 65 65 65 65 64 64 63 61 59 58 59 61 63 66 67 68 68 68 67 67 67 68 68 68
64 64 64 64 62 62 62 60 60 61 63 63 64 62 63 62 60 58 63 62 62 62 62 63 63 60 59 58 57 57 59 62 65 67 68 67 66 66 67 67 67 67 67
61 62 63 62 60 59 58 58 57 58 60 61 61 61 61 61 61 59 56 59 60 59 60 60 61 60 56 55 55 56 59 61 64 65 66 65 65 65 66 65 65 65 65
58 58 59 59 59 57 57 55 55 57 57 58 58 58 59 59 58 57 53 55 56 58 58 59 59 58 55 55 53 54 57 59 61 63 64 63 62 62 63 63 63 64 64
56 55 55 55 55 57 56 56 56 56 55 56 56 57 58 58 58 58 55 55 54 57 55 56 56 55 52 55 55 51 54 57 58 59 61 60 59 58 59 60 61 61 62
57 56 54 54 56 56 55 55 54 54 55 55 55 55 56 56 55 55 55 53 51 54 53 55 51 53 51 51 51 50 51 54 55 56 57 57 56 56 56 57 58 58 59
56 55 55 54 54 55 55 54 53 52 53 52 53 53 54 55 54 54 55 54 51 48 52 50 48 49 50 49 49 49 48 51 54 54 54 54 54 54 54 54 54 55 57
55 54 53 53 52 52 52 52 52 52 52 52 52 52 52 53 52 52 53 53 52 50 48 49 47 47 47 48 48 48 48 47 51 53 52 52 52 52 52 52 52 53 54
54 53 52 52 50 49 49 50 49 50 50 50 50 50 50 51 51 51 51 51 51 51 47 43 44 44 44 46 45 45 44 44 48 51 51 51 51 51 50 50 50 51 52
54 53 52 51 50 49 49 49 48 48 49 48 48 48 49 49 50 49 49 48 48 48 46 45 42 41 42 43 43 42 44 43 44 49 49 49 50 49 49 48 48 49 50
51 51 51 50 49 47 47 47 48 47 47 46 46 46 47 48 47 47 46 45 45 46 45 45 41 42 41 41 39 39 39 40 43 44 45 46 48 47 47 47 47 47 48
48 48 48 47 46 46 45 45 45 44 44 45 45 45 46 46 45 44 42 42 43 42 43 43 41 40 40 39 39 37 36 39 41 41 41 42 43 43 44 45 45 46 47
47 47 45 45 45 45 45 45 45 45 45 45 44 44 44 44 44 44 44 42 41 40 41 40 39 38 37 36 37 37 39 39 39 38 40 39 41 42 41 43 44 45 46
44 44 44 44 44 45 47 47 46 46 45 44 41 42 42 42 44 45 45 44 43 40 38 37 37 37 37 37 39 40 38 37 37 37 38 38 40 39 40 41 45 44 46
42 42 42 43 43 44 46 46 46 44 42 41 40 39 39 41 40 41 41 40 40 42 42 40 40 39 39 40 37 34 33 34 36 36 37 36 38 37 38 39 44 44 44
41 41 42 42 42 42 45 46 44 40 39 38 38 39 39 38 40 39 39 37 38 39 39 40 40 40 40 39 39 37 36 35 34 35 36 33 35 36 37 39 41 42 44
39 39 39 39 39 41 44 45 43 40 40 39 38 38 38 37 39 41 37 35 36 37 41 41 41 40 40 39 38 37 34 34 33 34 35 34 33 33 35 36 38 40 40
36 38 37 39 40 41 42 44 43 40 39 37 37 37 39 39 40 42 37 37 35 36 37 37 36 37 38 40 38 37 35 32 32 31 33 32 31 31 31 34 35 36 38

GFSMA_sfc_temp_096.txt.gz
Temp
79 80 80 80 80 80 80 80 80 80 80 80 81 82 83 84 84 85 85 67 68 70 73 75 76 76 76 74 75 74 73 73 72 72 71 70 70 70 70 70 70 69 69
80 78 79 78 79 79 80 80 80 80 81 82 82 82 83 83 84 83 85 83 67 68 70 73 75 76 76 75 75 73 72 72 71 71 71 72 70 70 70 70 70 69 69
78 76 76 76 78 79 80 80 80 81 80 80 80 81 82 84 83 84 84 84 80 65 67 71 73 75 75 74 75 73 71 71 70 70 70 70 71 70 70 70 70 69 69
77 75 75 78 80 79 79 79 79 78 79 80 81 82 82 83 83 84 83 84 83 83 73 69 70 71 73 74 74 72 71 70 70 70 70 70 70 70 70 70 70 70 69
77 75 76 79 79 79 79 78 78 79 79 79 80 81 82 82 82 83 82 82 81 80 81 72 66 67 69 73 74 72 71 70 69 69 69 69 69 69 70 70 69 70 70
76 75 76 79 80 78 78 78 78 79 79 79 78 78 80 81 81 81 80 80 79 77 78 77 78 76 67 71 72 72 70 69 69 69 69 69 69 69 69 70 70 70 69
78 75 75 77 78 77 78 79 78 76 76 78 76 77 78 80 79 78 79 78 76 76 76 76 78 78 72 66 68 69 69 69 69 68 68 68 68 69 69 69 69 69 69
75 74 73 74 76 76 77 76 75 74 77 77 74 72 69 75 77 75 77 75 75 75 74 73 74 73 72 71 65 63 65 67 68 68 68 68 68 69 69 68 68 68 68
72 70 70 68 70 73 70 68 67 68 69 71 71 70 67 67 69 76 72 74 73 74 73 72 71 70 68 66 64 61 61 63 66 68 68 68 67 67 67 68 68 68 68
67 65 66 65 64 64 64 64 65 66 69 67 70 71 71 70 65 65 71 71 71 70 70 71 71 69 67 65 58 57 60 62 65 67 67 67 66 67 67 66 67 67 66
63 64 64 63 61 60 60 60 60 61 63 64 65 68 69 69 68 64 62 66 68 68 68 68 69 68 65 62 61 58 58 61 64 65 66 65 65 65 66 65 65 64 65
60 61 61 62 61 60 59 59 60 58 58 60 61 62 65 65 64 63 62 61 61 64 64 65 64 65 64 63 56 54 56 58 61 62 64 63 62 62 62 63 63 63 64
59 60 60 61 60 59 59 59 59 59 60 59 58 59 61 61 63 62 60 59 58 62 62 63 63 61 59 59 59 53 54 56 57 59 61 60 59 58 59 60 61 61 62
63 61 60 60 58 59 60 62 61 61 59 59 58 58 60 61 61 61 60 56 53 58 61 60 59 59 58 56 52 51 54 54 56 57 57 57 56 56 56 56 57 57 59
63 61 61 58 57 58 60 62 61 60 61 60 59 59 59 60 59 59 58 57 54 51 55 60 56 54 52 52 50 51 49 51 53 54 54 54 54 54 54 54 54 54 55
61 59 58 60 59 60 60 59 59 59 58 58 58 57 58 59 59 58 57 56 54 51 48 56 54 54 52 50 49 50 48 48 52 53 52 52 52 52 52 51 52 52 53
58 58 58 58 58 56 57 57 56 55 55 55 55 56 55 56 55 54 53 54 54 54 49 53 48 47 47 47 46 47 47 46 47 50 51 51 51 50 50 50 50 51 52
59 58 58 57 56 55 55 55 54 54 54 53 53 54 54 54 54 55 55 54 53 53 48 46 45 43 44 45 45 42 44 45 47 48 49 50 50 49 48 48 48 49 50
60 59 58 57 56 54 55 55 55 54 54 54 54 54 55 54 54 54 53 51 50 50 50 47 45 45 43 43 41 41 41 41 44 44 46 46 48 47 47 47 47 47 48
58 58 58 56 55 54 54 53 53 53 53 53 52 52 52 52 52 51 49 48 47 46 46 46 45 42 42 40 40 38 37 39 40 45 43 44 44 43 45 46 46 46 47
58 57 55 54 54 53 53 52 52 52 52 51 51 51 50 48 45 48 49 49 48 45 44 43 41 40 38 37 37 38 38 39 44 45 44 44 45 45 45 46 46 46 46
54 54 54 53 52 52 48 48 51 52 51 50 48 49 48 45 46 46 45 44 46 46 43 41 40 38 39 39 38 38 42 41 40 43 40 40 42 42 43 44 44 45 46
53 52 52 52 51 52 47 48 47 51 49 48 47 46 45 46 44 46 43 42 42 42 43 44 41 40 39 40 42 41 42 41 41 39 40 40 41 40 43 44 44 44 45
49 49 50 50 50 50 47 47 47 46 45 45 45 46 45 43 42 44 45 43 43 44 44 45 46 48 47 46 45 43 41 41 40 40 40 37 39 39 41 42 41 43 43
49 48 49 48 48 48 46 46 45 47 47 46 46 45 44 42 42 42 42 40 42 42 42 41 41 41 41 41 44 42 38 37 37 38 39 39 37 37 39 39 41 40 40
42 46 45 47 47 48 45 45 45 47 46 45 44 42 41 41 42 43 43 42 40 42 41 41 41 41 42 41 39 42 40 35 36 35 38 36 35 35 34 37 38 40 41

GFSMA_sfc_temp_099.txt.gz
Temp
80 81 81 80 80 81 81 80 81 81 81 82 82 81 82 83 84 84 83 68 70 71 73 74 76 76 76 75 75 75 73 73 72 72 72 71 71 70 70 70 70 70 70
80 79 80 79 79 80 81 81 81 81 81 82 82 83 83 83 84 83 83 78 69 70 71 73 74 76 77 76 75 73 73 72 71 71 71 71 71 71 70 70 70 70 70
80 79 79 78 78 79 80 78 81 81 81 82 81 82 82 84 84 84 84 83 76 67 69 73 74 74 74 76 75 74 72 71 71 70 70 70 70 70 70 70 70 70 70
79 77 77 77 78 78 77 77 79 78 79 80 80 81 82 82 83 84 84 83 82 82 71 71 72 71 72 73 75 74 72 70 70 70 70 70 70 70 70 70 70 70 70
78 77 77 78 79 77 77 78 79 79 78 78 79 80 76 81 82 83 82 81 81 79 78 71 68 68 69 72 75 73 71 70 69 69 69 69 69 69 70 70 70 70 69
77 77 78 78 79 76 75 78 78 79 79 77 76 78 79 80 80 80 80 80 79 77 77 76 76 68 68 70 72 72 71 70 69 69 69 69 69 69 69 70 70 70 69
78 77 76 77 76 76 76 78 78 77 76 78 72 75 77 79 79 77 78 77 76 76 75 75 75 73 68 66 68 70 70 69 69 68 68 68 68 68 69 70 69 68 69
77 76 75 75 75 74 75 76 76 73 73 73 72 72 67 73 75 75 75 75 75 75 74 73 73 71 69 65 63 64 66 67 68 68 68 68 68 68 68 68 68 69 69
74 73 73 72 71 71 67 71 71 69 67 69 70 70 66 65 69 74 73 73 73 73 72 71 70 70 68 63 62 61 61 63 66 68 68 67 67 67 67 68 68 68 68
70 70 71 70 69 67 64 64 64 66 68 66 68 71 71 70 63 63 69 70 70 70 70 70 70 68 67 64 58 58 60 62 65 66 67 67 67 67 67 67 67 66 66
68 68 68 66 65 62 61 60 60 59 60 60 62 63 67 66 67 62 60 65 66 68 68 67 67 67 65 63 61 57 58 61 64 65 66 65 65 65 65 65 65 65 65
64 64 65 64 63 62 60 60 60 60 59 60 61 61 60 60 60 59 59 61 62 64 64 65 64 64 63 61 56 55 57 59 60 62 64 63 62 61 62 62 63 63 63
60 61 62 61 61 61 61 61 60 60 60 60 59 59 59 61 61 61 60 59 59 62 62 63 62 60 59 59 56 53 55 57 58 60 61 61 59 58 59 59 60 60 61
61 63 62 62 62 62 61 61 60 60 61 60 60 60 60 61 62 61 59 57 54 56 59 59 58 58 57 54 51 52 53 54 56 57 57 57 56 56 56 56 56 57 57
63 62 62 61 60 60 60 60 61 60 60 59 59 58 58 59 59 59 58 58 54 50 53 55 53 53 52 52 49 51 50 52 54 54 54 54 54 54 53 53 53 54 55
62 61 60 58 57 57 58 59 59 59 59 58 58 58 58 58 58 58 56 56 55 52 49 53 52 52 51 51 49 50 48 49 52 53 52 52 52 52 51 51 51 52 52
60 59 58 58 57 58 59 57 56 56 56 56 56 57 56 58 56 56 55 54 53 53 48 51 49 48 48 48 47 47 46 46 48 51 51 51 51 50 50 50 50 50 51
60 58 58 57 57 57 57 55 53 53 54 54 53 53 54 55 53 53 53 53 53 52 48 47 46 44 44 45 45 43 44 46 45 47 49 50 49 49 48 48 48 49 49
59 57 57 56 57 56 56 56 55 54 54 54 54 53 53 54 52 53 51 49 49 50 49 47 44 45 44 43 41 41 41 41 44 43 46 47 48 47 47 47 47 47 48
60 58 57 57 55 55 55 55 54 53 52 52 52 52 53 52 51 51 50 48 48 46 47 45 45 43 42 41 41 38 37 39 39 44 43 44 44 44 45 46 47 46 47
60 60 58 57 56 55 55 54 54 54 53 52 52 52 51 50 46 48 50 49 47 45 45 43 42 40 38 37 37 38 37 37 39 41 40 40 39 41 42 45 45 46 47
57 58 56 54 53 55 51 51 53 53 53 52 49 49 48 45 45 46 46 45 45 45 43 42 40 38 38 38 38 37 36 36 36 39 36 36 37 37 39 40 45 45 46
54 54 54 54 53 53 48 49 49 52 50 49 48 47 47 47 46 45 45 44 43 43 42 43 41 40 39 39 37 37 38 37 36 35 35 34 36 36 38 42 43 45 45
52 52 52 52 51 52 48 48 48 47 46 46 46 47 46 45 44 45 45 40 42 42 43 44 43 45 45 43 42 40 38 37 35 35 35 30 34 34 36 37 42 43 43
51 50 51 50 49 49 47 47 47 47 46 46 47 47 47 45 45 44 43 37 40 41 42 42 42 42 43 44 43 37 33 32 31 33 34 33 32 32 34 35 36 41 41
48 48 48 49 49 49 46 47 46 48 47 46 47 45 45 44 44 43 41 39 36 38 38 37 37 38 40 40 41 38 34 31 32 30 33 30 29 30 27 33 35 35 36

GFSMA_sfc_temp_102.txt.gz
Temp
69 72 71 70 69 68 68 68 69 70 71 71 72 71 71 71 72 72 67 67 70 73 74 75 76 76 76 76 75 74 73 72 72 71 71 71 71 71 70 70 70 70 70
69 69 69 69 69 69 70 70 70 69 71 71 72 72 72 71 72 73 70 67 68 70 72 74 75 76 76 77 76 74 73 72 71 71 71 71 70 71 70 70 70 70 70
70 69 68 68 68 70 70 71 70 71 71 72 70 72 72 73 76 76 76 73 68 67 70 74 75 75 74 75 76 74 72 71 71 70 70 70 70 70 70 70 70 70 70
71 69 68 68 69 69 68 68 68 69 69 70 69 70 71 72 73 73 73 75 73 72 67 70 72 73 72 73 75 74 72 71 70 70 70 70 69 70 70 70 70 70 69
72 69 69 69 70 69 68 69 69 69 68 68 70 71 73 74 75 74 71 72 69 68 68 67 68 67 69 71 75 74 72 70 70 69 69 69 69 69 70 70 70 70 70
72 70 70 70 70 69 68 69 69 70 69 68 73 72 72 71 70 68 67 71 68 68 67 68 64 63 67 70 73 72 71 70 69 69 68 68 69 69 69 70 69 69 69
74 71 70 70 70 69 69 70 69 69 67 69 68 67 66 68 67 67 67 65 66 67 66 66 64 63 63 65 69 70 70 70 69 68 68 68 68 69 69 69 69 69 69
70 71 70 69 71 69 69 69 69 66 66 67 63 62 58 62 63 66 65 66 63 65 65 65 64 63 63 62 61 63 66 68 68 69 69 68 68 68 68 69 68 69 69
70 69 68 67 67 67 66 65 65 65 62 63 63 61 57 56 59 63 63 62 62 61 61 63 63 63 61 60 59 59 61 64 67 68 68 67 67 67 68 68 68 67 67
67 67 66 66 65 64 63 63 64 61 62 60 62 64 63 63 57 56 61 62 63 63 60 60 60 61 58 55 57 58 59 62 65 67 67 67 66 66 66 67 67 67 66
65 65 65 64 64 63 62 61 60 60 59 58 57 58 60 61 61 57 55 56 61 61 62 59 58 57 57 55 52 55 59 62 64 65 65 65 65 64 64 64 65 65 65
62 62 63 63 62 61 61 60 60 59 59 58 57 57 58 58 57 57 55 56 56 58 59 57 56 54 55 52 54 55 57 59 61 62 64 63 62 61 61 62 62 63 63
61 61 62 61 61 61 61 61 60 59 58 58 57 58 57 58 58 58 56 55 54 56 55 55 53 52 54 52 50 53 55 57 58 60 61 61 59 58 58 59 59 60 60
61 61 61 61 61 61 60 60 60 59 57 56 56 56 56 56 57 57 55 52 48 50 52 51 50 50 51 51 52 53 52 54 56 57 58 57 56 56 55 55 56 56 57
63 63 62 62 61 61 61 59 58 58 56 55 55 55 54 55 54 54 54 52 50 45 47 47 46 47 47 47 48 49 49 52 54 54 54 54 54 53 53 53 53 53 54
61 60 60 61 60 60 60 58 57 56 56 55 54 53 53 54 53 52 51 52 51 48 45 48 46 46 47 48 49 47 47 49 52 53 53 52 52 51 51 51 51 51 52
59 58 58 56 56 56 56 56 55 55 53 52 53 52 53 53 51 50 50 51 51 51 47 46 44 45 46 44 44 46 46 45 47 51 51 51 50 50 50 50 50 50 51
57 57 56 56 56 56 55 54 53 53 51 51 50 52 52 52 50 49 48 47 47 47 47 45 45 42 43 45 44 42 44 46 45 48 49 49 49 49 48 49 49 49 49
54 55 55 54 54 53 53 52 52 52 50 50 50 49 49 49 47 47 47 46 45 47 46 45 43 43 43 42 41 41 41 41 45 44 46 48 48 47 47 48 48 47 48
53 52 54 54 53 53 53 52 52 51 50 50 50 50 49 49 47 46 45 44 44 42 42 42 42 42 41 41 40 38 37 39 39 44 44 44 45 45 46 47 46 47 47
52 51 53 53 53 52 53 51 52 51 50 49 49 50 48 47 47 48 46 45 45 42 40 40 39 40 38 36 36 38 36 36 38 39 39 35 34 34 37 42 44 46 47
50 50 50 50 50 53 52 52 51 50 50 48 45 45 43 45 45 47 47 46 45 43 41 40 38 38 37 37 38 36 35 34 33 34 31 31 32 31 33 35 45 46 46
47 47 47 48 47 47 50 51 51 47 45 44 43 42 42 44 43 41 45 45 45 45 44 42 39 39 36 38 37 35 35 36 34 30 30 28 31 30 33 38 43 45 45
45 44 45 45 45 46 49 50 49 43 42 42 42 41 41 39 40 40 38 35 36 37 39 40 37 38 39 41 40 39 37 32 30 31 30 24 29 29 31 32 43 43 43
44 44 44 44 43 43 48 48 46 41 41 41 42 42 42 39 43 46 38 35 35 36 42 43 42 44 45 45 40 33 28 27 26 28 29 29 27 27 29 30 33 41 41
42 40 42 43 45 42 47 47 46 43 40 40 42 42 46 40 45 45 38 37 31 32 33 32 33 36 38 40 43 33 29 26 23 23 29 25 24 25 22 29 30 31 32

GFSMA_sfc_temp_105.txt.gz
Temp
69 67 66 68 64 64 63 62 63 64 65 67 69 69 69 69 68 67 65 66 70 73 75 76 76 76 76 76 75 74 73 72 72 71 71 71 71 71 70 70 70 70 70
69 67 67 67 65 65 65 65 64 65 67 68 69 70 71 68 69 68 66 67 68 71 73 75 76 76 75 76 76 74 73 72 71 71 71 70 70 70 70 70 70 70 70
69 68 68 67 67 66 66 65 66 66 66 68 68 69 70 70 70 75 72 71 69 66 70 74 75 75 74 74 76 74 73 71 71 70 70 70 70 70 70 70 70 70 70
69 68 68 66 66 66 66 65 65 65 65 66 67 69 69 71 70 72 69 69 70 69 66 69 72 73 72 73 75 74 72 71 70 70 70 69 69 69 70 70 70 70 70
69 68 66 66 66 66 65 66 65 66 65 66 67 68 69 72 73 74 70 68 66 65 65 66 67 66 69 71 73 74 72 71 70 69 69 69 69 69 69 70 69 69 69
69 67 67 67 67 66 65 65 65 66 66 66 70 70 69 71 70 66 65 67 65 65 64 64 62 62 66 69 72 73 72 70 69 69 68 68 68 69 69 69 69 69 69
70 68 67 67 68 67 66 67 66 66 65 66 64 66 67 68 65 64 63 63 64 64 63 62 61 60 61 64 69 71 70 70 69 69 68 68 68 68 69 69 69 69 69
70 68 68 67 67 66 66 66 66 64 64 64 61 59 58 61 62 63 62 63 61 62 62 62 61 60 58 58 61 63 66 68 69 69 68 68 68 68 68 68 69 68 68
68 69 68 67 66 66 65 65 64 63 61 61 62 61 56 56 59 61 61 61 60 59 60 60 60 59 57 56 58 58 62 64 66 68 68 67 67 67 67 68 67 68 67
67 67 67 66 65 63 63 63 63 62 62 59 60 62 61 60 57 56 61 61 61 60 58 58 58 57 55 53 56 58 59 62 65 66 67 67 66 66 66 66 66 67 65
63 63 63 63 63 62 62 61 60 60 60 60 58 57 58 58 60 57 54 57 60 60 57 57 55 54 56 54 51 55 58 61 64 64 65 65 64 64 64 64 64 64 64
61 62 63 62 62 62 61 60 60 59 59 58 56 57 57 57 56 56 54 55 55 55 58 58 54 53 53 51 54 55 57 59 61 62 64 63 62 61 61 61 62 62 62
60 61 62 61 61 61 61 60 59 58 58 57 57 57 57 57 57 58 56 54 54 55 55 52 51 50 52 48 50 53 55 57 58 60 61 61 59 58 58 58 59 59 59
60 61 61 61 61 61 61 60 60 59 58 57 57 56 56 56 56 55 54 54 50 50 49 48 47 48 48 48 50 53 50 54 56 57 58 57 56 55 55 55 55 56 56
62 61 61 61 61 61 61 60 60 59 57 56 55 54 54 55 54 54 54 53 50 46 46 46 45 46 45 45 48 47 47 52 55 55 54 54 53 53 52 52 52 53 53
60 60 61 61 61 61 61 60 59 59 56 55 55 54 53 53 53 52 52 51 50 49 45 47 45 45 46 47 48 45 46 50 53 53 53 52 52 51 51 51 51 51 52
60 60 60 60 60 60 60 59 59 56 55 54 54 54 52 52 50 50 50 50 49 49 45 44 44 44 44 43 43 43 45 44 47 52 52 51 50 50 50 50 50 50 50
57 57 57 56 56 56 56 56 55 55 54 53 53 52 50 52 50 51 49 48 48 47 47 44 44 42 44 45 44 43 44 46 45 49 49 50 49 49 48 49 49 48 49
53 53 54 54 54 54 53 53 53 52 52 53 52 51 51 49 48 47 46 46 45 46 45 44 42 43 43 42 41 41 41 42 45 46 47 48 48 47 48 48 48 47 48
51 51 51 52 53 53 53 52 51 51 50 51 51 51 51 50 48 46 45 44 44 42 42 42 42 42 41 41 41 38 37 39 39 44 46 45 46 46 46 47 46 46 47
51 50 50 50 50 51 52 51 51 50 49 50 50 50 50 50 49 48 46 43 43 41 39 37 38 40 38 37 36 37 37 37 38 39 39 38 36 33 35 40 42 45 47
47 48 48 48 47 49 51 51 51 50 49 49 47 47 47 47 48 50 49 48 46 41 39 39 38 39 38 38 38 36 35 34 33 36 31 31 31 30 32 34 45 46 46
45 45 45 45 45 46 50 52 51 48 47 46 46 45 44 45 45 44 47 47 46 48 46 41 40 39 39 39 37 35 35 35 35 33 30 28 29 29 31 37 43 45 44
43 43 44 44 44 45 49 50 50 43 43 44 44 44 43 42 42 41 40 36 37 38 40 40 38 42 42 39 39 38 37 34 32 31 30 24 27 28 30 31 43 43 43
42 42 42 42 42 42 48 49 48 42 41 41 43 43 43 41 44 45 38 34 34 35 43 43 42 43 45 45 42 36 31 28 25 28 28 28 26 26 28 29 31 41 41
45 44 44 42 43 41 46 48 47 44 43 42 43 42 45 42 45 46 39 35 32 32 34 33 34 38 40 41 44 35 31 25 23 23 28 25 23 24 21 27 29 30 30

GFSMA_sfc_temp_108.txt.gz
Temp
69 72 72 70 69 64 64 62 62 61 61 62 64 64 65 66 65 66 64 65 70 73 76 76 76 76 76 75 75 74 73 72 71 71 71 71 71 70 70 70 70 70 70
70 70 70 68 67 63 63 62 61 61 62 63 64 65 66 66 66 67 66 65 68 71 73 75 76 76 76 76 76 74 73 72 71 71 70 70 70 70 70 70 70 70 70
70 69 69 68 64 62 63 62 62 62 62 65 64 66 67 67 67 67 67 67 69 65 69 74 75 75 74 74 75 75 73 72 71 70 70 70 69 69 70 70 70 70 70
71 69 68 68 66 63 63 62 62 62 62 63 64 65 67 68 68 68 71 66 66 67 66 69 71 73 72 73 74 75 73 71 70 70 69 69 69 69 69 70 70 70 70
70 68 68 66 65 65 65 65 63 64 62 63 65 66 66 66 69 71 68 65 65 64 63 66 66 66 68 71 73 74 72 71 70 69 69 69 69 69 69 69 69 69 69
70 69 67 66 67 65 65 63 64 63 64 64 68 67 66 66 68 67 67 66 64 63 62 62 61 61 65 68 71 74 72 70 69 69 68 68 68 68 69 69 69 69 69
69 68 68 67 67 66 65 64 64 64 62 63 62 63 63 64 64 66 64 62 62 62 61 61 60 59 60 64 69 71 70 70 69 68 68 68 68 68 68 69 69 68 68
68 68 68 67 66 65 64 65 64 62 62 61 61 58 57 61 61 61 60 62 60 61 60 60 59 58 57 57 60 65 67 68 69 69 68 68 68 67 68 68 68 69 68
68 67 67 66 65 65 64 63 62 62 60 61 62 60 55 55 56 59 59 59 58 58 58 58 58 58 56 55 56 58 62 64 66 68 68 67 67 67 67 67 67 67 67
67 67 67 65 65 64 62 63 63 62 61 60 59 60 60 59 55 53 58 58 59 58 59 59 58 56 56 53 56 58 59 62 65 66 67 67 66 66 66 66 66 66 66
63 64 64 64 63 62 61 61 60 60 61 60 59 57 57 58 58 55 53 55 59 59 59 59 57 55 56 53 52 56 59 61 63 64 66 65 64 63 64 64 64 64 63
61 61 62 62 62 61 61 61 60 60 60 60 62 58 57 56 55 55 54 53 56 56 56 55 54 54 53 50 54 56 57 59 61 62 64 64 62 61 61 61 61 61 61
60 60 61 61 61 61 61 61 59 59 59 58 58 57 57 56 56 56 54 53 53 54 54 52 52 51 50 48 49 52 55 57 58 60 61 61 59 58 58 58 58 58 58
60 61 61 61 61 61 60 60 60 59 59 58 58 57 57 57 57 56 55 53 48 50 51 49 49 47 47 47 49 52 49 54 56 57 58 57 56 55 55 55 55 55 56
61 61 61 61 61 60 60 60 60 59 59 58 58 57 55 55 55 55 55 54 52 46 46 46 45 45 45 46 48 46 46 52 55 55 54 54 53 53 52 52 52 53 53
60 60 60 59 59 60 60 60 60 60 58 57 56 55 55 53 53 53 53 52 51 49 46 46 45 45 46 47 48 45 46 50 52 54 53 52 52 51 51 51 51 51 52
60 59 60 60 60 60 61 60 60 59 58 58 56 54 54 53 52 50 50 50 49 49 46 43 44 44 43 43 43 42 43 43 46 52 52 52 50 50 50 50 50 50 50
55 57 57 57 57 57 57 58 58 57 56 57 56 55 54 52 51 51 50 49 48 48 46 44 42 42 43 42 44 43 44 44 44 49 50 50 50 49 49 49 49 48 48
52 52 52 53 54 55 54 54 54 54 54 54 54 53 54 52 50 49 48 48 47 47 46 43 41 42 42 43 41 42 42 41 44 46 48 48 49 48 48 48 47 47 48
50 50 50 50 50 52 52 52 52 51 51 51 51 51 51 51 50 49 47 47 45 44 42 41 40 41 40 41 41 39 37 39 39 44 46 46 46 46 47 47 45 46 47
48 48 48 49 48 48 50 48 50 51 50 50 49 50 50 49 49 49 48 46 44 43 40 39 38 41 39 37 38 38 38 37 37 39 39 39 38 36 35 39 41 45 46
45 46 46 46 46 48 50 51 50 47 48 49 48 48 48 47 48 50 50 49 47 44 42 40 37 38 39 38 38 36 35 34 34 36 35 35 32 31 32 33 43 45 45
43 43 43 43 43 44 49 51 51 46 45 45 46 45 45 46 46 46 49 49 48 48 47 44 38 39 38 40 38 35 35 35 35 34 33 29 29 29 31 36 42 44 44
41 41 42 42 42 44 48 49 50 44 42 43 44 45 45 44 44 43 43 41 41 42 43 42 41 40 41 42 42 40 37 35 33 34 31 27 27 28 29 30 40 43 42
40 40 41 43 43 42 46 47 47 43 40 40 44 44 45 44 45 46 41 38 37 37 43 44 43 44 46 46 41 36 33 33 31 29 29 29 26 26 27 28 31 41 41
42 43 43 45 46 45 47 47 47 46 44 43 44 43 45 44 46 46 41 38 35 35 36 35 36 39 42 42 44 38 34 33 25 25 29 27 23 24 21 27 28 29 30

GFSMA_sfc_temp_111.txt.gz
Temp
70 72 68 70 69 67 66 64 61 61 60 60 61 62 62 62 62 63 63 65 68 73 76 76 76 76 76 75 75 75 73 73 71 70 70 70 70 70 71 71 71 71 71
71 70 69 68 68 67 64 65 61 60 59 60 61 62 63 63 64 64 64 64 67 70 73 76 76 76 76 76 76 75 73 72 71 71 70 70 70 70 70 70 70 70 70
71 71 69 68 68 66 64 64 61 60 59 61 60 63 64 64 65 65 66 64 65 66 69 74 75 75 75 75 75 75 73 72 71 70 70 69 69 69 69 70 70 70 70
69 68 69 68 66 64 62 62 60 59 59 59 61 62 64 65 66 66 66 65 65 66 66 69 71 73 73 73 74 74 73 71 70 70 69 69 69 69 69 69 69 69 70
67 68 66 67 66 64 62 62 60 60 60 60 62 63 64 65 66 68 65 65 65 64 63 66 66 66 68 70 72 74 74 71 70 69 69 68 69 69 69 69 69 69 69
65 65 65 67 66 65 63 60 61 61 62 62 66 65 64 64 64 64 64 65 64 63 62 62 61 61 64 68 71 73 73 71 70 69 69 68 68 68 68 69 69 69 69
65 64 64 64 65 66 65 65 63 62 61 61 61 61 62 62 62 62 62 62 61 61 60 60 59 58 59 64 69 71 71 70 70 69 69 68 68 68 68 68 68 69 68
65 64 65 65 66 65 64 64 63 61 61 60 60 57 57 60 60 61 60 61 59 59 59 59 58 58 57 57 60 65 68 70 69 69 69 68 68 68 68 68 67 68 68
65 65 65 65 65 65 63 62 62 61 58 59 61 60 54 55 56 59 58 59 58 57 57 58 58 57 56 55 57 58 62 64 66 68 68 68 68 67 67 67 66 67 66
64 65 65 65 65 64 62 63 62 61 61 59 59 60 58 58 55 53 56 57 57 57 57 58 58 58 57 56 57 58 60 61 64 66 68 68 67 66 65 65 65 66 65
63 64 65 65 65 64 63 62 60 60 60 59 58 57 57 57 57 53 54 55 57 57 59 59 58 57 56 55 54 57 59 61 63 64 66 65 65 64 64 64 63 63 63
60 61 61 61 61 61 60 60 60 60 60 60 59 58 58 56 55 54 53 53 54 55 56 56 56 55 54 53 55 56 58 59 60 62 64 65 63 62 61 61 61 61 61
59 60 61 61 60 60 60 60 59 59 59 60 60 60 59 60 58 56 55 53 53 52 52 52 53 51 52 49 52 53 55 57 58 60 62 62 59 58 58 58 58 58 58
60 60 60 61 60 60 60 60 59 59 58 58 58 57 58 58 57 58 57 53 49 50 50 50 48 48 49 49 50 53 50 55 56 57 59 58 56 55 55 55 55 55 55
60 60 60 60 60 60 60 59 59 59 59 59 59 59 58 58 57 57 55 54 53 47 49 49 47 46 46 47 49 46 46 53 55 55 55 54 54 53 53 53 53 53 53
60 60 60 60 59 59 59 60 60 60 59 59 59 58 58 57 56 55 54 55 54 54 50 48 46 46 46 47 48 45 46 50 53 54 53 52 52 51 51 51 51 51 52
59 59 59 59 59 59 60 60 60 60 59 59 58 57 57 57 55 53 53 54 52 51 50 45 45 45 45 44 44 44 45 44 44 52 53 52 51 50 50 50 50 50 50
54 54 54 56 56 57 57 57 58 58 58 57 58 56 56 55 55 54 53 52 52 50 49 46 43 43 44 43 41 40 42 44 42 49 51 51 50 50 49 49 49 48 48
51 51 51 51 52 52 53 54 54 54 54 54 55 55 55 54 52 51 51 51 50 48 47 45 42 43 43 44 42 41 39 39 43 47 50 49 50 49 48 48 48 47 47
48 48 48 49 49 49 49 49 50 50 50 51 52 52 53 52 52 50 49 48 47 46 45 44 42 42 42 42 42 39 38 38 38 43 46 46 47 47 47 47 45 45 46
46 46 45 46 46 47 48 47 47 47 47 48 50 50 51 50 49 50 49 48 47 46 44 43 41 41 39 38 38 39 38 37 38 40 39 39 37 37 38 40 41 44 46
43 43 43 43 43 46 49 50 49 46 46 46 46 47 47 47 48 50 50 50 49 46 43 42 41 41 41 39 38 36 36 35 35 36 36 34 34 33 33 32 41 45 45
40 40 41 42 42 42 48 49 49 44 43 43 43 46 46 45 47 46 49 50 49 49 50 46 43 42 40 40 38 35 35 36 36 33 33 31 31 31 32 36 42 44 44
39 39 39 40 40 42 47 48 48 43 41 41 41 42 43 44 44 44 44 43 44 44 47 44 45 43 44 42 42 40 38 36 34 33 33 29 29 30 30 31 40 43 42
38 38 39 39 39 41 47 48 47 45 44 43 43 44 43 42 45 47 42 40 39 39 43 45 45 45 46 46 42 38 34 34 32 32 31 31 27 27 27 28 31 41 41
39 39 40 41 43 40 45 47 47 45 44 44 45 44 46 45 46 47 43 40 36 39 37 36 37 40 43 42 45 40 37 34 32 30 31 28 25 26 22 27 28 30 30

GFSMA_sfc_temp_114.txt.gz
Temp
70 71 66 65 65 66 65 65 63 62 59 59 59 59 60 60 60 61 61 64 68 72 75 76 76 76 76 76 75 75 74 73 72 71 70 70 70 70 70 70 70 71 71
71 71 70 68 64 65 64 65 62 60 59 59 60 60 60 60 61 61 62 63 66 69 72 75 76 76 76 76 75 75 74 72 72 71 70 70 70 70 70 70 70 70 71
68 70 69 67 67 67 65 63 63 60 58 59 58 60 61 61 62 63 64 63 64 65 68 73 75 75 75 75 75 75 75 72 71 71 70 70 69 69 69 70 70 70 70
69 69 68 67 67 66 66 64 62 59 58 57 58 59 61 62 63 63 64 64 63 65 66 69 71 73 73 73 74 74 74 72 71 70 70 69 69 69 69 69 69 69 70
69 68 67 67 65 65 65 65 61 61 58 58 59 60 61 62 64 67 65 64 64 63 63 65 66 68 69 71 72 73 74 72 71 70 69 69 69 69 69 69 69 69 69
67 67 67 65 65 63 62 63 62 60 60 60 64 63 62 63 63 63 64 65 64 62 62 62 61 61 65 68 70 72 73 72 70 70 69 69 69 68 68 69 69 69 69
65 65 65 64 64 62 62 63 62 61 59 59 59 59 60 62 62 62 62 62 61 61 61 60 59 59 59 63 66 70 72 71 70 70 69 69 68 68 68 68 68 68 69
65 65 64 63 63 62 62 61 62 60 61 59 58 56 55 59 60 61 60 61 60 59 59 59 59 58 57 57 60 65 69 71 71 69 69 69 68 68 68 68 67 67 67
65 64 63 63 63 62 62 62 61 61 58 58 60 60 54 54 56 58 58 59 58 57 57 58 58 57 57 57 58 61 63 65 68 69 69 68 67 68 67 66 66 67 66
64 63 63 63 63 63 63 63 62 61 60 58 58 60 59 58 55 55 57 57 56 57 57 57 58 58 57 56 57 58 61 62 65 67 68 69 68 67 65 65 65 65 64
63 63 63 63 63 63 63 63 61 60 61 59 59 56 56 56 56 55 54 56 56 57 58 59 59 58 57 56 55 57 60 62 64 65 66 67 66 66 65 64 63 63 63
62 63 63 63 63 63 63 62 60 60 60 60 59 58 58 56 54 54 53 54 56 57 57 58 57 56 56 55 55 57 59 60 62 63 64 66 64 63 62 61 61 61 61
59 60 61 61 60 60 60 60 59 59 59 59 59 59 60 60 59 57 56 56 53 54 53 54 55 54 53 52 53 54 57 58 59 61 63 65 61 59 58 58 58 58 58
60 60 60 60 60 60 60 60 59 59 59 59 58 58 57 56 56 56 56 55 53 51 51 52 50 51 51 51 51 53 52 56 57 59 61 60 58 56 56 55 55 55 55
60 60 60 60 60 60 60 60 59 59 58 59 59 59 58 59 57 58 58 57 55 51 49 50 49 49 49 49 50 50 48 54 56 57 57 56 55 54 53 53 53 53 53
59 60 59 59 59 59 60 59 59 59 59 59 59 58 59 59 59 58 57 56 55 54 50 54 49 47 48 48 49 47 47 51 55 56 55 54 53 53 52 51 51 51 51
57 57 58 59 59 58 58 58 58 58 59 59 59 58 58 58 57 55 55 54 54 53 51 49 46 46 46 46 46 45 46 45 46 54 54 53 52 51 51 50 50 49 50
52 52 53 54 54 55 55 55 55 55 56 56 57 57 56 57 56 56 55 54 53 53 52 50 44 43 45 45 45 43 44 44 43 49 53 53 52 51 50 49 49 48 48
49 49 49 49 49 50 50 50 50 50 51 52 53 53 54 55 54 54 53 52 51 50 50 47 43 44 43 43 42 42 42 41 43 46 51 51 51 51 49 49 48 47 47
46 46 46 46 47 47 47 47 47 47 47 48 49 50 51 51 52 52 51 51 50 48 46 45 43 42 42 42 42 40 39 39 39 43 46 47 48 50 49 48 46 45 46
43 43 43 44 44 46 47 45 46 45 45 45 46 47 48 48 49 50 50 49 48 47 46 45 42 41 40 39 41 40 41 39 38 40 39 40 39 37 38 44 43 44 46
41 41 41 42 42 45 48 49 48 44 43 43 43 44 44 46 47 50 50 50 49 47 45 44 44 43 42 40 40 39 39 36 36 39 37 36 37 34 35 35 42 45 45
38 39 39 40 40 40 48 49 48 43 41 41 41 41 43 45 45 44 47 50 50 50 50 47 45 44 44 41 41 37 37 36 36 34 36 34 34 32 33 36 43 45 44
36 36 37 38 38 41 47 48 48 41 40 40 41 42 44 44 44 45 44 43 45 46 48 48 47 48 46 44 44 41 39 35 34 34 35 32 30 31 31 31 42 44 43
35 36 37 37 36 38 45 46 45 41 39 39 41 42 44 44 46 47 44 41 41 43 44 47 47 46 46 46 44 38 34 35 32 32 33 33 27 27 28 29 32 42 42
35 36 37 37 41 39 43 45 44 43 41 42 44 45 47 46 47 47 44 42 39 41 39 38 38 41 44 44 45 41 36 35 33 31 32 32 27 25 21 27 29 31 32

GFSMA_sfc_temp_117.txt.gz
Temp
73 73 74 72 74 74 74 73 72 73 72 70 72 73 73 74 75 75 76 64 67 71 74 76 76 76 76 76 76 75 74 73 72 71 71 70 70 70 71 71 71 71 71
72 72 72 70 74 73 72 73 71 71 71 71 71 72 73 74 74 74 75 75 66 68 71 74 75 76 77 76 76 75 74 73 72 71 71 70 70 70 70 70 70 70 71
71 75 74 73 71 73 69 68 72 72 69 69 70 71 72 74 73 74 75 75 74 65 68 73 75 75 76 76 75 75 75 73 72 71 71 70 70 69 70 70 70 70 70
69 69 72 73 72 68 70 65 66 69 65 66 66 71 72 73 74 75 75 75 74 74 70 68 71 74 74 74 75 75 74 74 72 71 71 70 69 69 69 69 69 69 70
72 70 70 72 71 68 69 67 63 68 65 65 64 68 72 72 73 74 75 74 74 72 73 68 66 68 70 72 73 74 74 74 71 71 70 70 69 69 69 69 69 69 69
71 69 71 69 70 68 66 66 64 63 64 65 67 68 71 72 72 72 73 73 73 71 72 71 71 69 66 69 70 72 73 74 71 71 70 70 69 69 69 69 69 68 69
71 70 69 67 68 66 65 65 63 62 61 66 66 68 69 71 72 71 72 72 70 70 71 70 72 72 71 65 67 69 72 74 71 71 70 69 69 69 69 68 68 68 68
69 69 68 66 66 65 64 62 62 60 61 62 64 64 63 68 69 70 70 69 70 68 68 69 68 70 69 70 68 66 70 73 72 71 70 69 69 69 69 68 67 67 67
68 67 67 66 66 64 64 64 63 62 60 60 64 64 60 59 61 65 65 67 66 63 65 65 68 67 67 67 65 64 64 67 71 71 70 70 69 69 69 68 67 67 66
66 66 65 66 66 66 64 64 63 63 61 60 60 61 63 65 61 61 65 64 63 62 65 66 66 66 66 64 60 60 61 63 67 69 70 70 70 69 68 67 66 65 64
66 64 64 63 64 65 65 65 63 62 62 61 61 59 61 61 61 57 59 60 60 64 65 65 67 63 60 63 58 59 60 63 65 67 68 69 69 69 68 67 65 64 63
64 63 64 65 64 63 62 63 61 62 63 62 64 63 63 59 58 56 56 59 60 64 62 62 63 61 60 61 58 57 59 61 64 65 67 68 69 68 67 64 63 61 61
61 62 63 62 62 62 63 61 60 61 62 61 61 60 60 59 59 58 58 58 57 59 59 60 61 61 57 57 56 55 57 59 61 63 65 67 67 64 62 61 60 59 58
61 63 62 61 61 61 61 61 60 60 59 60 61 61 60 60 59 58 58 56 57 58 58 59 56 55 54 55 53 54 54 56 57 61 63 65 61 59 59 58 57 56 56
60 61 61 60 60 60 60 60 59 59 59 60 61 61 61 60 58 58 58 58 56 53 56 57 52 52 53 53 53 53 51 54 57 58 59 59 57 56 55 55 54 54 53
59 59 60 60 60 60 60 59 59 59 59 59 59 59 61 61 60 59 58 58 57 55 53 56 53 50 52 51 52 51 49 50 54 57 57 55 55 54 54 53 52 52 52
54 55 55 55 56 57 58 58 58 58 58 58 59 59 58 59 58 58 57 56 55 55 52 54 50 48 49 49 48 47 48 48 50 54 56 54 54 53 53 52 51 51 50
51 51 52 53 52 52 52 53 53 54 55 54 54 54 55 56 56 57 56 55 54 55 53 52 47 45 47 49 49 47 46 46 47 49 54 54 53 52 52 51 50 50 49
50 51 51 51 51 51 52 52 52 52 52 52 53 53 54 54 54 54 54 53 53 52 52 51 48 46 45 45 43 43 44 44 45 47 50 53 53 52 51 50 50 49 48
48 49 48 48 48 49 50 50 50 50 50 51 51 51 52 51 52 52 52 52 52 51 50 50 46 43 43 44 44 42 40 41 41 44 47 49 51 51 51 50 49 47 46
46 47 47 47 47 49 49 49 49 48 48 48 49 49 50 49 47 49 50 50 50 49 48 47 45 43 41 40 42 44 43 42 41 41 41 43 46 46 47 49 46 45 46
44 44 44 44 44 46 48 49 49 47 46 46 46 47 48 46 48 48 49 49 49 47 47 46 46 44 44 44 45 42 44 39 38 42 39 39 43 41 41 42 43 44 46
41 41 42 42 42 44 47 47 47 46 44 45 45 45 45 47 47 47 48 48 49 49 50 49 45 46 46 46 46 40 42 39 39 38 40 39 39 39 41 41 43 45 46
39 40 40 41 41 43 46 46 45 44 44 44 45 46 46 47 47 47 47 46 47 48 50 50 49 49 49 50 46 45 43 40 35 36 40 38 39 39 39 41 43 45 45
39 39 40 39 39 41 44 45 44 43 43 42 43 45 45 46 47 47 45 43 43 44 47 47 48 48 48 48 46 40 37 36 34 33 34 37 34 37 38 39 42 44 44
37 38 38 38 40 40 41 42 43 42 41 41 43 43 44 44 45 45 44 42 40 42 43 43 40 42 45 45 46 43 39 36 34 32 33 34 31 34 33 37 39 41 44